<?xml version="1.0" encoding="UTF-8" standalone="no" ?>
<gpx xmlns="http://www.topografix.com/GPX/1/1" xmlns:xsi="http://www.w3.org/2001/XMLSchema-instance" xsi:schemaLocation="http://www.topografix.com/GPX/1/1 http://www.topografix.com/GPX/1/1/gpx.xsd" version="1.1" creator="VisuGPX - https://www.visugpx.com">
  <metadata>
    <name>VTT Tour de Montsérieux depuis Gigors</name>
    <desc><![CDATA[Joli circuit sur pistes forestières confortables un peu plus caillouteuse à la descente.On part du petit village de Gigors (04) pour une montée assez régulière en tournant largement autours du Montsérieux on y découvre différends panoramas selon l\'orientation
Les amateurs de monotraces caillouteuses acrobatiques et autres galères s\'abstiendront ]]></desc>
  </metadata>
  <trk>
    <name><![CDATA[N°  Tour de Montsérieux  depuis Gigors 17/07/2012]]></name>
    <trkseg>
      <trkpt lat="44.4186" lon="6.16337">
        <ele>752.3688965</ele>
        <time>2012-07-17T08:26:28Z</time>
      </trkpt>
      <trkpt lat="44.41871" lon="6.16342">
        <ele>749.0043945</ele>
        <time>2012-07-17T08:26:30Z</time>
      </trkpt>
      <trkpt lat="44.41872" lon="6.16343">
        <ele>749.0043945</ele>
        <time>2012-07-17T08:26:31Z</time>
      </trkpt>
      <trkpt lat="44.41865" lon="6.1634">
        <ele>750.4465332</ele>
        <time>2012-07-17T08:26:33Z</time>
      </trkpt>
      <trkpt lat="44.41864" lon="6.1634">
        <ele>751.8884277</ele>
        <time>2012-07-17T08:26:35Z</time>
      </trkpt>
      <trkpt lat="44.41864" lon="6.1634">
        <ele>755.7336426</ele>
        <time>2012-07-17T08:26:38Z</time>
      </trkpt>
      <trkpt lat="44.41863" lon="6.16341">
        <ele>759.5788574</ele>
        <time>2012-07-17T08:26:39Z</time>
      </trkpt>
      <trkpt lat="44.41863" lon="6.16341">
        <ele>762.9433594</ele>
        <time>2012-07-17T08:26:40Z</time>
      </trkpt>
      <trkpt lat="44.41863" lon="6.16341">
        <ele>766.7888184</ele>
        <time>2012-07-17T08:26:41Z</time>
      </trkpt>
      <trkpt lat="44.41863" lon="6.1634">
        <ele>770.1533203</ele>
        <time>2012-07-17T08:26:42Z</time>
      </trkpt>
      <trkpt lat="44.41863" lon="6.1634">
        <ele>775.9211426</ele>
        <time>2012-07-17T08:26:44Z</time>
      </trkpt>
      <trkpt lat="44.41864" lon="6.1634">
        <ele>778.8051758</ele>
        <time>2012-07-17T08:26:45Z</time>
      </trkpt>
      <trkpt lat="44.41864" lon="6.16341">
        <ele>784.0925293</ele>
        <time>2012-07-17T08:26:47Z</time>
      </trkpt>
      <trkpt lat="44.41863" lon="6.16341">
        <ele>788.8991699</ele>
        <time>2012-07-17T08:26:49Z</time>
      </trkpt>
      <trkpt lat="44.41863" lon="6.16341">
        <ele>794.1862793</ele>
        <time>2012-07-17T08:26:51Z</time>
      </trkpt>
      <trkpt lat="44.41863" lon="6.16341">
        <ele>798.9929199</ele>
        <time>2012-07-17T08:26:53Z</time>
      </trkpt>
      <trkpt lat="44.41863" lon="6.16341">
        <ele>803.3188477</ele>
        <time>2012-07-17T08:26:55Z</time>
      </trkpt>
      <trkpt lat="44.41863" lon="6.1634">
        <ele>806.2026367</ele>
        <time>2012-07-17T08:26:57Z</time>
      </trkpt>
      <trkpt lat="44.41863" lon="6.16341">
        <ele>810.0478516</ele>
        <time>2012-07-17T08:27:00Z</time>
      </trkpt>
      <trkpt lat="44.41863" lon="6.16341">
        <ele>815.3354492</ele>
        <time>2012-07-17T08:27:02Z</time>
      </trkpt>
      <trkpt lat="44.41863" lon="6.16341">
        <ele>819.661377</ele>
        <time>2012-07-17T08:27:04Z</time>
      </trkpt>
      <trkpt lat="44.41863" lon="6.16341">
        <ele>823.9870605</ele>
        <time>2012-07-17T08:27:07Z</time>
      </trkpt>
      <trkpt lat="44.41863" lon="6.16341">
        <ele>825.4289551</ele>
        <time>2012-07-17T08:27:09Z</time>
      </trkpt>
      <trkpt lat="44.41862" lon="6.16341">
        <ele>822.545166</ele>
        <time>2012-07-17T08:27:12Z</time>
      </trkpt>
      <trkpt lat="44.41862" lon="6.16341">
        <ele>825.909668</ele>
        <time>2012-07-17T08:27:25Z</time>
      </trkpt>
      <trkpt lat="44.41862" lon="6.16341">
        <ele>827.8322754</ele>
        <time>2012-07-17T08:27:27Z</time>
      </trkpt>
      <trkpt lat="44.41862" lon="6.16341">
        <ele>831.1972656</ele>
        <time>2012-07-17T08:27:29Z</time>
      </trkpt>
      <trkpt lat="44.41862" lon="6.16341">
        <ele>835.0424805</ele>
        <time>2012-07-17T08:27:32Z</time>
      </trkpt>
      <trkpt lat="44.41862" lon="6.16341">
        <ele>837.9262695</ele>
        <time>2012-07-17T08:27:34Z</time>
      </trkpt>
      <trkpt lat="44.41862" lon="6.16341">
        <ele>839.3681641</ele>
        <time>2012-07-17T08:27:36Z</time>
      </trkpt>
      <trkpt lat="44.41863" lon="6.1634">
        <ele>842.2521973</ele>
        <time>2012-07-17T08:27:41Z</time>
      </trkpt>
      <trkpt lat="44.41863" lon="6.1634">
        <ele>845.6169434</ele>
        <time>2012-07-17T08:27:45Z</time>
      </trkpt>
      <trkpt lat="44.41863" lon="6.1634">
        <ele>849.4621582</ele>
        <time>2012-07-17T08:27:50Z</time>
      </trkpt>
      <trkpt lat="44.41863" lon="6.1634">
        <ele>849.4621582</ele>
        <time>2012-07-17T08:27:51Z</time>
      </trkpt>
      <trkpt lat="44.41863" lon="6.1634">
        <ele>850.9040527</ele>
        <time>2012-07-17T08:27:58Z</time>
      </trkpt>
      <trkpt lat="44.41863" lon="6.16338">
        <ele>854.2687988</ele>
        <time>2012-07-17T08:28:02Z</time>
      </trkpt>
      <trkpt lat="44.41861" lon="6.16338">
        <ele>856.1911621</ele>
        <time>2012-07-17T08:28:16Z</time>
      </trkpt>
      <trkpt lat="44.41861" lon="6.16338">
        <ele>858.1140137</ele>
        <time>2012-07-17T08:28:19Z</time>
      </trkpt>
      <trkpt lat="44.4186" lon="6.16337">
        <ele>858.5944824</ele>
        <time>2012-07-17T08:28:25Z</time>
      </trkpt>
      <trkpt lat="44.41858" lon="6.1632">
        <ele>858.1140137</ele>
        <time>2012-07-17T08:28:33Z</time>
      </trkpt>
      <trkpt lat="44.41864" lon="6.16294">
        <ele>861.9594727</ele>
        <time>2012-07-17T08:28:42Z</time>
      </trkpt>
      <trkpt lat="44.41866" lon="6.16251">
        <ele>863.8818359</ele>
        <time>2012-07-17T08:28:58Z</time>
      </trkpt>
      <trkpt lat="44.41866" lon="6.16243">
        <ele>865.3239746</ele>
        <time>2012-07-17T08:29:01Z</time>
      </trkpt>
      <trkpt lat="44.41864" lon="6.16206">
        <ele>865.8046875</ele>
        <time>2012-07-17T08:29:16Z</time>
      </trkpt>
      <trkpt lat="44.41865" lon="6.16194">
        <ele>866.2851563</ele>
        <time>2012-07-17T08:29:21Z</time>
      </trkpt>
      <trkpt lat="44.41864" lon="6.16189">
        <ele>866.2851563</ele>
        <time>2012-07-17T08:29:23Z</time>
      </trkpt>
      <trkpt lat="44.41867" lon="6.1617">
        <ele>867.7270508</ele>
        <time>2012-07-17T08:29:31Z</time>
      </trkpt>
      <trkpt lat="44.41867" lon="6.16135">
        <ele>869.1691895</ele>
        <time>2012-07-17T08:29:44Z</time>
      </trkpt>
      <trkpt lat="44.41866" lon="6.16082">
        <ele>870.1303711</ele>
        <time>2012-07-17T08:30:04Z</time>
      </trkpt>
      <trkpt lat="44.4187" lon="6.16041">
        <ele>870.611084</ele>
        <time>2012-07-17T08:30:19Z</time>
      </trkpt>
      <trkpt lat="44.41885" lon="6.15985">
        <ele>871.5722656</ele>
        <time>2012-07-17T08:30:37Z</time>
      </trkpt>
      <trkpt lat="44.41892" lon="6.15934">
        <ele>872.5336914</ele>
        <time>2012-07-17T08:30:54Z</time>
      </trkpt>
      <trkpt lat="44.41896" lon="6.15906">
        <ele>872.5336914</ele>
        <time>2012-07-17T08:31:04Z</time>
      </trkpt>
      <trkpt lat="44.41895" lon="6.15891">
        <ele>873.4951172</ele>
        <time>2012-07-17T08:31:09Z</time>
      </trkpt>
      <trkpt lat="44.41902" lon="6.15838">
        <ele>875.4174805</ele>
        <time>2012-07-17T08:31:29Z</time>
      </trkpt>
      <trkpt lat="44.41902" lon="6.15802">
        <ele>876.3791504</ele>
        <time>2012-07-17T08:31:43Z</time>
      </trkpt>
      <trkpt lat="44.41906" lon="6.15798">
        <ele>876.8598633</ele>
        <time>2012-07-17T08:31:45Z</time>
      </trkpt>
      <trkpt lat="44.41913" lon="6.1572">
        <ele>877.8210449</ele>
        <time>2012-07-17T08:32:17Z</time>
      </trkpt>
      <trkpt lat="44.41913" lon="6.15712">
        <ele>879.7436523</ele>
        <time>2012-07-17T08:32:20Z</time>
      </trkpt>
      <trkpt lat="44.419" lon="6.15623">
        <ele>881.185791</ele>
        <time>2012-07-17T08:32:57Z</time>
      </trkpt>
      <trkpt lat="44.41898" lon="6.15618">
        <ele>883.1081543</ele>
        <time>2012-07-17T08:32:59Z</time>
      </trkpt>
      <trkpt lat="44.41904" lon="6.15566">
        <ele>885.0310059</ele>
        <time>2012-07-17T08:33:21Z</time>
      </trkpt>
      <trkpt lat="44.41908" lon="6.15543">
        <ele>885.0310059</ele>
        <time>2012-07-17T08:33:31Z</time>
      </trkpt>
      <trkpt lat="44.41909" lon="6.15539">
        <ele>885.9921875</ele>
        <time>2012-07-17T08:33:33Z</time>
      </trkpt>
      <trkpt lat="44.41918" lon="6.15488">
        <ele>889.3566895</ele>
        <time>2012-07-17T08:33:53Z</time>
      </trkpt>
      <trkpt lat="44.41923" lon="6.15441">
        <ele>891.2792969</ele>
        <time>2012-07-17T08:34:12Z</time>
      </trkpt>
      <trkpt lat="44.41924" lon="6.15429">
        <ele>891.7600098</ele>
        <time>2012-07-17T08:34:17Z</time>
      </trkpt>
      <trkpt lat="44.4193" lon="6.15388">
        <ele>895.1247559</ele>
        <time>2012-07-17T08:34:34Z</time>
      </trkpt>
      <trkpt lat="44.4193" lon="6.15385">
        <ele>895.1247559</ele>
        <time>2012-07-17T08:34:35Z</time>
      </trkpt>
      <trkpt lat="44.41932" lon="6.15374">
        <ele>893.2021484</ele>
        <time>2012-07-17T08:34:40Z</time>
      </trkpt>
      <trkpt lat="44.41941" lon="6.15334">
        <ele>896.5668945</ele>
        <time>2012-07-17T08:34:57Z</time>
      </trkpt>
      <trkpt lat="44.41941" lon="6.15332">
        <ele>897.0473633</ele>
        <time>2012-07-17T08:34:58Z</time>
      </trkpt>
      <trkpt lat="44.41942" lon="6.15325">
        <ele>894.1635742</ele>
        <time>2012-07-17T08:35:01Z</time>
      </trkpt>
      <trkpt lat="44.41944" lon="6.15313">
        <ele>896.5668945</ele>
        <time>2012-07-17T08:35:06Z</time>
      </trkpt>
      <trkpt lat="44.41946" lon="6.15304">
        <ele>895.1247559</ele>
        <time>2012-07-17T08:35:10Z</time>
      </trkpt>
      <trkpt lat="44.4195" lon="6.15277">
        <ele>897.5280762</ele>
        <time>2012-07-17T08:35:22Z</time>
      </trkpt>
      <trkpt lat="44.41954" lon="6.15261">
        <ele>898.0087891</ele>
        <time>2012-07-17T08:35:29Z</time>
      </trkpt>
      <trkpt lat="44.41966" lon="6.1521">
        <ele>900.4121094</ele>
        <time>2012-07-17T08:35:50Z</time>
      </trkpt>
      <trkpt lat="44.41983" lon="6.1516">
        <ele>901.8540039</ele>
        <time>2012-07-17T08:36:12Z</time>
      </trkpt>
      <trkpt lat="44.42002" lon="6.15106">
        <ele>903.7766113</ele>
        <time>2012-07-17T08:36:35Z</time>
      </trkpt>
      <trkpt lat="44.42021" lon="6.15048">
        <ele>905.2185059</ele>
        <time>2012-07-17T08:36:57Z</time>
      </trkpt>
      <trkpt lat="44.42037" lon="6.15002">
        <ele>906.1796875</ele>
        <time>2012-07-17T08:37:14Z</time>
      </trkpt>
      <trkpt lat="44.42061" lon="6.14958">
        <ele>906.6604004</ele>
        <time>2012-07-17T08:37:32Z</time>
      </trkpt>
      <trkpt lat="44.42107" lon="6.1494">
        <ele>905.6992188</ele>
        <time>2012-07-17T08:37:48Z</time>
      </trkpt>
      <trkpt lat="44.42122" lon="6.14933">
        <ele>904.737793</ele>
        <time>2012-07-17T08:37:52Z</time>
      </trkpt>
      <trkpt lat="44.42139" lon="6.14925">
        <ele>904.737793</ele>
        <time>2012-07-17T08:37:55Z</time>
      </trkpt>
      <trkpt lat="44.42157" lon="6.14906">
        <ele>903.7766113</ele>
        <time>2012-07-17T08:37:59Z</time>
      </trkpt>
      <trkpt lat="44.42161" lon="6.14887">
        <ele>904.2573242</ele>
        <time>2012-07-17T08:38:02Z</time>
      </trkpt>
      <trkpt lat="44.42154" lon="6.1481">
        <ele>904.737793</ele>
        <time>2012-07-17T08:38:18Z</time>
      </trkpt>
      <trkpt lat="44.42134" lon="6.14786">
        <ele>905.6992188</ele>
        <time>2012-07-17T08:38:30Z</time>
      </trkpt>
      <trkpt lat="44.42126" lon="6.14786">
        <ele>906.1796875</ele>
        <time>2012-07-17T08:38:34Z</time>
      </trkpt>
      <trkpt lat="44.42106" lon="6.14788">
        <ele>907.6218262</ele>
        <time>2012-07-17T08:38:45Z</time>
      </trkpt>
      <trkpt lat="44.42086" lon="6.14769">
        <ele>908.1027832</ele>
        <time>2012-07-17T08:38:57Z</time>
      </trkpt>
      <trkpt lat="44.42094" lon="6.14711">
        <ele>910.9865723</ele>
        <time>2012-07-17T08:39:19Z</time>
      </trkpt>
      <trkpt lat="44.42109" lon="6.14656">
        <ele>911.947998</ele>
        <time>2012-07-17T08:39:40Z</time>
      </trkpt>
      <trkpt lat="44.42121" lon="6.1461">
        <ele>913.3898926</ele>
        <time>2012-07-17T08:39:58Z</time>
      </trkpt>
      <trkpt lat="44.42129" lon="6.14564">
        <ele>915.3125</ele>
        <time>2012-07-17T08:40:16Z</time>
      </trkpt>
      <trkpt lat="44.42126" lon="6.14519">
        <ele>917.2351074</ele>
        <time>2012-07-17T08:40:33Z</time>
      </trkpt>
      <trkpt lat="44.42121" lon="6.14468">
        <ele>919.1577148</ele>
        <time>2012-07-17T08:40:52Z</time>
      </trkpt>
      <trkpt lat="44.4212" lon="6.14457">
        <ele>919.6384277</ele>
        <time>2012-07-17T08:40:56Z</time>
      </trkpt>
      <trkpt lat="44.42115" lon="6.14406">
        <ele>921.0803223</ele>
        <time>2012-07-17T08:41:15Z</time>
      </trkpt>
      <trkpt lat="44.4211" lon="6.14353">
        <ele>923.0029297</ele>
        <time>2012-07-17T08:41:35Z</time>
      </trkpt>
      <trkpt lat="44.42107" lon="6.14293">
        <ele>925.40625</ele>
        <time>2012-07-17T08:41:56Z</time>
      </trkpt>
      <trkpt lat="44.42126" lon="6.14239">
        <ele>927.3291016</ele>
        <time>2012-07-17T08:42:18Z</time>
      </trkpt>
      <trkpt lat="44.42157" lon="6.1419">
        <ele>929.7321777</ele>
        <time>2012-07-17T08:42:43Z</time>
      </trkpt>
      <trkpt lat="44.4219" lon="6.14139">
        <ele>932.6162109</ele>
        <time>2012-07-17T08:43:08Z</time>
      </trkpt>
      <trkpt lat="44.42212" lon="6.14104">
        <ele>933.5773926</ele>
        <time>2012-07-17T08:43:26Z</time>
      </trkpt>
      <trkpt lat="44.4222" lon="6.14081">
        <ele>934.5388184</ele>
        <time>2012-07-17T08:43:36Z</time>
      </trkpt>
      <trkpt lat="44.42225" lon="6.14059">
        <ele>935.9807129</ele>
        <time>2012-07-17T08:43:44Z</time>
      </trkpt>
      <trkpt lat="44.42225" lon="6.14048">
        <ele>935.5</ele>
        <time>2012-07-17T08:43:49Z</time>
      </trkpt>
      <trkpt lat="44.42221" lon="6.14033">
        <ele>935.5</ele>
        <time>2012-07-17T08:43:55Z</time>
      </trkpt>
      <trkpt lat="44.42216" lon="6.14024">
        <ele>935.9807129</ele>
        <time>2012-07-17T08:44:00Z</time>
      </trkpt>
      <trkpt lat="44.42201" lon="6.14015">
        <ele>935.9807129</ele>
        <time>2012-07-17T08:44:06Z</time>
      </trkpt>
      <trkpt lat="44.42183" lon="6.14007">
        <ele>936.9418945</ele>
        <time>2012-07-17T08:44:15Z</time>
      </trkpt>
      <trkpt lat="44.42183" lon="6.14007">
        <ele>936.9418945</ele>
        <time>2012-07-17T08:44:18Z</time>
      </trkpt>
      <trkpt lat="44.42179" lon="6.14006">
        <ele>937.4226074</ele>
        <time>2012-07-17T08:44:21Z</time>
      </trkpt>
      <trkpt lat="44.42156" lon="6.1398">
        <ele>938.3840332</ele>
        <time>2012-07-17T08:44:33Z</time>
      </trkpt>
      <trkpt lat="44.42154" lon="6.13977">
        <ele>938.8647461</ele>
        <time>2012-07-17T08:44:35Z</time>
      </trkpt>
      <trkpt lat="44.4215" lon="6.13967">
        <ele>938.8647461</ele>
        <time>2012-07-17T08:44:38Z</time>
      </trkpt>
      <trkpt lat="44.42146" lon="6.13956">
        <ele>939.3452148</ele>
        <time>2012-07-17T08:44:42Z</time>
      </trkpt>
      <trkpt lat="44.42138" lon="6.13924">
        <ele>940.7873535</ele>
        <time>2012-07-17T08:44:52Z</time>
      </trkpt>
      <trkpt lat="44.42133" lon="6.13906">
        <ele>941.2680664</ele>
        <time>2012-07-17T08:44:58Z</time>
      </trkpt>
      <trkpt lat="44.42132" lon="6.13902">
        <ele>941.2680664</ele>
        <time>2012-07-17T08:45:00Z</time>
      </trkpt>
      <trkpt lat="44.42117" lon="6.13838">
        <ele>943.1906738</ele>
        <time>2012-07-17T08:45:22Z</time>
      </trkpt>
      <trkpt lat="44.42116" lon="6.13832">
        <ele>943.1906738</ele>
        <time>2012-07-17T08:45:24Z</time>
      </trkpt>
      <trkpt lat="44.42114" lon="6.13808">
        <ele>944.1520996</ele>
        <time>2012-07-17T08:45:31Z</time>
      </trkpt>
      <trkpt lat="44.42114" lon="6.13769">
        <ele>945.1132813</ele>
        <time>2012-07-17T08:45:45Z</time>
      </trkpt>
      <trkpt lat="44.42114" lon="6.13761">
        <ele>945.5939941</ele>
        <time>2012-07-17T08:45:48Z</time>
      </trkpt>
      <trkpt lat="44.42093" lon="6.13718">
        <ele>946.5554199</ele>
        <time>2012-07-17T08:46:05Z</time>
      </trkpt>
      <trkpt lat="44.42092" lon="6.13713">
        <ele>947.0358887</ele>
        <time>2012-07-17T08:46:07Z</time>
      </trkpt>
      <trkpt lat="44.42088" lon="6.1368">
        <ele>948.4777832</ele>
        <time>2012-07-17T08:46:20Z</time>
      </trkpt>
      <trkpt lat="44.42086" lon="6.13662">
        <ele>949.439209</ele>
        <time>2012-07-17T08:46:32Z</time>
      </trkpt>
      <trkpt lat="44.42058" lon="6.13632">
        <ele>950.8811035</ele>
        <time>2012-07-17T08:46:45Z</time>
      </trkpt>
      <trkpt lat="44.42058" lon="6.13632">
        <ele>950.4006348</ele>
        <time>2012-07-17T08:46:47Z</time>
      </trkpt>
      <trkpt lat="44.42045" lon="6.13599">
        <ele>952.8037109</ele>
        <time>2012-07-17T08:47:00Z</time>
      </trkpt>
      <trkpt lat="44.42047" lon="6.13579">
        <ele>953.2844238</ele>
        <time>2012-07-17T08:47:08Z</time>
      </trkpt>
      <trkpt lat="44.4205" lon="6.13571">
        <ele>953.7651367</ele>
        <time>2012-07-17T08:47:12Z</time>
      </trkpt>
      <trkpt lat="44.42066" lon="6.13541">
        <ele>956.168457</ele>
        <time>2012-07-17T08:47:26Z</time>
      </trkpt>
      <trkpt lat="44.42067" lon="6.13539">
        <ele>955.6877441</ele>
        <time>2012-07-17T08:47:27Z</time>
      </trkpt>
      <trkpt lat="44.42067" lon="6.13526">
        <ele>956.6491699</ele>
        <time>2012-07-17T08:47:33Z</time>
      </trkpt>
      <trkpt lat="44.42064" lon="6.13519">
        <ele>956.6491699</ele>
        <time>2012-07-17T08:47:36Z</time>
      </trkpt>
      <trkpt lat="44.42057" lon="6.13499">
        <ele>957.1298828</ele>
        <time>2012-07-17T08:47:45Z</time>
      </trkpt>
      <trkpt lat="44.42053" lon="6.13487">
        <ele>957.6105957</ele>
        <time>2012-07-17T08:47:50Z</time>
      </trkpt>
      <trkpt lat="44.42048" lon="6.13471">
        <ele>958.0913086</ele>
        <time>2012-07-17T08:47:56Z</time>
      </trkpt>
      <trkpt lat="44.42038" lon="6.13443">
        <ele>958.5717773</ele>
        <time>2012-07-17T08:48:06Z</time>
      </trkpt>
      <trkpt lat="44.42003" lon="6.13442">
        <ele>959.5332031</ele>
        <time>2012-07-17T08:48:22Z</time>
      </trkpt>
      <trkpt lat="44.42" lon="6.13441">
        <ele>960.0136719</ele>
        <time>2012-07-17T08:48:24Z</time>
      </trkpt>
      <trkpt lat="44.41996" lon="6.13438">
        <ele>960.0136719</ele>
        <time>2012-07-17T08:48:27Z</time>
      </trkpt>
      <trkpt lat="44.41985" lon="6.13407">
        <ele>962.4169922</ele>
        <time>2012-07-17T08:48:42Z</time>
      </trkpt>
      <trkpt lat="44.41979" lon="6.13381">
        <ele>963.378418</ele>
        <time>2012-07-17T08:48:53Z</time>
      </trkpt>
      <trkpt lat="44.41951" lon="6.13363">
        <ele>964.3395996</ele>
        <time>2012-07-17T08:49:08Z</time>
      </trkpt>
      <trkpt lat="44.41919" lon="6.1338">
        <ele>966.262207</ele>
        <time>2012-07-17T08:49:25Z</time>
      </trkpt>
      <trkpt lat="44.41895" lon="6.13364">
        <ele>966.262207</ele>
        <time>2012-07-17T08:49:40Z</time>
      </trkpt>
      <trkpt lat="44.41877" lon="6.13323">
        <ele>969.1462402</ele>
        <time>2012-07-17T08:50:00Z</time>
      </trkpt>
      <trkpt lat="44.41862" lon="6.13284">
        <ele>970.1074219</ele>
        <time>2012-07-17T08:50:17Z</time>
      </trkpt>
      <trkpt lat="44.41843" lon="6.13231">
        <ele>971.5493164</ele>
        <time>2012-07-17T08:50:39Z</time>
      </trkpt>
      <trkpt lat="44.4183" lon="6.1319">
        <ele>973.4724121</ele>
        <time>2012-07-17T08:50:56Z</time>
      </trkpt>
      <trkpt lat="44.41813" lon="6.13146">
        <ele>974.9143066</ele>
        <time>2012-07-17T08:51:15Z</time>
      </trkpt>
      <trkpt lat="44.41798" lon="6.13132">
        <ele>975.3947754</ele>
        <time>2012-07-17T08:51:22Z</time>
      </trkpt>
      <trkpt lat="44.41765" lon="6.13111">
        <ele>976.3562012</ele>
        <time>2012-07-17T08:51:39Z</time>
      </trkpt>
      <trkpt lat="44.41746" lon="6.13065">
        <ele>977.7980957</ele>
        <time>2012-07-17T08:51:57Z</time>
      </trkpt>
      <trkpt lat="44.41731" lon="6.13016">
        <ele>977.7980957</ele>
        <time>2012-07-17T08:52:10Z</time>
      </trkpt>
      <trkpt lat="44.4171" lon="6.12972">
        <ele>977.7980957</ele>
        <time>2012-07-17T08:52:21Z</time>
      </trkpt>
      <trkpt lat="44.41688" lon="6.12933">
        <ele>977.7980957</ele>
        <time>2012-07-17T08:52:31Z</time>
      </trkpt>
      <trkpt lat="44.41663" lon="6.12892">
        <ele>977.7980957</ele>
        <time>2012-07-17T08:52:42Z</time>
      </trkpt>
      <trkpt lat="44.41643" lon="6.12843">
        <ele>978.2788086</ele>
        <time>2012-07-17T08:52:57Z</time>
      </trkpt>
      <trkpt lat="44.4162" lon="6.12804">
        <ele>978.2788086</ele>
        <time>2012-07-17T08:53:10Z</time>
      </trkpt>
      <trkpt lat="44.41583" lon="6.12759">
        <ele>979.2399902</ele>
        <time>2012-07-17T08:53:24Z</time>
      </trkpt>
      <trkpt lat="44.41553" lon="6.12718">
        <ele>979.2399902</ele>
        <time>2012-07-17T08:53:38Z</time>
      </trkpt>
      <trkpt lat="44.41542" lon="6.12697">
        <ele>979.2399902</ele>
        <time>2012-07-17T08:53:44Z</time>
      </trkpt>
      <trkpt lat="44.41523" lon="6.1263">
        <ele>975.8754883</ele>
        <time>2012-07-17T08:53:57Z</time>
      </trkpt>
      <trkpt lat="44.41505" lon="6.12574">
        <ele>974.9143066</ele>
        <time>2012-07-17T08:54:08Z</time>
      </trkpt>
      <trkpt lat="44.41463" lon="6.12458">
        <ele>972.0302734</ele>
        <time>2012-07-17T08:54:23Z</time>
      </trkpt>
      <trkpt lat="44.41457" lon="6.12373">
        <ele>972.0302734</ele>
        <time>2012-07-17T08:54:34Z</time>
      </trkpt>
      <trkpt lat="44.41459" lon="6.12229">
        <ele>968.6655273</ele>
        <time>2012-07-17T08:54:52Z</time>
      </trkpt>
      <trkpt lat="44.41459" lon="6.12208">
        <ele>966.7429199</ele>
        <time>2012-07-17T08:54:54Z</time>
      </trkpt>
      <trkpt lat="44.41451" lon="6.12176">
        <ele>966.262207</ele>
        <time>2012-07-17T08:54:57Z</time>
      </trkpt>
      <trkpt lat="44.41435" lon="6.12136">
        <ele>968.1848145</ele>
        <time>2012-07-17T08:55:03Z</time>
      </trkpt>
      <trkpt lat="44.41431" lon="6.12126">
        <ele>966.262207</ele>
        <time>2012-07-17T08:55:05Z</time>
      </trkpt>
      <trkpt lat="44.41421" lon="6.12075">
        <ele>966.262207</ele>
        <time>2012-07-17T08:55:14Z</time>
      </trkpt>
      <trkpt lat="44.41431" lon="6.12066">
        <ele>964.8203125</ele>
        <time>2012-07-17T08:55:17Z</time>
      </trkpt>
      <trkpt lat="44.41431" lon="6.12065">
        <ele>964.8203125</ele>
        <time>2012-07-17T08:55:33Z</time>
      </trkpt>
      <trkpt lat="44.41431" lon="6.12065">
        <ele>967.7041016</ele>
        <time>2012-07-17T08:56:37Z</time>
      </trkpt>
      <trkpt lat="44.41431" lon="6.12065">
        <ele>965.3010254</ele>
        <time>2012-07-17T08:56:40Z</time>
      </trkpt>
      <trkpt lat="44.41431" lon="6.12065">
        <ele>966.7429199</ele>
        <time>2012-07-17T08:56:47Z</time>
      </trkpt>
      <trkpt lat="44.41431" lon="6.12065">
        <ele>963.378418</ele>
        <time>2012-07-17T08:56:55Z</time>
      </trkpt>
      <trkpt lat="44.41431" lon="6.12065">
        <ele>963.378418</ele>
        <time>2012-07-17T08:56:56Z</time>
      </trkpt>
      <trkpt lat="44.41431" lon="6.12065">
        <ele>962.4169922</ele>
        <time>2012-07-17T08:56:58Z</time>
      </trkpt>
      <trkpt lat="44.41431" lon="6.12065">
        <ele>959.0524902</ele>
        <time>2012-07-17T08:56:59Z</time>
      </trkpt>
      <trkpt lat="44.41431" lon="6.12065">
        <ele>959.5332031</ele>
        <time>2012-07-17T08:57:00Z</time>
      </trkpt>
      <trkpt lat="44.41431" lon="6.12065">
        <ele>958.0913086</ele>
        <time>2012-07-17T08:57:03Z</time>
      </trkpt>
      <trkpt lat="44.41431" lon="6.12065">
        <ele>959.0524902</ele>
        <time>2012-07-17T08:57:08Z</time>
      </trkpt>
      <trkpt lat="44.41431" lon="6.12065">
        <ele>960.0136719</ele>
        <time>2012-07-17T08:57:10Z</time>
      </trkpt>
      <trkpt lat="44.41431" lon="6.12065">
        <ele>964.8203125</ele>
        <time>2012-07-17T08:57:13Z</time>
      </trkpt>
      <trkpt lat="44.41431" lon="6.12065">
        <ele>966.262207</ele>
        <time>2012-07-17T08:57:15Z</time>
      </trkpt>
      <trkpt lat="44.41431" lon="6.12065">
        <ele>965.3010254</ele>
        <time>2012-07-17T08:57:24Z</time>
      </trkpt>
      <trkpt lat="44.41431" lon="6.12065">
        <ele>962.4169922</ele>
        <time>2012-07-17T08:57:26Z</time>
      </trkpt>
      <trkpt lat="44.41431" lon="6.12065">
        <ele>963.8588867</ele>
        <time>2012-07-17T08:57:28Z</time>
      </trkpt>
      <trkpt lat="44.41431" lon="6.12065">
        <ele>966.262207</ele>
        <time>2012-07-17T08:57:31Z</time>
      </trkpt>
      <trkpt lat="44.41431" lon="6.12065">
        <ele>967.7041016</ele>
        <time>2012-07-17T08:57:33Z</time>
      </trkpt>
      <trkpt lat="44.41431" lon="6.12065">
        <ele>965.7817383</ele>
        <time>2012-07-17T08:57:35Z</time>
      </trkpt>
      <trkpt lat="44.41431" lon="6.12065">
        <ele>966.7429199</ele>
        <time>2012-07-17T08:57:42Z</time>
      </trkpt>
      <trkpt lat="44.41431" lon="6.12065">
        <ele>966.262207</ele>
        <time>2012-07-17T08:57:52Z</time>
      </trkpt>
      <trkpt lat="44.41431" lon="6.12065">
        <ele>966.7429199</ele>
        <time>2012-07-17T08:58:08Z</time>
      </trkpt>
      <trkpt lat="44.41431" lon="6.12065">
        <ele>966.262207</ele>
        <time>2012-07-17T08:58:11Z</time>
      </trkpt>
      <trkpt lat="44.41431" lon="6.12065">
        <ele>967.2236328</ele>
        <time>2012-07-17T08:58:16Z</time>
      </trkpt>
      <trkpt lat="44.41431" lon="6.12065">
        <ele>968.6655273</ele>
        <time>2012-07-17T08:58:33Z</time>
      </trkpt>
      <trkpt lat="44.41431" lon="6.12065">
        <ele>969.1462402</ele>
        <time>2012-07-17T08:58:43Z</time>
      </trkpt>
      <trkpt lat="44.41431" lon="6.12065">
        <ele>968.1848145</ele>
        <time>2012-07-17T08:59:07Z</time>
      </trkpt>
      <trkpt lat="44.41433" lon="6.12099">
        <ele>968.1848145</ele>
        <time>2012-07-17T08:59:10Z</time>
      </trkpt>
      <trkpt lat="44.41434" lon="6.12103">
        <ele>968.1848145</ele>
        <time>2012-07-17T08:59:12Z</time>
      </trkpt>
      <trkpt lat="44.41434" lon="6.12103">
        <ele>967.7041016</ele>
        <time>2012-07-17T08:59:15Z</time>
      </trkpt>
      <trkpt lat="44.41443" lon="6.12126">
        <ele>971.0688477</ele>
        <time>2012-07-17T08:59:25Z</time>
      </trkpt>
      <trkpt lat="44.41444" lon="6.12128">
        <ele>971.0688477</ele>
        <time>2012-07-17T08:59:26Z</time>
      </trkpt>
      <trkpt lat="44.41453" lon="6.12148">
        <ele>971.5493164</ele>
        <time>2012-07-17T08:59:41Z</time>
      </trkpt>
      <trkpt lat="44.41458" lon="6.12159">
        <ele>972.5109863</ele>
        <time>2012-07-17T08:59:46Z</time>
      </trkpt>
      <trkpt lat="44.41469" lon="6.12178">
        <ele>975.3947754</ele>
        <time>2012-07-17T09:00:02Z</time>
      </trkpt>
      <trkpt lat="44.41469" lon="6.12178">
        <ele>975.8754883</ele>
        <time>2012-07-17T09:00:03Z</time>
      </trkpt>
      <trkpt lat="44.41469" lon="6.12178">
        <ele>975.8754883</ele>
        <time>2012-07-17T09:00:06Z</time>
      </trkpt>
      <trkpt lat="44.41469" lon="6.12178">
        <ele>977.7980957</ele>
        <time>2012-07-17T09:00:12Z</time>
      </trkpt>
      <trkpt lat="44.41469" lon="6.12178">
        <ele>976.8369141</ele>
        <time>2012-07-17T09:00:15Z</time>
      </trkpt>
      <trkpt lat="44.41469" lon="6.12178">
        <ele>977.7980957</ele>
        <time>2012-07-17T09:00:20Z</time>
      </trkpt>
      <trkpt lat="44.41496" lon="6.12204">
        <ele>979.2399902</ele>
        <time>2012-07-17T09:00:27Z</time>
      </trkpt>
      <trkpt lat="44.41506" lon="6.12215">
        <ele>981.6433105</ele>
        <time>2012-07-17T09:00:42Z</time>
      </trkpt>
      <trkpt lat="44.41522" lon="6.12236">
        <ele>983.565918</ele>
        <time>2012-07-17T09:00:58Z</time>
      </trkpt>
      <trkpt lat="44.41524" lon="6.12239">
        <ele>983.565918</ele>
        <time>2012-07-17T09:01:01Z</time>
      </trkpt>
      <trkpt lat="44.41535" lon="6.12255">
        <ele>985.4885254</ele>
        <time>2012-07-17T09:01:13Z</time>
      </trkpt>
      <trkpt lat="44.41541" lon="6.12265">
        <ele>986.4499512</ele>
        <time>2012-07-17T09:01:21Z</time>
      </trkpt>
      <trkpt lat="44.4155" lon="6.12276">
        <ele>989.3339844</ele>
        <time>2012-07-17T09:01:39Z</time>
      </trkpt>
      <trkpt lat="44.41569" lon="6.12301">
        <ele>991.7373047</ele>
        <time>2012-07-17T09:01:57Z</time>
      </trkpt>
      <trkpt lat="44.41569" lon="6.12301">
        <ele>992.2180176</ele>
        <time>2012-07-17T09:02:02Z</time>
      </trkpt>
      <trkpt lat="44.41577" lon="6.12315">
        <ele>993.1791992</ele>
        <time>2012-07-17T09:02:10Z</time>
      </trkpt>
      <trkpt lat="44.41583" lon="6.12328">
        <ele>994.140625</ele>
        <time>2012-07-17T09:02:17Z</time>
      </trkpt>
      <trkpt lat="44.41589" lon="6.12338">
        <ele>995.5825195</ele>
        <time>2012-07-17T09:02:28Z</time>
      </trkpt>
      <trkpt lat="44.41591" lon="6.12343">
        <ele>996.0632324</ele>
        <time>2012-07-17T09:02:31Z</time>
      </trkpt>
      <trkpt lat="44.41594" lon="6.12347">
        <ele>997.505127</ele>
        <time>2012-07-17T09:02:43Z</time>
      </trkpt>
      <trkpt lat="44.41613" lon="6.12375">
        <ele>1000.3891602</ele>
        <time>2012-07-17T09:03:01Z</time>
      </trkpt>
      <trkpt lat="44.41613" lon="6.12375">
        <ele>1000.3891602</ele>
        <time>2012-07-17T09:03:04Z</time>
      </trkpt>
      <trkpt lat="44.41619" lon="6.12373">
        <ele>1001.3503418</ele>
        <time>2012-07-17T09:03:14Z</time>
      </trkpt>
      <trkpt lat="44.41619" lon="6.12373">
        <ele>1002.3115234</ele>
        <time>2012-07-17T09:03:19Z</time>
      </trkpt>
      <trkpt lat="44.41636" lon="6.12368">
        <ele>1002.7922363</ele>
        <time>2012-07-17T09:03:25Z</time>
      </trkpt>
      <trkpt lat="44.41636" lon="6.12368">
        <ele>1004.2346191</ele>
        <time>2012-07-17T09:03:35Z</time>
      </trkpt>
      <trkpt lat="44.41636" lon="6.12368">
        <ele>1004.7150879</ele>
        <time>2012-07-17T09:03:37Z</time>
      </trkpt>
      <trkpt lat="44.41636" lon="6.12368">
        <ele>1006.1569824</ele>
        <time>2012-07-17T09:03:47Z</time>
      </trkpt>
      <trkpt lat="44.41636" lon="6.12368">
        <ele>1007.5991211</ele>
        <time>2012-07-17T09:03:53Z</time>
      </trkpt>
      <trkpt lat="44.41646" lon="6.12405">
        <ele>1008.5603027</ele>
        <time>2012-07-17T09:03:59Z</time>
      </trkpt>
      <trkpt lat="44.41646" lon="6.12405">
        <ele>1008.5603027</ele>
        <time>2012-07-17T09:04:02Z</time>
      </trkpt>
      <trkpt lat="44.41646" lon="6.12405">
        <ele>1009.5217285</ele>
        <time>2012-07-17T09:04:10Z</time>
      </trkpt>
      <trkpt lat="44.41646" lon="6.12405">
        <ele>1011.9250488</ele>
        <time>2012-07-17T09:04:26Z</time>
      </trkpt>
      <trkpt lat="44.41646" lon="6.12405">
        <ele>1011.9250488</ele>
        <time>2012-07-17T09:04:32Z</time>
      </trkpt>
      <trkpt lat="44.41646" lon="6.12405">
        <ele>1014.328125</ele>
        <time>2012-07-17T09:04:47Z</time>
      </trkpt>
      <trkpt lat="44.41646" lon="6.12405">
        <ele>1015.2895508</ele>
        <time>2012-07-17T09:04:52Z</time>
      </trkpt>
      <trkpt lat="44.41639" lon="6.12475">
        <ele>1015.7702637</ele>
        <time>2012-07-17T09:04:58Z</time>
      </trkpt>
      <trkpt lat="44.41644" lon="6.12473">
        <ele>1016.2507324</ele>
        <time>2012-07-17T09:05:02Z</time>
      </trkpt>
      <trkpt lat="44.41649" lon="6.12461">
        <ele>1018.1733398</ele>
        <time>2012-07-17T09:05:17Z</time>
      </trkpt>
      <trkpt lat="44.41649" lon="6.12461">
        <ele>1018.1733398</ele>
        <time>2012-07-17T09:05:19Z</time>
      </trkpt>
      <trkpt lat="44.41651" lon="6.12445">
        <ele>1019.1347656</ele>
        <time>2012-07-17T09:05:25Z</time>
      </trkpt>
      <trkpt lat="44.41652" lon="6.1244">
        <ele>1019.1347656</ele>
        <time>2012-07-17T09:05:27Z</time>
      </trkpt>
      <trkpt lat="44.41655" lon="6.12424">
        <ele>1020.5769043</ele>
        <time>2012-07-17T09:05:40Z</time>
      </trkpt>
      <trkpt lat="44.41655" lon="6.12424">
        <ele>1022.4995117</ele>
        <time>2012-07-17T09:05:54Z</time>
      </trkpt>
      <trkpt lat="44.41655" lon="6.12424">
        <ele>1022.9802246</ele>
        <time>2012-07-17T09:06:07Z</time>
      </trkpt>
      <trkpt lat="44.41655" lon="6.12424">
        <ele>1022.4995117</ele>
        <time>2012-07-17T09:06:32Z</time>
      </trkpt>
      <trkpt lat="44.41655" lon="6.12424">
        <ele>1023.9414063</ele>
        <time>2012-07-17T09:06:45Z</time>
      </trkpt>
      <trkpt lat="44.41655" lon="6.12424">
        <ele>1023.9414063</ele>
        <time>2012-07-17T09:06:58Z</time>
      </trkpt>
      <trkpt lat="44.41655" lon="6.12424">
        <ele>1025.3833008</ele>
        <time>2012-07-17T09:07:04Z</time>
      </trkpt>
      <trkpt lat="44.41655" lon="6.12424">
        <ele>1026.3447266</ele>
        <time>2012-07-17T09:07:16Z</time>
      </trkpt>
      <trkpt lat="44.41655" lon="6.12424">
        <ele>1027.3061523</ele>
        <time>2012-07-17T09:07:25Z</time>
      </trkpt>
      <trkpt lat="44.41655" lon="6.12424">
        <ele>1027.3061523</ele>
        <time>2012-07-17T09:07:28Z</time>
      </trkpt>
      <trkpt lat="44.41675" lon="6.12339">
        <ele>1027.7866211</ele>
        <time>2012-07-17T09:07:39Z</time>
      </trkpt>
      <trkpt lat="44.41675" lon="6.12339">
        <ele>1027.7866211</ele>
        <time>2012-07-17T09:07:51Z</time>
      </trkpt>
      <trkpt lat="44.41675" lon="6.1234">
        <ele>1027.3061523</ele>
        <time>2012-07-17T09:07:58Z</time>
      </trkpt>
      <trkpt lat="44.41675" lon="6.1234">
        <ele>1028.7480469</ele>
        <time>2012-07-17T09:08:00Z</time>
      </trkpt>
      <trkpt lat="44.41675" lon="6.1234">
        <ele>1028.267334</ele>
        <time>2012-07-17T09:08:03Z</time>
      </trkpt>
      <trkpt lat="44.41675" lon="6.1234">
        <ele>1029.2285156</ele>
        <time>2012-07-17T09:08:07Z</time>
      </trkpt>
      <trkpt lat="44.41675" lon="6.1234">
        <ele>1032.1125488</ele>
        <time>2012-07-17T09:08:14Z</time>
      </trkpt>
      <trkpt lat="44.41675" lon="6.1234">
        <ele>1032.5932617</ele>
        <time>2012-07-17T09:08:20Z</time>
      </trkpt>
      <trkpt lat="44.41637" lon="6.12308">
        <ele>1035.4770508</ele>
        <time>2012-07-17T09:08:40Z</time>
      </trkpt>
      <trkpt lat="44.41635" lon="6.12308">
        <ele>1035.4770508</ele>
        <time>2012-07-17T09:08:41Z</time>
      </trkpt>
      <trkpt lat="44.41632" lon="6.12308">
        <ele>1035.9577637</ele>
        <time>2012-07-17T09:08:45Z</time>
      </trkpt>
      <trkpt lat="44.41628" lon="6.12305">
        <ele>1035.9577637</ele>
        <time>2012-07-17T09:08:52Z</time>
      </trkpt>
      <trkpt lat="44.41658" lon="6.12298">
        <ele>1037.8806152</ele>
        <time>2012-07-17T09:09:10Z</time>
      </trkpt>
      <trkpt lat="44.4166" lon="6.12299">
        <ele>1035.9577637</ele>
        <time>2012-07-17T09:09:12Z</time>
      </trkpt>
      <trkpt lat="44.41663" lon="6.12299">
        <ele>1040.2839355</ele>
        <time>2012-07-17T09:09:14Z</time>
      </trkpt>
      <trkpt lat="44.41663" lon="6.12299">
        <ele>1040.2839355</ele>
        <time>2012-07-17T09:09:15Z</time>
      </trkpt>
      <trkpt lat="44.4167" lon="6.12301">
        <ele>1040.2839355</ele>
        <time>2012-07-17T09:09:22Z</time>
      </trkpt>
      <trkpt lat="44.41679" lon="6.12296">
        <ele>1040.2839355</ele>
        <time>2012-07-17T09:09:28Z</time>
      </trkpt>
      <trkpt lat="44.41687" lon="6.12286">
        <ele>1043.1677246</ele>
        <time>2012-07-17T09:09:38Z</time>
      </trkpt>
      <trkpt lat="44.41689" lon="6.12283">
        <ele>1042.206543</ele>
        <time>2012-07-17T09:09:43Z</time>
      </trkpt>
      <trkpt lat="44.41694" lon="6.1228">
        <ele>1042.206543</ele>
        <time>2012-07-17T09:09:46Z</time>
      </trkpt>
      <trkpt lat="44.41701" lon="6.12284">
        <ele>1044.1291504</ele>
        <time>2012-07-17T09:09:50Z</time>
      </trkpt>
      <trkpt lat="44.41704" lon="6.1229">
        <ele>1043.1677246</ele>
        <time>2012-07-17T09:09:55Z</time>
      </trkpt>
      <trkpt lat="44.41704" lon="6.12296">
        <ele>1043.6484375</ele>
        <time>2012-07-17T09:09:59Z</time>
      </trkpt>
      <trkpt lat="44.41705" lon="6.12303">
        <ele>1044.1291504</ele>
        <time>2012-07-17T09:10:04Z</time>
      </trkpt>
      <trkpt lat="44.41705" lon="6.12306">
        <ele>1045.5710449</ele>
        <time>2012-07-17T09:10:06Z</time>
      </trkpt>
      <trkpt lat="44.41704" lon="6.12309">
        <ele>1045.5710449</ele>
        <time>2012-07-17T09:10:08Z</time>
      </trkpt>
      <trkpt lat="44.417" lon="6.12313">
        <ele>1045.090332</ele>
        <time>2012-07-17T09:10:11Z</time>
      </trkpt>
      <trkpt lat="44.417" lon="6.12322">
        <ele>1046.0517578</ele>
        <time>2012-07-17T09:10:17Z</time>
      </trkpt>
      <trkpt lat="44.41702" lon="6.1233">
        <ele>1045.090332</ele>
        <time>2012-07-17T09:10:22Z</time>
      </trkpt>
      <trkpt lat="44.41702" lon="6.12332">
        <ele>1047.4936523</ele>
        <time>2012-07-17T09:10:24Z</time>
      </trkpt>
      <trkpt lat="44.41704" lon="6.12347">
        <ele>1048.454834</ele>
        <time>2012-07-17T09:10:33Z</time>
      </trkpt>
      <trkpt lat="44.41705" lon="6.1235">
        <ele>1047.0129395</ele>
        <time>2012-07-17T09:10:36Z</time>
      </trkpt>
      <trkpt lat="44.41706" lon="6.12351">
        <ele>1048.454834</ele>
        <time>2012-07-17T09:10:38Z</time>
      </trkpt>
      <trkpt lat="44.41709" lon="6.12357">
        <ele>1048.454834</ele>
        <time>2012-07-17T09:10:44Z</time>
      </trkpt>
      <trkpt lat="44.41714" lon="6.12369">
        <ele>1050.3776855</ele>
        <time>2012-07-17T09:10:54Z</time>
      </trkpt>
      <trkpt lat="44.41718" lon="6.12376">
        <ele>1051.8195801</ele>
        <time>2012-07-17T09:11:01Z</time>
      </trkpt>
      <trkpt lat="44.4173" lon="6.12382">
        <ele>1051.3388672</ele>
        <time>2012-07-17T09:11:11Z</time>
      </trkpt>
      <trkpt lat="44.41732" lon="6.12381">
        <ele>1052.300293</ele>
        <time>2012-07-17T09:11:13Z</time>
      </trkpt>
      <trkpt lat="44.4174" lon="6.12382">
        <ele>1052.7810059</ele>
        <time>2012-07-17T09:11:20Z</time>
      </trkpt>
      <trkpt lat="44.41742" lon="6.12383">
        <ele>1054.2231445</ele>
        <time>2012-07-17T09:11:22Z</time>
      </trkpt>
      <trkpt lat="44.41745" lon="6.12388">
        <ele>1056.1455078</ele>
        <time>2012-07-17T09:11:27Z</time>
      </trkpt>
      <trkpt lat="44.41749" lon="6.12395">
        <ele>1057.1069336</ele>
        <time>2012-07-17T09:11:32Z</time>
      </trkpt>
      <trkpt lat="44.41751" lon="6.12396">
        <ele>1057.1069336</ele>
        <time>2012-07-17T09:11:34Z</time>
      </trkpt>
      <trkpt lat="44.41762" lon="6.12416">
        <ele>1059.029541</ele>
        <time>2012-07-17T09:11:49Z</time>
      </trkpt>
      <trkpt lat="44.41771" lon="6.12415">
        <ele>1059.5102539</ele>
        <time>2012-07-17T09:11:55Z</time>
      </trkpt>
      <trkpt lat="44.41774" lon="6.12412">
        <ele>1060.4714355</ele>
        <time>2012-07-17T09:11:59Z</time>
      </trkpt>
      <trkpt lat="44.41776" lon="6.1241">
        <ele>1060.9521484</ele>
        <time>2012-07-17T09:12:01Z</time>
      </trkpt>
      <trkpt lat="44.41779" lon="6.124">
        <ele>1059.5102539</ele>
        <time>2012-07-17T09:12:07Z</time>
      </trkpt>
      <trkpt lat="44.41778" lon="6.12394">
        <ele>1060.9521484</ele>
        <time>2012-07-17T09:12:11Z</time>
      </trkpt>
      <trkpt lat="44.41763" lon="6.12356">
        <ele>1064.3166504</ele>
        <time>2012-07-17T09:12:34Z</time>
      </trkpt>
      <trkpt lat="44.41759" lon="6.1235">
        <ele>1064.7973633</ele>
        <time>2012-07-17T09:12:39Z</time>
      </trkpt>
      <trkpt lat="44.41755" lon="6.12346">
        <ele>1063.8359375</ele>
        <time>2012-07-17T09:12:43Z</time>
      </trkpt>
      <trkpt lat="44.41752" lon="6.12345">
        <ele>1063.3554688</ele>
        <time>2012-07-17T09:12:45Z</time>
      </trkpt>
      <trkpt lat="44.41749" lon="6.12341">
        <ele>1063.3554688</ele>
        <time>2012-07-17T09:12:48Z</time>
      </trkpt>
      <trkpt lat="44.41737" lon="6.12327">
        <ele>1064.7973633</ele>
        <time>2012-07-17T09:13:01Z</time>
      </trkpt>
      <trkpt lat="44.41737" lon="6.12305">
        <ele>1065.7587891</ele>
        <time>2012-07-17T09:13:15Z</time>
      </trkpt>
      <trkpt lat="44.41737" lon="6.12304">
        <ele>1067.2006836</ele>
        <time>2012-07-17T09:13:16Z</time>
      </trkpt>
      <trkpt lat="44.41735" lon="6.12298">
        <ele>1068.1621094</ele>
        <time>2012-07-17T09:13:20Z</time>
      </trkpt>
      <trkpt lat="44.41735" lon="6.12296">
        <ele>1067.6811523</ele>
        <time>2012-07-17T09:13:22Z</time>
      </trkpt>
      <trkpt lat="44.41736" lon="6.12286">
        <ele>1069.1235352</ele>
        <time>2012-07-17T09:13:29Z</time>
      </trkpt>
      <trkpt lat="44.41735" lon="6.12268">
        <ele>1069.604248</ele>
        <time>2012-07-17T09:13:39Z</time>
      </trkpt>
      <trkpt lat="44.41734" lon="6.12262">
        <ele>1070.0847168</ele>
        <time>2012-07-17T09:13:43Z</time>
      </trkpt>
      <trkpt lat="44.41733" lon="6.12258">
        <ele>1070.5654297</ele>
        <time>2012-07-17T09:13:45Z</time>
      </trkpt>
      <trkpt lat="44.41731" lon="6.12236">
        <ele>1072.0073242</ele>
        <time>2012-07-17T09:14:02Z</time>
      </trkpt>
      <trkpt lat="44.4173" lon="6.12232">
        <ele>1072.0073242</ele>
        <time>2012-07-17T09:14:05Z</time>
      </trkpt>
      <trkpt lat="44.41728" lon="6.12227">
        <ele>1072.4880371</ele>
        <time>2012-07-17T09:14:09Z</time>
      </trkpt>
      <trkpt lat="44.41722" lon="6.12214">
        <ele>1073.4494629</ele>
        <time>2012-07-17T09:14:19Z</time>
      </trkpt>
      <trkpt lat="44.41718" lon="6.12211">
        <ele>1074.4106445</ele>
        <time>2012-07-17T09:14:23Z</time>
      </trkpt>
      <trkpt lat="44.41699" lon="6.12215">
        <ele>1075.8525391</ele>
        <time>2012-07-17T09:14:39Z</time>
      </trkpt>
      <trkpt lat="44.41691" lon="6.12215">
        <ele>1076.8139648</ele>
        <time>2012-07-17T09:14:47Z</time>
      </trkpt>
      <trkpt lat="44.41676" lon="6.12215">
        <ele>1078.7365723</ele>
        <time>2012-07-17T09:14:59Z</time>
      </trkpt>
      <trkpt lat="44.41675" lon="6.12214">
        <ele>1078.7365723</ele>
        <time>2012-07-17T09:15:01Z</time>
      </trkpt>
      <trkpt lat="44.41673" lon="6.12208">
        <ele>1078.7365723</ele>
        <time>2012-07-17T09:15:05Z</time>
      </trkpt>
      <trkpt lat="44.41671" lon="6.12197">
        <ele>1080.1784668</ele>
        <time>2012-07-17T09:15:12Z</time>
      </trkpt>
      <trkpt lat="44.41673" lon="6.12183">
        <ele>1081.1398926</ele>
        <time>2012-07-17T09:15:21Z</time>
      </trkpt>
      <trkpt lat="44.41677" lon="6.12174">
        <ele>1081.1398926</ele>
        <time>2012-07-17T09:15:27Z</time>
      </trkpt>
      <trkpt lat="44.41693" lon="6.12173">
        <ele>1082.5817871</ele>
        <time>2012-07-17T09:15:42Z</time>
      </trkpt>
      <trkpt lat="44.41711" lon="6.12171">
        <ele>1083.0622559</ele>
        <time>2012-07-17T09:15:58Z</time>
      </trkpt>
      <trkpt lat="44.41718" lon="6.12168">
        <ele>1084.5046387</ele>
        <time>2012-07-17T09:16:05Z</time>
      </trkpt>
      <trkpt lat="44.41725" lon="6.12171">
        <ele>1084.9853516</ele>
        <time>2012-07-17T09:16:11Z</time>
      </trkpt>
      <trkpt lat="44.4174" lon="6.12169">
        <ele>1086.4272461</ele>
        <time>2012-07-17T09:16:24Z</time>
      </trkpt>
      <trkpt lat="44.41752" lon="6.12185">
        <ele>1088.3498535</ele>
        <time>2012-07-17T09:16:39Z</time>
      </trkpt>
      <trkpt lat="44.41753" lon="6.12212">
        <ele>1090.2724609</ele>
        <time>2012-07-17T09:16:57Z</time>
      </trkpt>
      <trkpt lat="44.41753" lon="6.12213">
        <ele>1090.2724609</ele>
        <time>2012-07-17T09:16:58Z</time>
      </trkpt>
      <trkpt lat="44.41756" lon="6.12217">
        <ele>1091.2336426</ele>
        <time>2012-07-17T09:17:01Z</time>
      </trkpt>
      <trkpt lat="44.41759" lon="6.12218">
        <ele>1093.15625</ele>
        <time>2012-07-17T09:17:04Z</time>
      </trkpt>
      <trkpt lat="44.41763" lon="6.12217">
        <ele>1092.1950684</ele>
        <time>2012-07-17T09:17:09Z</time>
      </trkpt>
      <trkpt lat="44.41765" lon="6.12215">
        <ele>1093.6369629</ele>
        <time>2012-07-17T09:17:11Z</time>
      </trkpt>
      <trkpt lat="44.41766" lon="6.12193">
        <ele>1093.6369629</ele>
        <time>2012-07-17T09:17:22Z</time>
      </trkpt>
      <trkpt lat="44.41767" lon="6.12182">
        <ele>1092.1950684</ele>
        <time>2012-07-17T09:17:28Z</time>
      </trkpt>
      <trkpt lat="44.41764" lon="6.1217">
        <ele>1094.1176758</ele>
        <time>2012-07-17T09:17:34Z</time>
      </trkpt>
      <trkpt lat="44.41757" lon="6.12157">
        <ele>1093.6369629</ele>
        <time>2012-07-17T09:17:42Z</time>
      </trkpt>
      <trkpt lat="44.4174" lon="6.12139">
        <ele>1095.5595703</ele>
        <time>2012-07-17T09:17:56Z</time>
      </trkpt>
      <trkpt lat="44.41734" lon="6.12102">
        <ele>1096.5209961</ele>
        <time>2012-07-17T09:18:16Z</time>
      </trkpt>
      <trkpt lat="44.4172" lon="6.12078">
        <ele>1098.9240723</ele>
        <time>2012-07-17T09:18:33Z</time>
      </trkpt>
      <trkpt lat="44.41712" lon="6.12061">
        <ele>1099.885498</ele>
        <time>2012-07-17T09:18:44Z</time>
      </trkpt>
      <trkpt lat="44.41712" lon="6.12059">
        <ele>1099.885498</ele>
        <time>2012-07-17T09:18:45Z</time>
      </trkpt>
      <trkpt lat="44.41713" lon="6.1205">
        <ele>1099.885498</ele>
        <time>2012-07-17T09:18:49Z</time>
      </trkpt>
      <trkpt lat="44.41711" lon="6.12047">
        <ele>1100.3664551</ele>
        <time>2012-07-17T09:18:51Z</time>
      </trkpt>
      <trkpt lat="44.41723" lon="6.12011">
        <ele>1102.7695313</ele>
        <time>2012-07-17T09:19:11Z</time>
      </trkpt>
      <trkpt lat="44.41735" lon="6.11995">
        <ele>1104.2116699</ele>
        <time>2012-07-17T09:19:24Z</time>
      </trkpt>
      <trkpt lat="44.41738" lon="6.11982">
        <ele>1103.2502441</ele>
        <time>2012-07-17T09:19:31Z</time>
      </trkpt>
      <trkpt lat="44.41726" lon="6.11965">
        <ele>1103.730957</ele>
        <time>2012-07-17T09:19:45Z</time>
      </trkpt>
      <trkpt lat="44.41709" lon="6.11958">
        <ele>1106.1340332</ele>
        <time>2012-07-17T09:20:00Z</time>
      </trkpt>
      <trkpt lat="44.41692" lon="6.11951">
        <ele>1107.095459</ele>
        <time>2012-07-17T09:20:14Z</time>
      </trkpt>
      <trkpt lat="44.41676" lon="6.11945">
        <ele>1109.0180664</ele>
        <time>2012-07-17T09:20:27Z</time>
      </trkpt>
      <trkpt lat="44.41658" lon="6.11925">
        <ele>1111.4213867</ele>
        <time>2012-07-17T09:20:45Z</time>
      </trkpt>
      <trkpt lat="44.41647" lon="6.11898">
        <ele>1112.8632813</ele>
        <time>2012-07-17T09:21:02Z</time>
      </trkpt>
      <trkpt lat="44.41636" lon="6.11874">
        <ele>1113.8244629</ele>
        <time>2012-07-17T09:21:20Z</time>
      </trkpt>
      <trkpt lat="44.41641" lon="6.11834">
        <ele>1115.7473145</ele>
        <time>2012-07-17T09:21:42Z</time>
      </trkpt>
      <trkpt lat="44.41644" lon="6.1183">
        <ele>1115.2666016</ele>
        <time>2012-07-17T09:21:45Z</time>
      </trkpt>
      <trkpt lat="44.4165" lon="6.1182">
        <ele>1115.7473145</ele>
        <time>2012-07-17T09:21:51Z</time>
      </trkpt>
      <trkpt lat="44.41658" lon="6.11808">
        <ele>1118.1506348</ele>
        <time>2012-07-17T09:21:59Z</time>
      </trkpt>
      <trkpt lat="44.41664" lon="6.11797">
        <ele>1116.2280273</ele>
        <time>2012-07-17T09:22:06Z</time>
      </trkpt>
      <trkpt lat="44.41688" lon="6.11777">
        <ele>1117.6699219</ele>
        <time>2012-07-17T09:22:26Z</time>
      </trkpt>
      <trkpt lat="44.41696" lon="6.11775">
        <ele>1118.1506348</ele>
        <time>2012-07-17T09:22:33Z</time>
      </trkpt>
      <trkpt lat="44.41704" lon="6.11773">
        <ele>1117.6699219</ele>
        <time>2012-07-17T09:22:38Z</time>
      </trkpt>
      <trkpt lat="44.41717" lon="6.1176">
        <ele>1118.1506348</ele>
        <time>2012-07-17T09:22:47Z</time>
      </trkpt>
      <trkpt lat="44.41741" lon="6.11733">
        <ele>1118.6313477</ele>
        <time>2012-07-17T09:23:05Z</time>
      </trkpt>
      <trkpt lat="44.41748" lon="6.1173">
        <ele>1118.6313477</ele>
        <time>2012-07-17T09:23:08Z</time>
      </trkpt>
      <trkpt lat="44.41745" lon="6.11707">
        <ele>1118.6313477</ele>
        <time>2012-07-17T09:23:16Z</time>
      </trkpt>
      <trkpt lat="44.41715" lon="6.11685">
        <ele>1119.5927734</ele>
        <time>2012-07-17T09:23:37Z</time>
      </trkpt>
      <trkpt lat="44.41691" lon="6.1168">
        <ele>1121.5151367</ele>
        <time>2012-07-17T09:23:57Z</time>
      </trkpt>
      <trkpt lat="44.41679" lon="6.11673">
        <ele>1122.9572754</ele>
        <time>2012-07-17T09:24:07Z</time>
      </trkpt>
      <trkpt lat="44.4167" lon="6.11669">
        <ele>1123.4379883</ele>
        <time>2012-07-17T09:24:14Z</time>
      </trkpt>
      <trkpt lat="44.4165" lon="6.11669">
        <ele>1124.8798828</ele>
        <time>2012-07-17T09:24:29Z</time>
      </trkpt>
      <trkpt lat="44.41627" lon="6.1167">
        <ele>1127.7636719</ele>
        <time>2012-07-17T09:24:51Z</time>
      </trkpt>
      <trkpt lat="44.41619" lon="6.1167">
        <ele>1128.2443848</ele>
        <time>2012-07-17T09:24:59Z</time>
      </trkpt>
      <trkpt lat="44.41592" lon="6.11665">
        <ele>1131.6088867</ele>
        <time>2012-07-17T09:25:22Z</time>
      </trkpt>
      <trkpt lat="44.41584" lon="6.11662">
        <ele>1132.5705566</ele>
        <time>2012-07-17T09:25:31Z</time>
      </trkpt>
      <trkpt lat="44.41567" lon="6.11654">
        <ele>1134.973877</ele>
        <time>2012-07-17T09:25:47Z</time>
      </trkpt>
      <trkpt lat="44.41564" lon="6.11651">
        <ele>1134.973877</ele>
        <time>2012-07-17T09:25:50Z</time>
      </trkpt>
      <trkpt lat="44.41562" lon="6.11649">
        <ele>1135.4543457</ele>
        <time>2012-07-17T09:25:53Z</time>
      </trkpt>
      <trkpt lat="44.41547" lon="6.11623">
        <ele>1137.857666</ele>
        <time>2012-07-17T09:26:15Z</time>
      </trkpt>
      <trkpt lat="44.41543" lon="6.11612">
        <ele>1138.3383789</ele>
        <time>2012-07-17T09:26:22Z</time>
      </trkpt>
      <trkpt lat="44.41534" lon="6.11588">
        <ele>1139.7802734</ele>
        <time>2012-07-17T09:26:39Z</time>
      </trkpt>
      <trkpt lat="44.4153" lon="6.11571">
        <ele>1141.222168</ele>
        <time>2012-07-17T09:26:50Z</time>
      </trkpt>
      <trkpt lat="44.4153" lon="6.11568">
        <ele>1141.222168</ele>
        <time>2012-07-17T09:26:52Z</time>
      </trkpt>
      <trkpt lat="44.41528" lon="6.11555">
        <ele>1141.7028809</ele>
        <time>2012-07-17T09:26:58Z</time>
      </trkpt>
      <trkpt lat="44.4153" lon="6.11545">
        <ele>1142.6643066</ele>
        <time>2012-07-17T09:27:05Z</time>
      </trkpt>
      <trkpt lat="44.41535" lon="6.11533">
        <ele>1143.6254883</ele>
        <time>2012-07-17T09:27:13Z</time>
      </trkpt>
      <trkpt lat="44.41538" lon="6.1153">
        <ele>1144.1062012</ele>
        <time>2012-07-17T09:27:16Z</time>
      </trkpt>
      <trkpt lat="44.4155" lon="6.11508">
        <ele>1145.5480957</ele>
        <time>2012-07-17T09:27:32Z</time>
      </trkpt>
      <trkpt lat="44.41553" lon="6.11506">
        <ele>1146.5095215</ele>
        <time>2012-07-17T09:27:35Z</time>
      </trkpt>
      <trkpt lat="44.41557" lon="6.115">
        <ele>1146.5095215</ele>
        <time>2012-07-17T09:27:40Z</time>
      </trkpt>
      <trkpt lat="44.41565" lon="6.11481">
        <ele>1148.9128418</ele>
        <time>2012-07-17T09:27:53Z</time>
      </trkpt>
      <trkpt lat="44.41573" lon="6.11466">
        <ele>1150.8354492</ele>
        <time>2012-07-17T09:28:04Z</time>
      </trkpt>
      <trkpt lat="44.41581" lon="6.11452">
        <ele>1151.796875</ele>
        <time>2012-07-17T09:28:15Z</time>
      </trkpt>
      <trkpt lat="44.41599" lon="6.11443">
        <ele>1154.2001953</ele>
        <time>2012-07-17T09:28:31Z</time>
      </trkpt>
      <trkpt lat="44.41614" lon="6.11441">
        <ele>1156.1225586</ele>
        <time>2012-07-17T09:28:47Z</time>
      </trkpt>
      <trkpt lat="44.41629" lon="6.11441">
        <ele>1158.5258789</ele>
        <time>2012-07-17T09:29:00Z</time>
      </trkpt>
      <trkpt lat="44.41635" lon="6.11442">
        <ele>1159.4873047</ele>
        <time>2012-07-17T09:29:07Z</time>
      </trkpt>
      <trkpt lat="44.41646" lon="6.11444">
        <ele>1160.9291992</ele>
        <time>2012-07-17T09:29:18Z</time>
      </trkpt>
      <trkpt lat="44.4165" lon="6.11447">
        <ele>1159.4873047</ele>
        <time>2012-07-17T09:29:23Z</time>
      </trkpt>
      <trkpt lat="44.41651" lon="6.11448">
        <ele>1161.4099121</ele>
        <time>2012-07-17T09:29:26Z</time>
      </trkpt>
      <trkpt lat="44.41656" lon="6.11449">
        <ele>1162.3710938</ele>
        <time>2012-07-17T09:29:31Z</time>
      </trkpt>
      <trkpt lat="44.4167" lon="6.11456">
        <ele>1162.3710938</ele>
        <time>2012-07-17T09:29:44Z</time>
      </trkpt>
      <trkpt lat="44.41671" lon="6.11457">
        <ele>1164.2939453</ele>
        <time>2012-07-17T09:29:46Z</time>
      </trkpt>
      <trkpt lat="44.41687" lon="6.11465">
        <ele>1165.736084</ele>
        <time>2012-07-17T09:30:01Z</time>
      </trkpt>
      <trkpt lat="44.41697" lon="6.11468">
        <ele>1167.1779785</ele>
        <time>2012-07-17T09:30:10Z</time>
      </trkpt>
      <trkpt lat="44.41707" lon="6.11474">
        <ele>1167.6584473</ele>
        <time>2012-07-17T09:30:19Z</time>
      </trkpt>
      <trkpt lat="44.41718" lon="6.11478">
        <ele>1168.1391602</ele>
        <time>2012-07-17T09:30:30Z</time>
      </trkpt>
      <trkpt lat="44.41731" lon="6.11483">
        <ele>1168.619873</ele>
        <time>2012-07-17T09:30:41Z</time>
      </trkpt>
      <trkpt lat="44.41743" lon="6.11484">
        <ele>1171.0231934</ele>
        <time>2012-07-17T09:30:55Z</time>
      </trkpt>
      <trkpt lat="44.41747" lon="6.11485">
        <ele>1171.5036621</ele>
        <time>2012-07-17T09:30:59Z</time>
      </trkpt>
      <trkpt lat="44.41757" lon="6.11487">
        <ele>1172.9458008</ele>
        <time>2012-07-17T09:31:08Z</time>
      </trkpt>
      <trkpt lat="44.41763" lon="6.11488">
        <ele>1173.4265137</ele>
        <time>2012-07-17T09:31:13Z</time>
      </trkpt>
      <trkpt lat="44.41778" lon="6.11495">
        <ele>1175.348877</ele>
        <time>2012-07-17T09:31:27Z</time>
      </trkpt>
      <trkpt lat="44.41779" lon="6.115">
        <ele>1175.8295898</ele>
        <time>2012-07-17T09:31:30Z</time>
      </trkpt>
      <trkpt lat="44.41772" lon="6.11514">
        <ele>1175.8295898</ele>
        <time>2012-07-17T09:31:42Z</time>
      </trkpt>
      <trkpt lat="44.41771" lon="6.11522">
        <ele>1175.8295898</ele>
        <time>2012-07-17T09:32:35Z</time>
      </trkpt>
      <trkpt lat="44.41771" lon="6.11521">
        <ele>1177.7521973</ele>
        <time>2012-07-17T09:32:45Z</time>
      </trkpt>
      <trkpt lat="44.41771" lon="6.11521">
        <ele>1176.3103027</ele>
        <time>2012-07-17T09:32:47Z</time>
      </trkpt>
      <trkpt lat="44.41775" lon="6.1151">
        <ele>1175.348877</ele>
        <time>2012-07-17T09:33:22Z</time>
      </trkpt>
      <trkpt lat="44.41779" lon="6.11508">
        <ele>1174.8684082</ele>
        <time>2012-07-17T09:33:26Z</time>
      </trkpt>
      <trkpt lat="44.4178" lon="6.11504">
        <ele>1175.348877</ele>
        <time>2012-07-17T09:33:40Z</time>
      </trkpt>
      <trkpt lat="44.4178" lon="6.11504">
        <ele>1175.348877</ele>
        <time>2012-07-17T09:34:14Z</time>
      </trkpt>
      <trkpt lat="44.41784" lon="6.11498">
        <ele>1176.7910156</ele>
        <time>2012-07-17T09:34:18Z</time>
      </trkpt>
      <trkpt lat="44.41788" lon="6.11492">
        <ele>1177.2717285</ele>
        <time>2012-07-17T09:34:22Z</time>
      </trkpt>
      <trkpt lat="44.418" lon="6.11488">
        <ele>1179.1940918</ele>
        <time>2012-07-17T09:34:31Z</time>
      </trkpt>
      <trkpt lat="44.41804" lon="6.11485">
        <ele>1177.2717285</ele>
        <time>2012-07-17T09:34:33Z</time>
      </trkpt>
      <trkpt lat="44.4181" lon="6.1148">
        <ele>1178.2329102</ele>
        <time>2012-07-17T09:34:40Z</time>
      </trkpt>
      <trkpt lat="44.41826" lon="6.11472">
        <ele>1180.6364746</ele>
        <time>2012-07-17T09:34:52Z</time>
      </trkpt>
      <trkpt lat="44.41829" lon="6.11471">
        <ele>1180.1557617</ele>
        <time>2012-07-17T09:34:56Z</time>
      </trkpt>
      <trkpt lat="44.41835" lon="6.1147">
        <ele>1182.559082</ele>
        <time>2012-07-17T09:35:01Z</time>
      </trkpt>
      <trkpt lat="44.41846" lon="6.11466">
        <ele>1183.5202637</ele>
        <time>2012-07-17T09:35:14Z</time>
      </trkpt>
      <trkpt lat="44.41863" lon="6.11463">
        <ele>1185.923584</ele>
        <time>2012-07-17T09:35:28Z</time>
      </trkpt>
      <trkpt lat="44.41865" lon="6.11463">
        <ele>1185.923584</ele>
        <time>2012-07-17T09:35:29Z</time>
      </trkpt>
      <trkpt lat="44.4187" lon="6.11461">
        <ele>1184.9624023</ele>
        <time>2012-07-17T09:35:34Z</time>
      </trkpt>
      <trkpt lat="44.41891" lon="6.11453">
        <ele>1186.8847656</ele>
        <time>2012-07-17T09:35:54Z</time>
      </trkpt>
      <trkpt lat="44.41897" lon="6.1145">
        <ele>1187.3654785</ele>
        <time>2012-07-17T09:36:00Z</time>
      </trkpt>
      <trkpt lat="44.41908" lon="6.11445">
        <ele>1188.3269043</ele>
        <time>2012-07-17T09:36:10Z</time>
      </trkpt>
      <trkpt lat="44.41914" lon="6.11441">
        <ele>1188.8076172</ele>
        <time>2012-07-17T09:36:16Z</time>
      </trkpt>
      <trkpt lat="44.41924" lon="6.11422">
        <ele>1190.2495117</ele>
        <time>2012-07-17T09:36:32Z</time>
      </trkpt>
      <trkpt lat="44.41925" lon="6.11417">
        <ele>1190.7299805</ele>
        <time>2012-07-17T09:36:35Z</time>
      </trkpt>
      <trkpt lat="44.41929" lon="6.11409">
        <ele>1191.6914063</ele>
        <time>2012-07-17T09:36:41Z</time>
      </trkpt>
      <trkpt lat="44.41932" lon="6.11402">
        <ele>1192.1721191</ele>
        <time>2012-07-17T09:36:46Z</time>
      </trkpt>
      <trkpt lat="44.41936" lon="6.11396">
        <ele>1192.652832</ele>
        <time>2012-07-17T09:36:53Z</time>
      </trkpt>
      <trkpt lat="44.41943" lon="6.11386">
        <ele>1194.0947266</ele>
        <time>2012-07-17T09:37:02Z</time>
      </trkpt>
      <trkpt lat="44.41962" lon="6.11376">
        <ele>1195.5366211</ele>
        <time>2012-07-17T09:37:18Z</time>
      </trkpt>
      <trkpt lat="44.41963" lon="6.11375">
        <ele>1196.0175781</ele>
        <time>2012-07-17T09:37:19Z</time>
      </trkpt>
      <trkpt lat="44.41972" lon="6.11368">
        <ele>1196.9787598</ele>
        <time>2012-07-17T09:37:29Z</time>
      </trkpt>
      <trkpt lat="44.41976" lon="6.1136">
        <ele>1197.4594727</ele>
        <time>2012-07-17T09:37:35Z</time>
      </trkpt>
      <trkpt lat="44.41974" lon="6.11346">
        <ele>1198.9013672</ele>
        <time>2012-07-17T09:37:48Z</time>
      </trkpt>
      <trkpt lat="44.41972" lon="6.11345">
        <ele>1198.9013672</ele>
        <time>2012-07-17T09:37:50Z</time>
      </trkpt>
      <trkpt lat="44.41966" lon="6.11337">
        <ele>1199.862793</ele>
        <time>2012-07-17T09:37:57Z</time>
      </trkpt>
      <trkpt lat="44.41962" lon="6.11331">
        <ele>1200.8239746</ele>
        <time>2012-07-17T09:38:02Z</time>
      </trkpt>
      <trkpt lat="44.4196" lon="6.11328">
        <ele>1201.7854004</ele>
        <time>2012-07-17T09:38:06Z</time>
      </trkpt>
      <trkpt lat="44.41956" lon="6.11327">
        <ele>1201.7854004</ele>
        <time>2012-07-17T09:38:09Z</time>
      </trkpt>
      <trkpt lat="44.41933" lon="6.11327">
        <ele>1204.1887207</ele>
        <time>2012-07-17T09:38:30Z</time>
      </trkpt>
      <trkpt lat="44.41919" lon="6.11328">
        <ele>1205.6306152</ele>
        <time>2012-07-17T09:38:43Z</time>
      </trkpt>
      <trkpt lat="44.41913" lon="6.11327">
        <ele>1206.5917969</ele>
        <time>2012-07-17T09:38:49Z</time>
      </trkpt>
      <trkpt lat="44.41896" lon="6.11316">
        <ele>1208.0339355</ele>
        <time>2012-07-17T09:39:05Z</time>
      </trkpt>
      <trkpt lat="44.41875" lon="6.1132">
        <ele>1209.9562988</ele>
        <time>2012-07-17T09:39:24Z</time>
      </trkpt>
      <trkpt lat="44.4187" lon="6.11319">
        <ele>1210.9177246</ele>
        <time>2012-07-17T09:39:29Z</time>
      </trkpt>
      <trkpt lat="44.41845" lon="6.11295">
        <ele>1212.8405762</ele>
        <time>2012-07-17T09:39:54Z</time>
      </trkpt>
      <trkpt lat="44.41836" lon="6.11275">
        <ele>1213.8017578</ele>
        <time>2012-07-17T09:40:07Z</time>
      </trkpt>
      <trkpt lat="44.41835" lon="6.11267">
        <ele>1214.2824707</ele>
        <time>2012-07-17T09:40:11Z</time>
      </trkpt>
      <trkpt lat="44.41834" lon="6.11264">
        <ele>1214.2824707</ele>
        <time>2012-07-17T09:40:13Z</time>
      </trkpt>
      <trkpt lat="44.41832" lon="6.11258">
        <ele>1214.2824707</ele>
        <time>2012-07-17T09:40:16Z</time>
      </trkpt>
      <trkpt lat="44.41829" lon="6.11249">
        <ele>1214.7631836</ele>
        <time>2012-07-17T09:40:21Z</time>
      </trkpt>
      <trkpt lat="44.41832" lon="6.11199">
        <ele>1214.2824707</ele>
        <time>2012-07-17T09:40:39Z</time>
      </trkpt>
      <trkpt lat="44.41834" lon="6.1114">
        <ele>1212.8405762</ele>
        <time>2012-07-17T09:40:52Z</time>
      </trkpt>
      <trkpt lat="44.41857" lon="6.11125">
        <ele>1211.8791504</ele>
        <time>2012-07-17T09:41:00Z</time>
      </trkpt>
      <trkpt lat="44.41903" lon="6.11144">
        <ele>1211.3984375</ele>
        <time>2012-07-17T09:41:16Z</time>
      </trkpt>
      <trkpt lat="44.41946" lon="6.1118">
        <ele>1209.4758301</ele>
        <time>2012-07-17T09:41:33Z</time>
      </trkpt>
      <trkpt lat="44.41988" lon="6.11216">
        <ele>1208.5144043</ele>
        <time>2012-07-17T09:41:49Z</time>
      </trkpt>
      <trkpt lat="44.42008" lon="6.11221">
        <ele>1208.0339355</ele>
        <time>2012-07-17T09:41:56Z</time>
      </trkpt>
      <trkpt lat="44.42027" lon="6.11161">
        <ele>1206.111084</ele>
        <time>2012-07-17T09:42:09Z</time>
      </trkpt>
      <trkpt lat="44.42069" lon="6.11138">
        <ele>1206.111084</ele>
        <time>2012-07-17T09:42:22Z</time>
      </trkpt>
      <trkpt lat="44.42092" lon="6.1114">
        <ele>1205.6306152</ele>
        <time>2012-07-17T09:42:29Z</time>
      </trkpt>
      <trkpt lat="44.42113" lon="6.11138">
        <ele>1204.1887207</ele>
        <time>2012-07-17T09:42:34Z</time>
      </trkpt>
      <trkpt lat="44.42141" lon="6.11145">
        <ele>1203.7080078</ele>
        <time>2012-07-17T09:42:41Z</time>
      </trkpt>
      <trkpt lat="44.42149" lon="6.11145">
        <ele>1203.2272949</ele>
        <time>2012-07-17T09:42:43Z</time>
      </trkpt>
      <trkpt lat="44.42172" lon="6.11131">
        <ele>1203.2272949</ele>
        <time>2012-07-17T09:42:49Z</time>
      </trkpt>
      <trkpt lat="44.42208" lon="6.11124">
        <ele>1202.746582</ele>
        <time>2012-07-17T09:43:00Z</time>
      </trkpt>
      <trkpt lat="44.42227" lon="6.11104">
        <ele>1202.2658691</ele>
        <time>2012-07-17T09:43:06Z</time>
      </trkpt>
      <trkpt lat="44.42259" lon="6.11096">
        <ele>1200.8239746</ele>
        <time>2012-07-17T09:43:14Z</time>
      </trkpt>
      <trkpt lat="44.42278" lon="6.111">
        <ele>1200.8239746</ele>
        <time>2012-07-17T09:43:20Z</time>
      </trkpt>
      <trkpt lat="44.42296" lon="6.11119">
        <ele>1199.3820801</ele>
        <time>2012-07-17T09:43:28Z</time>
      </trkpt>
      <trkpt lat="44.42311" lon="6.11111">
        <ele>1199.862793</ele>
        <time>2012-07-17T09:43:31Z</time>
      </trkpt>
      <trkpt lat="44.42343" lon="6.11105">
        <ele>1198.4206543</ele>
        <time>2012-07-17T09:43:41Z</time>
      </trkpt>
      <trkpt lat="44.42349" lon="6.11111">
        <ele>1198.4206543</ele>
        <time>2012-07-17T09:43:44Z</time>
      </trkpt>
      <trkpt lat="44.42406" lon="6.11121">
        <ele>1196.498291</ele>
        <time>2012-07-17T09:43:57Z</time>
      </trkpt>
      <trkpt lat="44.42423" lon="6.11124">
        <ele>1195.5366211</ele>
        <time>2012-07-17T09:44:01Z</time>
      </trkpt>
      <trkpt lat="44.42432" lon="6.11127">
        <ele>1197.4594727</ele>
        <time>2012-07-17T09:44:03Z</time>
      </trkpt>
      <trkpt lat="44.42457" lon="6.11143">
        <ele>1195.5366211</ele>
        <time>2012-07-17T09:44:10Z</time>
      </trkpt>
      <trkpt lat="44.42484" lon="6.11156">
        <ele>1194.5751953</ele>
        <time>2012-07-17T09:44:17Z</time>
      </trkpt>
      <trkpt lat="44.42513" lon="6.11166">
        <ele>1195.5366211</ele>
        <time>2012-07-17T09:44:26Z</time>
      </trkpt>
      <trkpt lat="44.42518" lon="6.11174">
        <ele>1195.5366211</ele>
        <time>2012-07-17T09:44:29Z</time>
      </trkpt>
      <trkpt lat="44.42531" lon="6.11142">
        <ele>1195.5366211</ele>
        <time>2012-07-17T09:44:34Z</time>
      </trkpt>
      <trkpt lat="44.42524" lon="6.1113">
        <ele>1196.0175781</ele>
        <time>2012-07-17T09:44:39Z</time>
      </trkpt>
      <trkpt lat="44.42504" lon="6.11122">
        <ele>1197.9401855</ele>
        <time>2012-07-17T09:44:52Z</time>
      </trkpt>
      <trkpt lat="44.42492" lon="6.11106">
        <ele>1199.3820801</ele>
        <time>2012-07-17T09:45:03Z</time>
      </trkpt>
      <trkpt lat="44.42467" lon="6.11093">
        <ele>1200.8239746</ele>
        <time>2012-07-17T09:45:21Z</time>
      </trkpt>
      <trkpt lat="44.42446" lon="6.11062">
        <ele>1201.7854004</ele>
        <time>2012-07-17T09:45:39Z</time>
      </trkpt>
      <trkpt lat="44.42446" lon="6.11027">
        <ele>1203.2272949</ele>
        <time>2012-07-17T09:45:55Z</time>
      </trkpt>
      <trkpt lat="44.42436" lon="6.11006">
        <ele>1205.1499023</ele>
        <time>2012-07-17T09:46:06Z</time>
      </trkpt>
      <trkpt lat="44.42408" lon="6.10988">
        <ele>1205.1499023</ele>
        <time>2012-07-17T09:46:24Z</time>
      </trkpt>
      <trkpt lat="44.42379" lon="6.10979">
        <ele>1206.5917969</ele>
        <time>2012-07-17T09:46:42Z</time>
      </trkpt>
      <trkpt lat="44.42362" lon="6.10957">
        <ele>1208.0339355</ele>
        <time>2012-07-17T09:46:56Z</time>
      </trkpt>
      <trkpt lat="44.42338" lon="6.10937">
        <ele>1208.5144043</ele>
        <time>2012-07-17T09:47:11Z</time>
      </trkpt>
      <trkpt lat="44.42326" lon="6.10911">
        <ele>1209.9562988</ele>
        <time>2012-07-17T09:47:24Z</time>
      </trkpt>
      <trkpt lat="44.42324" lon="6.10907">
        <ele>1209.9562988</ele>
        <time>2012-07-17T09:47:26Z</time>
      </trkpt>
      <trkpt lat="44.42315" lon="6.109">
        <ele>1210.4370117</ele>
        <time>2012-07-17T09:47:32Z</time>
      </trkpt>
      <trkpt lat="44.423" lon="6.10897">
        <ele>1210.9177246</ele>
        <time>2012-07-17T09:47:40Z</time>
      </trkpt>
      <trkpt lat="44.42273" lon="6.10885">
        <ele>1211.8791504</ele>
        <time>2012-07-17T09:47:55Z</time>
      </trkpt>
      <trkpt lat="44.42253" lon="6.1087">
        <ele>1212.8405762</ele>
        <time>2012-07-17T09:48:08Z</time>
      </trkpt>
      <trkpt lat="44.42252" lon="6.10869">
        <ele>1212.8405762</ele>
        <time>2012-07-17T09:48:09Z</time>
      </trkpt>
      <trkpt lat="44.42249" lon="6.10849">
        <ele>1214.2824707</ele>
        <time>2012-07-17T09:48:18Z</time>
      </trkpt>
      <trkpt lat="44.42244" lon="6.10843">
        <ele>1215.2438965</ele>
        <time>2012-07-17T09:48:23Z</time>
      </trkpt>
      <trkpt lat="44.4223" lon="6.10841">
        <ele>1215.7246094</ele>
        <time>2012-07-17T09:48:32Z</time>
      </trkpt>
      <trkpt lat="44.42227" lon="6.10843">
        <ele>1216.685791</ele>
        <time>2012-07-17T09:48:34Z</time>
      </trkpt>
      <trkpt lat="44.42221" lon="6.10846">
        <ele>1217.6469727</ele>
        <time>2012-07-17T09:48:38Z</time>
      </trkpt>
      <trkpt lat="44.42212" lon="6.10853">
        <ele>1216.2050781</ele>
        <time>2012-07-17T09:48:43Z</time>
      </trkpt>
      <trkpt lat="44.42206" lon="6.10855">
        <ele>1217.6469727</ele>
        <time>2012-07-17T09:48:46Z</time>
      </trkpt>
      <trkpt lat="44.42178" lon="6.1086">
        <ele>1218.1276855</ele>
        <time>2012-07-17T09:49:01Z</time>
      </trkpt>
      <trkpt lat="44.42176" lon="6.10859">
        <ele>1218.1276855</ele>
        <time>2012-07-17T09:49:02Z</time>
      </trkpt>
      <trkpt lat="44.42159" lon="6.10855">
        <ele>1218.1276855</ele>
        <time>2012-07-17T09:49:12Z</time>
      </trkpt>
      <trkpt lat="44.42138" lon="6.10821">
        <ele>1219.0891113</ele>
        <time>2012-07-17T09:49:31Z</time>
      </trkpt>
      <trkpt lat="44.42117" lon="6.10804">
        <ele>1220.050293</ele>
        <time>2012-07-17T09:49:47Z</time>
      </trkpt>
      <trkpt lat="44.42097" lon="6.1079">
        <ele>1221.9729004</ele>
        <time>2012-07-17T09:50:00Z</time>
      </trkpt>
      <trkpt lat="44.42091" lon="6.10784">
        <ele>1220.050293</ele>
        <time>2012-07-17T09:50:04Z</time>
      </trkpt>
      <trkpt lat="44.42089" lon="6.10781">
        <ele>1222.4536133</ele>
        <time>2012-07-17T09:50:06Z</time>
      </trkpt>
      <trkpt lat="44.42091" lon="6.10745">
        <ele>1221.9729004</ele>
        <time>2012-07-17T09:50:22Z</time>
      </trkpt>
      <trkpt lat="44.42091" lon="6.10742">
        <ele>1221.9729004</ele>
        <time>2012-07-17T09:50:23Z</time>
      </trkpt>
      <trkpt lat="44.42095" lon="6.1073">
        <ele>1224.3762207</ele>
        <time>2012-07-17T09:50:28Z</time>
      </trkpt>
      <trkpt lat="44.42097" lon="6.10726">
        <ele>1222.9343262</ele>
        <time>2012-07-17T09:50:30Z</time>
      </trkpt>
      <trkpt lat="44.42099" lon="6.10721">
        <ele>1224.3762207</ele>
        <time>2012-07-17T09:50:32Z</time>
      </trkpt>
      <trkpt lat="44.42122" lon="6.10706">
        <ele>1224.3762207</ele>
        <time>2012-07-17T09:50:46Z</time>
      </trkpt>
      <trkpt lat="44.42148" lon="6.10702">
        <ele>1224.3762207</ele>
        <time>2012-07-17T09:50:59Z</time>
      </trkpt>
      <trkpt lat="44.4218" lon="6.10704">
        <ele>1224.8569336</ele>
        <time>2012-07-17T09:51:14Z</time>
      </trkpt>
      <trkpt lat="44.4221" lon="6.10699">
        <ele>1224.8569336</ele>
        <time>2012-07-17T09:51:27Z</time>
      </trkpt>
      <trkpt lat="44.42237" lon="6.10658">
        <ele>1224.3762207</ele>
        <time>2012-07-17T09:51:41Z</time>
      </trkpt>
      <trkpt lat="44.4225" lon="6.10609">
        <ele>1224.8569336</ele>
        <time>2012-07-17T09:51:54Z</time>
      </trkpt>
      <trkpt lat="44.42253" lon="6.10606">
        <ele>1224.3762207</ele>
        <time>2012-07-17T09:51:55Z</time>
      </trkpt>
      <trkpt lat="44.42257" lon="6.10598">
        <ele>1225.3374023</ele>
        <time>2012-07-17T09:51:58Z</time>
      </trkpt>
      <trkpt lat="44.42276" lon="6.10555">
        <ele>1224.3762207</ele>
        <time>2012-07-17T09:52:11Z</time>
      </trkpt>
      <trkpt lat="44.42297" lon="6.10483">
        <ele>1224.3762207</ele>
        <time>2012-07-17T09:52:28Z</time>
      </trkpt>
      <trkpt lat="44.42299" lon="6.10475">
        <ele>1224.3762207</ele>
        <time>2012-07-17T09:52:30Z</time>
      </trkpt>
      <trkpt lat="44.4229" lon="6.10456">
        <ele>1224.3762207</ele>
        <time>2012-07-17T09:52:36Z</time>
      </trkpt>
      <trkpt lat="44.42254" lon="6.10452">
        <ele>1223.4150391</ele>
        <time>2012-07-17T09:52:49Z</time>
      </trkpt>
      <trkpt lat="44.42248" lon="6.10407">
        <ele>1223.8955078</ele>
        <time>2012-07-17T09:53:00Z</time>
      </trkpt>
      <trkpt lat="44.42259" lon="6.1035">
        <ele>1224.8569336</ele>
        <time>2012-07-17T09:53:15Z</time>
      </trkpt>
      <trkpt lat="44.42274" lon="6.10303">
        <ele>1225.3374023</ele>
        <time>2012-07-17T09:53:29Z</time>
      </trkpt>
      <trkpt lat="44.42283" lon="6.10281">
        <ele>1225.3374023</ele>
        <time>2012-07-17T09:53:39Z</time>
      </trkpt>
      <trkpt lat="44.42283" lon="6.10281">
        <ele>1225.3374023</ele>
        <time>2012-07-17T09:53:52Z</time>
      </trkpt>
      <trkpt lat="44.42284" lon="6.1029">
        <ele>1225.3374023</ele>
        <time>2012-07-17T09:54:08Z</time>
      </trkpt>
      <trkpt lat="44.42282" lon="6.10288">
        <ele>1225.8181152</ele>
        <time>2012-07-17T09:54:25Z</time>
      </trkpt>
      <trkpt lat="44.42282" lon="6.10291">
        <ele>1228.2216797</ele>
        <time>2012-07-17T09:55:19Z</time>
      </trkpt>
      <trkpt lat="44.42282" lon="6.10291">
        <ele>1224.8569336</ele>
        <time>2012-07-17T09:55:21Z</time>
      </trkpt>
      <trkpt lat="44.42282" lon="6.10291">
        <ele>1224.8569336</ele>
        <time>2012-07-17T09:55:22Z</time>
      </trkpt>
      <trkpt lat="44.42282" lon="6.10291">
        <ele>1227.2602539</ele>
        <time>2012-07-17T09:55:49Z</time>
      </trkpt>
      <trkpt lat="44.42282" lon="6.10293">
        <ele>1227.7407227</ele>
        <time>2012-07-17T09:56:38Z</time>
      </trkpt>
      <trkpt lat="44.4228" lon="6.10291">
        <ele>1228.2216797</ele>
        <time>2012-07-17T09:56:52Z</time>
      </trkpt>
      <trkpt lat="44.42275" lon="6.10291">
        <ele>1228.7023926</ele>
        <time>2012-07-17T09:57:09Z</time>
      </trkpt>
      <trkpt lat="44.42276" lon="6.10285">
        <ele>1226.2988281</ele>
        <time>2012-07-17T09:57:27Z</time>
      </trkpt>
      <trkpt lat="44.42273" lon="6.10275">
        <ele>1227.7407227</ele>
        <time>2012-07-17T09:57:38Z</time>
      </trkpt>
      <trkpt lat="44.42268" lon="6.10273">
        <ele>1227.7407227</ele>
        <time>2012-07-17T09:57:43Z</time>
      </trkpt>
      <trkpt lat="44.42257" lon="6.1028">
        <ele>1228.2216797</ele>
        <time>2012-07-17T09:57:48Z</time>
      </trkpt>
      <trkpt lat="44.42231" lon="6.103">
        <ele>1227.2602539</ele>
        <time>2012-07-17T09:58:00Z</time>
      </trkpt>
      <trkpt lat="44.42228" lon="6.10302">
        <ele>1227.2602539</ele>
        <time>2012-07-17T09:58:01Z</time>
      </trkpt>
      <trkpt lat="44.42209" lon="6.10313">
        <ele>1228.7023926</ele>
        <time>2012-07-17T09:58:11Z</time>
      </trkpt>
      <trkpt lat="44.42171" lon="6.1033">
        <ele>1230.1442871</ele>
        <time>2012-07-17T09:58:29Z</time>
      </trkpt>
      <trkpt lat="44.42142" lon="6.10338">
        <ele>1230.625</ele>
        <time>2012-07-17T09:58:42Z</time>
      </trkpt>
      <trkpt lat="44.42106" lon="6.10343">
        <ele>1231.1057129</ele>
        <time>2012-07-17T09:58:58Z</time>
      </trkpt>
      <trkpt lat="44.42075" lon="6.10335">
        <ele>1231.1057129</ele>
        <time>2012-07-17T09:59:12Z</time>
      </trkpt>
      <trkpt lat="44.42055" lon="6.10322">
        <ele>1232.0668945</ele>
        <time>2012-07-17T09:59:23Z</time>
      </trkpt>
      <trkpt lat="44.42022" lon="6.10308">
        <ele>1232.5476074</ele>
        <time>2012-07-17T09:59:37Z</time>
      </trkpt>
      <trkpt lat="44.42002" lon="6.10304">
        <ele>1234.4702148</ele>
        <time>2012-07-17T09:59:46Z</time>
      </trkpt>
      <trkpt lat="44.41973" lon="6.10291">
        <ele>1234.4702148</ele>
        <time>2012-07-17T10:00:00Z</time>
      </trkpt>
      <trkpt lat="44.41961" lon="6.10266">
        <ele>1236.3928223</ele>
        <time>2012-07-17T10:00:11Z</time>
      </trkpt>
      <trkpt lat="44.41959" lon="6.10262">
        <ele>1234.9509277</ele>
        <time>2012-07-17T10:00:13Z</time>
      </trkpt>
      <trkpt lat="44.41956" lon="6.10257">
        <ele>1235.4313965</ele>
        <time>2012-07-17T10:00:16Z</time>
      </trkpt>
      <trkpt lat="44.41951" lon="6.10249">
        <ele>1236.873291</ele>
        <time>2012-07-17T10:00:20Z</time>
      </trkpt>
      <trkpt lat="44.41947" lon="6.10242">
        <ele>1235.9121094</ele>
        <time>2012-07-17T10:00:23Z</time>
      </trkpt>
      <trkpt lat="44.41932" lon="6.10208">
        <ele>1235.9121094</ele>
        <time>2012-07-17T10:00:36Z</time>
      </trkpt>
      <trkpt lat="44.4192" lon="6.10185">
        <ele>1238.3154297</ele>
        <time>2012-07-17T10:00:46Z</time>
      </trkpt>
      <trkpt lat="44.41919" lon="6.10179">
        <ele>1237.3540039</ele>
        <time>2012-07-17T10:00:48Z</time>
      </trkpt>
      <trkpt lat="44.41905" lon="6.10147">
        <ele>1236.873291</ele>
        <time>2012-07-17T10:01:01Z</time>
      </trkpt>
      <trkpt lat="44.41904" lon="6.10145">
        <ele>1236.873291</ele>
        <time>2012-07-17T10:01:02Z</time>
      </trkpt>
      <trkpt lat="44.41897" lon="6.10135">
        <ele>1239.2766113</ele>
        <time>2012-07-17T10:01:07Z</time>
      </trkpt>
      <trkpt lat="44.41888" lon="6.10099">
        <ele>1238.7961426</ele>
        <time>2012-07-17T10:01:21Z</time>
      </trkpt>
      <trkpt lat="44.4191" lon="6.10086">
        <ele>1239.2766113</ele>
        <time>2012-07-17T10:01:33Z</time>
      </trkpt>
      <trkpt lat="44.41938" lon="6.10102">
        <ele>1237.3540039</ele>
        <time>2012-07-17T10:01:44Z</time>
      </trkpt>
      <trkpt lat="44.41996" lon="6.10109">
        <ele>1235.4313965</ele>
        <time>2012-07-17T10:02:01Z</time>
      </trkpt>
      <trkpt lat="44.42006" lon="6.10105">
        <ele>1235.4313965</ele>
        <time>2012-07-17T10:02:04Z</time>
      </trkpt>
      <trkpt lat="44.42029" lon="6.10101">
        <ele>1232.0668945</ele>
        <time>2012-07-17T10:02:11Z</time>
      </trkpt>
      <trkpt lat="44.42063" lon="6.10084">
        <ele>1233.5087891</ele>
        <time>2012-07-17T10:02:23Z</time>
      </trkpt>
      <trkpt lat="44.42073" lon="6.10076">
        <ele>1232.5476074</ele>
        <time>2012-07-17T10:02:27Z</time>
      </trkpt>
      <trkpt lat="44.42096" lon="6.10037">
        <ele>1232.5476074</ele>
        <time>2012-07-17T10:02:37Z</time>
      </trkpt>
      <trkpt lat="44.42097" lon="6.10031">
        <ele>1231.5861816</ele>
        <time>2012-07-17T10:02:38Z</time>
      </trkpt>
      <trkpt lat="44.42098" lon="6.09977">
        <ele>1232.5476074</ele>
        <time>2012-07-17T10:02:48Z</time>
      </trkpt>
      <trkpt lat="44.42096" lon="6.09966">
        <ele>1229.6635742</ele>
        <time>2012-07-17T10:02:50Z</time>
      </trkpt>
      <trkpt lat="44.42096" lon="6.09962">
        <ele>1229.6635742</ele>
        <time>2012-07-17T10:02:51Z</time>
      </trkpt>
      <trkpt lat="44.42096" lon="6.09947">
        <ele>1231.1057129</ele>
        <time>2012-07-17T10:02:55Z</time>
      </trkpt>
      <trkpt lat="44.42102" lon="6.09935">
        <ele>1227.7407227</ele>
        <time>2012-07-17T10:02:59Z</time>
      </trkpt>
      <trkpt lat="44.42104" lon="6.09933">
        <ele>1227.7407227</ele>
        <time>2012-07-17T10:03:00Z</time>
      </trkpt>
      <trkpt lat="44.42127" lon="6.09918">
        <ele>1227.2602539</ele>
        <time>2012-07-17T10:03:11Z</time>
      </trkpt>
      <trkpt lat="44.42147" lon="6.09914">
        <ele>1226.779541</ele>
        <time>2012-07-17T10:03:18Z</time>
      </trkpt>
      <trkpt lat="44.4216" lon="6.09911">
        <ele>1227.7407227</ele>
        <time>2012-07-17T10:03:22Z</time>
      </trkpt>
      <trkpt lat="44.4217" lon="6.09896">
        <ele>1225.8181152</ele>
        <time>2012-07-17T10:03:28Z</time>
      </trkpt>
      <trkpt lat="44.42184" lon="6.09873">
        <ele>1224.3762207</ele>
        <time>2012-07-17T10:03:37Z</time>
      </trkpt>
      <trkpt lat="44.42201" lon="6.09866">
        <ele>1224.3762207</ele>
        <time>2012-07-17T10:03:43Z</time>
      </trkpt>
      <trkpt lat="44.42215" lon="6.09868">
        <ele>1223.4150391</ele>
        <time>2012-07-17T10:03:47Z</time>
      </trkpt>
      <trkpt lat="44.42222" lon="6.0987">
        <ele>1223.4150391</ele>
        <time>2012-07-17T10:03:49Z</time>
      </trkpt>
      <trkpt lat="44.42236" lon="6.09874">
        <ele>1225.8181152</ele>
        <time>2012-07-17T10:03:53Z</time>
      </trkpt>
      <trkpt lat="44.42245" lon="6.09874">
        <ele>1223.8955078</ele>
        <time>2012-07-17T10:03:56Z</time>
      </trkpt>
      <trkpt lat="44.42251" lon="6.09873">
        <ele>1221.9729004</ele>
        <time>2012-07-17T10:03:58Z</time>
      </trkpt>
      <trkpt lat="44.42255" lon="6.0987">
        <ele>1221.9729004</ele>
        <time>2012-07-17T10:03:59Z</time>
      </trkpt>
      <trkpt lat="44.42259" lon="6.09841">
        <ele>1220.5310059</ele>
        <time>2012-07-17T10:04:04Z</time>
      </trkpt>
      <trkpt lat="44.42257" lon="6.09829">
        <ele>1222.4536133</ele>
        <time>2012-07-17T10:04:07Z</time>
      </trkpt>
      <trkpt lat="44.42274" lon="6.09779">
        <ele>1221.0117188</ele>
        <time>2012-07-17T10:04:21Z</time>
      </trkpt>
      <trkpt lat="44.42306" lon="6.09763">
        <ele>1218.6083984</ele>
        <time>2012-07-17T10:04:32Z</time>
      </trkpt>
      <trkpt lat="44.42302" lon="6.09725">
        <ele>1218.1276855</ele>
        <time>2012-07-17T10:04:40Z</time>
      </trkpt>
      <trkpt lat="44.42276" lon="6.09698">
        <ele>1216.2050781</ele>
        <time>2012-07-17T10:04:53Z</time>
      </trkpt>
      <trkpt lat="44.42283" lon="6.09692">
        <ele>1215.7246094</ele>
        <time>2012-07-17T10:04:58Z</time>
      </trkpt>
      <trkpt lat="44.42308" lon="6.097">
        <ele>1213.8017578</ele>
        <time>2012-07-17T10:05:06Z</time>
      </trkpt>
      <trkpt lat="44.42323" lon="6.09668">
        <ele>1214.2824707</ele>
        <time>2012-07-17T10:05:15Z</time>
      </trkpt>
      <trkpt lat="44.42327" lon="6.09651">
        <ele>1214.7631836</ele>
        <time>2012-07-17T10:05:21Z</time>
      </trkpt>
      <trkpt lat="44.42328" lon="6.09645">
        <ele>1214.7631836</ele>
        <time>2012-07-17T10:05:23Z</time>
      </trkpt>
      <trkpt lat="44.42328" lon="6.09644">
        <ele>1215.2438965</ele>
        <time>2012-07-17T10:05:38Z</time>
      </trkpt>
      <trkpt lat="44.42331" lon="6.09629">
        <ele>1215.7246094</ele>
        <time>2012-07-17T10:05:58Z</time>
      </trkpt>
      <trkpt lat="44.42332" lon="6.09624">
        <ele>1216.2050781</ele>
        <time>2012-07-17T10:06:00Z</time>
      </trkpt>
      <trkpt lat="44.42333" lon="6.09617">
        <ele>1216.685791</ele>
        <time>2012-07-17T10:06:03Z</time>
      </trkpt>
      <trkpt lat="44.42336" lon="6.09589">
        <ele>1216.685791</ele>
        <time>2012-07-17T10:06:14Z</time>
      </trkpt>
      <trkpt lat="44.4233" lon="6.09562">
        <ele>1217.6469727</ele>
        <time>2012-07-17T10:06:29Z</time>
      </trkpt>
      <trkpt lat="44.42325" lon="6.09557">
        <ele>1218.1276855</ele>
        <time>2012-07-17T10:07:32Z</time>
      </trkpt>
      <trkpt lat="44.42324" lon="6.09555">
        <ele>1218.1276855</ele>
        <time>2012-07-17T10:07:34Z</time>
      </trkpt>
      <trkpt lat="44.42316" lon="6.09546">
        <ele>1218.6083984</ele>
        <time>2012-07-17T10:07:40Z</time>
      </trkpt>
      <trkpt lat="44.42314" lon="6.09543">
        <ele>1219.5698242</ele>
        <time>2012-07-17T10:07:52Z</time>
      </trkpt>
      <trkpt lat="44.42314" lon="6.09543">
        <ele>1219.5698242</ele>
        <time>2012-07-17T10:08:15Z</time>
      </trkpt>
      <trkpt lat="44.42314" lon="6.09543">
        <ele>1219.5698242</ele>
        <time>2012-07-17T10:08:18Z</time>
      </trkpt>
      <trkpt lat="44.42309" lon="6.09533">
        <ele>1219.5698242</ele>
        <time>2012-07-17T10:08:26Z</time>
      </trkpt>
      <trkpt lat="44.42306" lon="6.09528">
        <ele>1220.050293</ele>
        <time>2012-07-17T10:08:30Z</time>
      </trkpt>
      <trkpt lat="44.42302" lon="6.0952">
        <ele>1220.5310059</ele>
        <time>2012-07-17T10:08:34Z</time>
      </trkpt>
      <trkpt lat="44.423" lon="6.09516">
        <ele>1220.5310059</ele>
        <time>2012-07-17T10:08:36Z</time>
      </trkpt>
      <trkpt lat="44.42298" lon="6.09512">
        <ele>1221.0117188</ele>
        <time>2012-07-17T10:08:38Z</time>
      </trkpt>
      <trkpt lat="44.42295" lon="6.09501">
        <ele>1221.9729004</ele>
        <time>2012-07-17T10:08:45Z</time>
      </trkpt>
      <trkpt lat="44.42276" lon="6.0949">
        <ele>1223.4150391</ele>
        <time>2012-07-17T10:08:59Z</time>
      </trkpt>
      <trkpt lat="44.42271" lon="6.0949">
        <ele>1223.8955078</ele>
        <time>2012-07-17T10:09:04Z</time>
      </trkpt>
      <trkpt lat="44.4226" lon="6.09486">
        <ele>1224.8569336</ele>
        <time>2012-07-17T10:09:11Z</time>
      </trkpt>
      <trkpt lat="44.42244" lon="6.09476">
        <ele>1225.3374023</ele>
        <time>2012-07-17T10:09:20Z</time>
      </trkpt>
      <trkpt lat="44.42234" lon="6.09462">
        <ele>1225.8181152</ele>
        <time>2012-07-17T10:09:28Z</time>
      </trkpt>
      <trkpt lat="44.42236" lon="6.09437">
        <ele>1227.7407227</ele>
        <time>2012-07-17T10:09:40Z</time>
      </trkpt>
      <trkpt lat="44.4224" lon="6.09422">
        <ele>1228.2216797</ele>
        <time>2012-07-17T10:09:48Z</time>
      </trkpt>
      <trkpt lat="44.4224" lon="6.09401">
        <ele>1229.1828613</ele>
        <time>2012-07-17T10:09:58Z</time>
      </trkpt>
      <trkpt lat="44.4224" lon="6.09397">
        <ele>1229.6635742</ele>
        <time>2012-07-17T10:10:00Z</time>
      </trkpt>
      <trkpt lat="44.42238" lon="6.0937">
        <ele>1231.1057129</ele>
        <time>2012-07-17T10:10:12Z</time>
      </trkpt>
      <trkpt lat="44.42231" lon="6.0933">
        <ele>1233.0280762</ele>
        <time>2012-07-17T10:10:32Z</time>
      </trkpt>
      <trkpt lat="44.4223" lon="6.09329">
        <ele>1233.0280762</ele>
        <time>2012-07-17T10:10:34Z</time>
      </trkpt>
      <trkpt lat="44.42227" lon="6.09323">
        <ele>1233.5087891</ele>
        <time>2012-07-17T10:10:38Z</time>
      </trkpt>
      <trkpt lat="44.42226" lon="6.0932">
        <ele>1234.9509277</ele>
        <time>2012-07-17T10:10:47Z</time>
      </trkpt>
      <trkpt lat="44.42221" lon="6.09297">
        <ele>1235.4313965</ele>
        <time>2012-07-17T10:11:00Z</time>
      </trkpt>
      <trkpt lat="44.42212" lon="6.0928">
        <ele>1236.3928223</ele>
        <time>2012-07-17T10:11:08Z</time>
      </trkpt>
      <trkpt lat="44.4221" lon="6.09281">
        <ele>1235.9121094</ele>
        <time>2012-07-17T10:11:11Z</time>
      </trkpt>
      <trkpt lat="44.42201" lon="6.09285">
        <ele>1236.873291</ele>
        <time>2012-07-17T10:11:17Z</time>
      </trkpt>
      <trkpt lat="44.42196" lon="6.09287">
        <ele>1237.3540039</ele>
        <time>2012-07-17T10:11:21Z</time>
      </trkpt>
      <trkpt lat="44.42192" lon="6.09288">
        <ele>1237.8347168</ele>
        <time>2012-07-17T10:11:24Z</time>
      </trkpt>
      <trkpt lat="44.4216" lon="6.09312">
        <ele>1239.7573242</ele>
        <time>2012-07-17T10:11:49Z</time>
      </trkpt>
      <trkpt lat="44.42139" lon="6.09323">
        <ele>1241.6799316</ele>
        <time>2012-07-17T10:12:09Z</time>
      </trkpt>
      <trkpt lat="44.42137" lon="6.09324">
        <ele>1241.6799316</ele>
        <time>2012-07-17T10:12:11Z</time>
      </trkpt>
      <trkpt lat="44.42114" lon="6.09327">
        <ele>1243.6025391</ele>
        <time>2012-07-17T10:12:29Z</time>
      </trkpt>
      <trkpt lat="44.4211" lon="6.09326">
        <ele>1243.6025391</ele>
        <time>2012-07-17T10:12:32Z</time>
      </trkpt>
      <trkpt lat="44.42106" lon="6.09325">
        <ele>1244.0834961</ele>
        <time>2012-07-17T10:12:36Z</time>
      </trkpt>
      <trkpt lat="44.42101" lon="6.09325">
        <ele>1244.0834961</ele>
        <time>2012-07-17T10:12:40Z</time>
      </trkpt>
      <trkpt lat="44.42078" lon="6.09328">
        <ele>1246.0061035</ele>
        <time>2012-07-17T10:12:58Z</time>
      </trkpt>
      <trkpt lat="44.42073" lon="6.09323">
        <ele>1246.9672852</ele>
        <time>2012-07-17T10:13:03Z</time>
      </trkpt>
      <trkpt lat="44.42066" lon="6.09318">
        <ele>1248.4091797</ele>
        <time>2012-07-17T10:13:15Z</time>
      </trkpt>
      <trkpt lat="44.42059" lon="6.09316">
        <ele>1248.4091797</ele>
        <time>2012-07-17T10:13:19Z</time>
      </trkpt>
      <trkpt lat="44.42054" lon="6.09316">
        <ele>1248.8898926</ele>
        <time>2012-07-17T10:13:21Z</time>
      </trkpt>
      <trkpt lat="44.42028" lon="6.09325">
        <ele>1250.3320313</ele>
        <time>2012-07-17T10:13:41Z</time>
      </trkpt>
      <trkpt lat="44.42022" lon="6.09325">
        <ele>1250.3320313</ele>
        <time>2012-07-17T10:13:45Z</time>
      </trkpt>
      <trkpt lat="44.42011" lon="6.09316">
        <ele>1251.2932129</ele>
        <time>2012-07-17T10:13:56Z</time>
      </trkpt>
      <trkpt lat="44.41996" lon="6.093">
        <ele>1253.2158203</ele>
        <time>2012-07-17T10:14:16Z</time>
      </trkpt>
      <trkpt lat="44.41978" lon="6.09294">
        <ele>1255.6191406</ele>
        <time>2012-07-17T10:14:29Z</time>
      </trkpt>
      <trkpt lat="44.41966" lon="6.0929">
        <ele>1255.6191406</ele>
        <time>2012-07-17T10:14:38Z</time>
      </trkpt>
      <trkpt lat="44.41959" lon="6.09288">
        <ele>1256.0996094</ele>
        <time>2012-07-17T10:14:41Z</time>
      </trkpt>
      <trkpt lat="44.41958" lon="6.09288">
        <ele>1256.5803223</ele>
        <time>2012-07-17T10:14:48Z</time>
      </trkpt>
      <trkpt lat="44.41949" lon="6.09286">
        <ele>1257.0610352</ele>
        <time>2012-07-17T10:14:51Z</time>
      </trkpt>
      <trkpt lat="44.41947" lon="6.09285">
        <ele>1257.0610352</ele>
        <time>2012-07-17T10:14:55Z</time>
      </trkpt>
      <trkpt lat="44.41935" lon="6.0928">
        <ele>1258.0224609</ele>
        <time>2012-07-17T10:15:03Z</time>
      </trkpt>
      <trkpt lat="44.41926" lon="6.09276">
        <ele>1259.4643555</ele>
        <time>2012-07-17T10:15:14Z</time>
      </trkpt>
      <trkpt lat="44.41917" lon="6.09273">
        <ele>1260.4257813</ele>
        <time>2012-07-17T10:15:23Z</time>
      </trkpt>
      <trkpt lat="44.41902" lon="6.09282">
        <ele>1261.387207</ele>
        <time>2012-07-17T10:15:36Z</time>
      </trkpt>
      <trkpt lat="44.41889" lon="6.09296">
        <ele>1262.3483887</ele>
        <time>2012-07-17T10:15:51Z</time>
      </trkpt>
      <trkpt lat="44.41885" lon="6.09301">
        <ele>1261.8679199</ele>
        <time>2012-07-17T10:15:56Z</time>
      </trkpt>
      <trkpt lat="44.41879" lon="6.09309">
        <ele>1262.3483887</ele>
        <time>2012-07-17T10:16:01Z</time>
      </trkpt>
      <trkpt lat="44.41869" lon="6.09322">
        <ele>1265.2324219</ele>
        <time>2012-07-17T10:16:12Z</time>
      </trkpt>
      <trkpt lat="44.41868" lon="6.09324">
        <ele>1263.3098145</ele>
        <time>2012-07-17T10:16:14Z</time>
      </trkpt>
      <trkpt lat="44.41866" lon="6.09327">
        <ele>1265.2324219</ele>
        <time>2012-07-17T10:16:16Z</time>
      </trkpt>
      <trkpt lat="44.41865" lon="6.09329">
        <ele>1264.2709961</ele>
        <time>2012-07-17T10:16:18Z</time>
      </trkpt>
      <trkpt lat="44.41848" lon="6.09352">
        <ele>1266.6743164</ele>
        <time>2012-07-17T10:16:36Z</time>
      </trkpt>
      <trkpt lat="44.41844" lon="6.09355">
        <ele>1267.635498</ele>
        <time>2012-07-17T10:16:41Z</time>
      </trkpt>
      <trkpt lat="44.41833" lon="6.09339">
        <ele>1268.5969238</ele>
        <time>2012-07-17T10:16:49Z</time>
      </trkpt>
      <trkpt lat="44.4183" lon="6.09335">
        <ele>1267.1550293</ele>
        <time>2012-07-17T10:16:53Z</time>
      </trkpt>
      <trkpt lat="44.41822" lon="6.09329">
        <ele>1268.1162109</ele>
        <time>2012-07-17T10:16:59Z</time>
      </trkpt>
      <trkpt lat="44.41818" lon="6.09318">
        <ele>1269.0776367</ele>
        <time>2012-07-17T10:17:06Z</time>
      </trkpt>
      <trkpt lat="44.41817" lon="6.09311">
        <ele>1268.5969238</ele>
        <time>2012-07-17T10:17:10Z</time>
      </trkpt>
      <trkpt lat="44.41817" lon="6.09309">
        <ele>1269.0776367</ele>
        <time>2012-07-17T10:17:11Z</time>
      </trkpt>
      <trkpt lat="44.41825" lon="6.09279">
        <ele>1270.5195313</ele>
        <time>2012-07-17T10:17:28Z</time>
      </trkpt>
      <trkpt lat="44.41825" lon="6.09277">
        <ele>1269.5583496</ele>
        <time>2012-07-17T10:17:29Z</time>
      </trkpt>
      <trkpt lat="44.41827" lon="6.09272">
        <ele>1269.5583496</ele>
        <time>2012-07-17T10:17:33Z</time>
      </trkpt>
      <trkpt lat="44.41828" lon="6.09259">
        <ele>1271.0002441</ele>
        <time>2012-07-17T10:17:40Z</time>
      </trkpt>
      <trkpt lat="44.41828" lon="6.09254">
        <ele>1271.0002441</ele>
        <time>2012-07-17T10:17:43Z</time>
      </trkpt>
      <trkpt lat="44.41825" lon="6.0925">
        <ele>1271.4807129</ele>
        <time>2012-07-17T10:17:45Z</time>
      </trkpt>
      <trkpt lat="44.41804" lon="6.09251">
        <ele>1273.4035645</ele>
        <time>2012-07-17T10:17:59Z</time>
      </trkpt>
      <trkpt lat="44.41803" lon="6.09252">
        <ele>1273.8840332</ele>
        <time>2012-07-17T10:18:00Z</time>
      </trkpt>
      <trkpt lat="44.41798" lon="6.09253">
        <ele>1274.3647461</ele>
        <time>2012-07-17T10:18:04Z</time>
      </trkpt>
      <trkpt lat="44.41789" lon="6.09249">
        <ele>1274.845459</ele>
        <time>2012-07-17T10:18:10Z</time>
      </trkpt>
      <trkpt lat="44.41787" lon="6.09247">
        <ele>1274.845459</ele>
        <time>2012-07-17T10:18:12Z</time>
      </trkpt>
      <trkpt lat="44.4178" lon="6.0924">
        <ele>1275.8066406</ele>
        <time>2012-07-17T10:18:18Z</time>
      </trkpt>
      <trkpt lat="44.41769" lon="6.09222">
        <ele>1276.2875977</ele>
        <time>2012-07-17T10:18:32Z</time>
      </trkpt>
      <trkpt lat="44.41764" lon="6.09214">
        <ele>1277.2490234</ele>
        <time>2012-07-17T10:18:37Z</time>
      </trkpt>
      <trkpt lat="44.41761" lon="6.0921">
        <ele>1277.2490234</ele>
        <time>2012-07-17T10:18:41Z</time>
      </trkpt>
      <trkpt lat="44.41755" lon="6.09209">
        <ele>1275.8066406</ele>
        <time>2012-07-17T10:18:44Z</time>
      </trkpt>
      <trkpt lat="44.41751" lon="6.09206">
        <ele>1277.7294922</ele>
        <time>2012-07-17T10:18:47Z</time>
      </trkpt>
      <trkpt lat="44.4175" lon="6.09206">
        <ele>1280.1328125</ele>
        <time>2012-07-17T10:18:49Z</time>
      </trkpt>
      <trkpt lat="44.41746" lon="6.09203">
        <ele>1279.6520996</ele>
        <time>2012-07-17T10:18:52Z</time>
      </trkpt>
      <trkpt lat="44.41743" lon="6.09202">
        <ele>1280.6135254</ele>
        <time>2012-07-17T10:18:54Z</time>
      </trkpt>
      <trkpt lat="44.4174" lon="6.09201">
        <ele>1279.6520996</ele>
        <time>2012-07-17T10:18:56Z</time>
      </trkpt>
      <trkpt lat="44.41724" lon="6.09199">
        <ele>1281.574707</ele>
        <time>2012-07-17T10:19:09Z</time>
      </trkpt>
      <trkpt lat="44.41721" lon="6.09198">
        <ele>1282.0554199</ele>
        <time>2012-07-17T10:19:12Z</time>
      </trkpt>
      <trkpt lat="44.41716" lon="6.09197">
        <ele>1283.0166016</ele>
        <time>2012-07-17T10:19:16Z</time>
      </trkpt>
      <trkpt lat="44.41706" lon="6.09197">
        <ele>1283.9780273</ele>
        <time>2012-07-17T10:19:23Z</time>
      </trkpt>
      <trkpt lat="44.41701" lon="6.092">
        <ele>1285.4199219</ele>
        <time>2012-07-17T10:19:27Z</time>
      </trkpt>
      <trkpt lat="44.41697" lon="6.09201">
        <ele>1284.4587402</ele>
        <time>2012-07-17T10:19:31Z</time>
      </trkpt>
      <trkpt lat="44.41691" lon="6.092">
        <ele>1286.3813477</ele>
        <time>2012-07-17T10:19:35Z</time>
      </trkpt>
      <trkpt lat="44.41689" lon="6.09201">
        <ele>1286.3813477</ele>
        <time>2012-07-17T10:19:36Z</time>
      </trkpt>
      <trkpt lat="44.41683" lon="6.09198">
        <ele>1286.3813477</ele>
        <time>2012-07-17T10:19:41Z</time>
      </trkpt>
      <trkpt lat="44.41672" lon="6.09193">
        <ele>1286.8618164</ele>
        <time>2012-07-17T10:19:49Z</time>
      </trkpt>
      <trkpt lat="44.41667" lon="6.09188">
        <ele>1286.3813477</ele>
        <time>2012-07-17T10:19:53Z</time>
      </trkpt>
      <trkpt lat="44.41666" lon="6.09183">
        <ele>1288.3039551</ele>
        <time>2012-07-17T10:19:57Z</time>
      </trkpt>
      <trkpt lat="44.41656" lon="6.09151">
        <ele>1288.784668</ele>
        <time>2012-07-17T10:20:15Z</time>
      </trkpt>
      <trkpt lat="44.41654" lon="6.09141">
        <ele>1289.2651367</ele>
        <time>2012-07-17T10:20:20Z</time>
      </trkpt>
      <trkpt lat="44.41639" lon="6.09122">
        <ele>1290.2265625</ele>
        <time>2012-07-17T10:20:35Z</time>
      </trkpt>
      <trkpt lat="44.41637" lon="6.0912">
        <ele>1290.2265625</ele>
        <time>2012-07-17T10:20:37Z</time>
      </trkpt>
      <trkpt lat="44.41631" lon="6.09118">
        <ele>1291.668457</ele>
        <time>2012-07-17T10:20:43Z</time>
      </trkpt>
      <trkpt lat="44.41626" lon="6.09119">
        <ele>1291.668457</ele>
        <time>2012-07-17T10:20:48Z</time>
      </trkpt>
      <trkpt lat="44.41621" lon="6.09113">
        <ele>1292.1494141</ele>
        <time>2012-07-17T10:20:52Z</time>
      </trkpt>
      <trkpt lat="44.41603" lon="6.09123">
        <ele>1294.0720215</ele>
        <time>2012-07-17T10:21:07Z</time>
      </trkpt>
      <trkpt lat="44.41587" lon="6.09127">
        <ele>1294.5524902</ele>
        <time>2012-07-17T10:21:22Z</time>
      </trkpt>
      <trkpt lat="44.41581" lon="6.09128">
        <ele>1296.9558105</ele>
        <time>2012-07-17T10:21:28Z</time>
      </trkpt>
      <trkpt lat="44.41577" lon="6.09127">
        <ele>1296.9558105</ele>
        <time>2012-07-17T10:21:32Z</time>
      </trkpt>
      <trkpt lat="44.41574" lon="6.09126">
        <ele>1297.9172363</ele>
        <time>2012-07-17T10:21:34Z</time>
      </trkpt>
      <trkpt lat="44.41569" lon="6.09127">
        <ele>1297.9172363</ele>
        <time>2012-07-17T10:21:38Z</time>
      </trkpt>
      <trkpt lat="44.41562" lon="6.09125">
        <ele>1297.9172363</ele>
        <time>2012-07-17T10:21:44Z</time>
      </trkpt>
      <trkpt lat="44.41558" lon="6.09122">
        <ele>1298.3977051</ele>
        <time>2012-07-17T10:21:48Z</time>
      </trkpt>
      <trkpt lat="44.41556" lon="6.0912">
        <ele>1298.3977051</ele>
        <time>2012-07-17T10:21:51Z</time>
      </trkpt>
      <trkpt lat="44.41552" lon="6.09108">
        <ele>1298.878418</ele>
        <time>2012-07-17T10:21:59Z</time>
      </trkpt>
      <trkpt lat="44.4155" lon="6.09098">
        <ele>1298.878418</ele>
        <time>2012-07-17T10:22:05Z</time>
      </trkpt>
      <trkpt lat="44.41546" lon="6.09088">
        <ele>1299.8398438</ele>
        <time>2012-07-17T10:22:12Z</time>
      </trkpt>
      <trkpt lat="44.41545" lon="6.09077">
        <ele>1299.8398438</ele>
        <time>2012-07-17T10:22:18Z</time>
      </trkpt>
      <trkpt lat="44.41542" lon="6.09072">
        <ele>1300.8010254</ele>
        <time>2012-07-17T10:22:21Z</time>
      </trkpt>
      <trkpt lat="44.4154" lon="6.09067">
        <ele>1300.8010254</ele>
        <time>2012-07-17T10:22:24Z</time>
      </trkpt>
      <trkpt lat="44.41539" lon="6.09064">
        <ele>1301.2817383</ele>
        <time>2012-07-17T10:22:26Z</time>
      </trkpt>
      <trkpt lat="44.41526" lon="6.09045">
        <ele>1301.2817383</ele>
        <time>2012-07-17T10:22:39Z</time>
      </trkpt>
      <trkpt lat="44.41519" lon="6.09041">
        <ele>1302.2429199</ele>
        <time>2012-07-17T10:22:45Z</time>
      </trkpt>
      <trkpt lat="44.41517" lon="6.09039">
        <ele>1302.7236328</ele>
        <time>2012-07-17T10:22:48Z</time>
      </trkpt>
      <trkpt lat="44.41504" lon="6.09037">
        <ele>1305.607666</ele>
        <time>2012-07-17T10:23:02Z</time>
      </trkpt>
      <trkpt lat="44.41498" lon="6.09037">
        <ele>1306.5688477</ele>
        <time>2012-07-17T10:23:07Z</time>
      </trkpt>
      <trkpt lat="44.41486" lon="6.09038">
        <ele>1306.5688477</ele>
        <time>2012-07-17T10:23:16Z</time>
      </trkpt>
      <trkpt lat="44.41482" lon="6.09032">
        <ele>1308.0112305</ele>
        <time>2012-07-17T10:23:22Z</time>
      </trkpt>
      <trkpt lat="44.41478" lon="6.09027">
        <ele>1308.4916992</ele>
        <time>2012-07-17T10:23:26Z</time>
      </trkpt>
      <trkpt lat="44.41477" lon="6.0902">
        <ele>1309.453125</ele>
        <time>2012-07-17T10:23:30Z</time>
      </trkpt>
      <trkpt lat="44.41479" lon="6.08997">
        <ele>1309.9335938</ele>
        <time>2012-07-17T10:23:44Z</time>
      </trkpt>
      <trkpt lat="44.41487" lon="6.08991">
        <ele>1310.4143066</ele>
        <time>2012-07-17T10:23:56Z</time>
      </trkpt>
      <trkpt lat="44.41489" lon="6.08992">
        <ele>1310.8950195</ele>
        <time>2012-07-17T10:24:07Z</time>
      </trkpt>
      <trkpt lat="44.41489" lon="6.08992">
        <ele>1309.453125</ele>
        <time>2012-07-17T10:24:09Z</time>
      </trkpt>
      <trkpt lat="44.41488" lon="6.08991">
        <ele>1308.9724121</ele>
        <time>2012-07-17T10:24:21Z</time>
      </trkpt>
      <trkpt lat="44.41489" lon="6.08992">
        <ele>1310.8950195</ele>
        <time>2012-07-17T10:24:23Z</time>
      </trkpt>
      <trkpt lat="44.41488" lon="6.08991">
        <ele>1308.4916992</ele>
        <time>2012-07-17T10:24:57Z</time>
      </trkpt>
      <trkpt lat="44.41488" lon="6.08991">
        <ele>1308.4916992</ele>
        <time>2012-07-17T10:24:58Z</time>
      </trkpt>
      <trkpt lat="44.41488" lon="6.08991">
        <ele>1310.8950195</ele>
        <time>2012-07-17T10:25:00Z</time>
      </trkpt>
      <trkpt lat="44.41488" lon="6.08991">
        <ele>1308.4916992</ele>
        <time>2012-07-17T10:25:34Z</time>
      </trkpt>
      <trkpt lat="44.41488" lon="6.08991">
        <ele>1311.3757324</ele>
        <time>2012-07-17T10:25:37Z</time>
      </trkpt>
      <trkpt lat="44.41487" lon="6.08993">
        <ele>1308.4916992</ele>
        <time>2012-07-17T10:25:44Z</time>
      </trkpt>
      <trkpt lat="44.41487" lon="6.08993">
        <ele>1311.3757324</ele>
        <time>2012-07-17T10:25:51Z</time>
      </trkpt>
      <trkpt lat="44.41487" lon="6.08993">
        <ele>1310.4143066</ele>
        <time>2012-07-17T10:25:52Z</time>
      </trkpt>
      <trkpt lat="44.4148" lon="6.0899">
        <ele>1309.453125</ele>
        <time>2012-07-17T10:25:56Z</time>
      </trkpt>
      <trkpt lat="44.41477" lon="6.08984">
        <ele>1308.4916992</ele>
        <time>2012-07-17T10:26:00Z</time>
      </trkpt>
      <trkpt lat="44.41476" lon="6.08978">
        <ele>1308.4916992</ele>
        <time>2012-07-17T10:26:03Z</time>
      </trkpt>
      <trkpt lat="44.41472" lon="6.0896">
        <ele>1310.4143066</ele>
        <time>2012-07-17T10:26:14Z</time>
      </trkpt>
      <trkpt lat="44.41468" lon="6.08948">
        <ele>1312.817627</ele>
        <time>2012-07-17T10:26:23Z</time>
      </trkpt>
      <trkpt lat="44.41464" lon="6.08943">
        <ele>1309.9335938</ele>
        <time>2012-07-17T10:26:28Z</time>
      </trkpt>
      <trkpt lat="44.41461" lon="6.08937">
        <ele>1313.2983398</ele>
        <time>2012-07-17T10:26:32Z</time>
      </trkpt>
      <trkpt lat="44.41454" lon="6.08934">
        <ele>1309.9335938</ele>
        <time>2012-07-17T10:26:36Z</time>
      </trkpt>
      <trkpt lat="44.41452" lon="6.08935">
        <ele>1309.9335938</ele>
        <time>2012-07-17T10:26:37Z</time>
      </trkpt>
      <trkpt lat="44.41447" lon="6.08938">
        <ele>1310.8950195</ele>
        <time>2012-07-17T10:26:41Z</time>
      </trkpt>
      <trkpt lat="44.41439" lon="6.08945">
        <ele>1314.2595215</ele>
        <time>2012-07-17T10:26:48Z</time>
      </trkpt>
      <trkpt lat="44.41438" lon="6.08946">
        <ele>1314.2595215</ele>
        <time>2012-07-17T10:26:49Z</time>
      </trkpt>
      <trkpt lat="44.41429" lon="6.08945">
        <ele>1313.7788086</ele>
        <time>2012-07-17T10:26:56Z</time>
      </trkpt>
      <trkpt lat="44.41428" lon="6.08945">
        <ele>1315.2209473</ele>
        <time>2012-07-17T10:26:57Z</time>
      </trkpt>
      <trkpt lat="44.41424" lon="6.08941">
        <ele>1312.817627</ele>
        <time>2012-07-17T10:27:02Z</time>
      </trkpt>
      <trkpt lat="44.4142" lon="6.08936">
        <ele>1314.2595215</ele>
        <time>2012-07-17T10:27:05Z</time>
      </trkpt>
      <trkpt lat="44.4142" lon="6.08935">
        <ele>1312.3369141</ele>
        <time>2012-07-17T10:27:06Z</time>
      </trkpt>
      <trkpt lat="44.41418" lon="6.08933">
        <ele>1313.7788086</ele>
        <time>2012-07-17T10:27:09Z</time>
      </trkpt>
      <trkpt lat="44.41402" lon="6.0892">
        <ele>1316.1821289</ele>
        <time>2012-07-17T10:27:26Z</time>
      </trkpt>
      <trkpt lat="44.41391" lon="6.08921">
        <ele>1317.1435547</ele>
        <time>2012-07-17T10:27:34Z</time>
      </trkpt>
      <trkpt lat="44.41386" lon="6.08924">
        <ele>1317.6240234</ele>
        <time>2012-07-17T10:27:39Z</time>
      </trkpt>
      <trkpt lat="44.41382" lon="6.08925">
        <ele>1317.1435547</ele>
        <time>2012-07-17T10:27:42Z</time>
      </trkpt>
      <trkpt lat="44.41378" lon="6.08926">
        <ele>1318.1047363</ele>
        <time>2012-07-17T10:27:46Z</time>
      </trkpt>
      <trkpt lat="44.41367" lon="6.08923">
        <ele>1319.0661621</ele>
        <time>2012-07-17T10:27:56Z</time>
      </trkpt>
      <trkpt lat="44.41356" lon="6.08906">
        <ele>1320.0273438</ele>
        <time>2012-07-17T10:28:10Z</time>
      </trkpt>
      <trkpt lat="44.41351" lon="6.08903">
        <ele>1320.5080566</ele>
        <time>2012-07-17T10:28:14Z</time>
      </trkpt>
      <trkpt lat="44.41339" lon="6.08891">
        <ele>1321.9499512</ele>
        <time>2012-07-17T10:28:29Z</time>
      </trkpt>
      <trkpt lat="44.41336" lon="6.08886">
        <ele>1322.4306641</ele>
        <time>2012-07-17T10:28:33Z</time>
      </trkpt>
      <trkpt lat="44.41328" lon="6.08872">
        <ele>1323.3920898</ele>
        <time>2012-07-17T10:28:44Z</time>
      </trkpt>
      <trkpt lat="44.4132" lon="6.08862">
        <ele>1324.3535156</ele>
        <time>2012-07-17T10:28:52Z</time>
      </trkpt>
      <trkpt lat="44.41313" lon="6.08855">
        <ele>1324.8342285</ele>
        <time>2012-07-17T10:28:59Z</time>
      </trkpt>
      <trkpt lat="44.41311" lon="6.08851">
        <ele>1325.7954102</ele>
        <time>2012-07-17T10:29:03Z</time>
      </trkpt>
      <trkpt lat="44.41298" lon="6.08838">
        <ele>1326.7568359</ele>
        <time>2012-07-17T10:29:17Z</time>
      </trkpt>
      <trkpt lat="44.41285" lon="6.08823">
        <ele>1328.6794434</ele>
        <time>2012-07-17T10:29:32Z</time>
      </trkpt>
      <trkpt lat="44.41282" lon="6.0882">
        <ele>1328.6794434</ele>
        <time>2012-07-17T10:29:35Z</time>
      </trkpt>
      <trkpt lat="44.4127" lon="6.08813">
        <ele>1330.6020508</ele>
        <time>2012-07-17T10:29:49Z</time>
      </trkpt>
      <trkpt lat="44.41267" lon="6.08813">
        <ele>1331.0827637</ele>
        <time>2012-07-17T10:29:51Z</time>
      </trkpt>
      <trkpt lat="44.41243" lon="6.08808">
        <ele>1333.005127</ele>
        <time>2012-07-17T10:30:11Z</time>
      </trkpt>
      <trkpt lat="44.41235" lon="6.08799">
        <ele>1333.4858398</ele>
        <time>2012-07-17T10:30:22Z</time>
      </trkpt>
      <trkpt lat="44.41227" lon="6.08781">
        <ele>1334.9279785</ele>
        <time>2012-07-17T10:30:35Z</time>
      </trkpt>
      <trkpt lat="44.41222" lon="6.08773">
        <ele>1335.8891602</ele>
        <time>2012-07-17T10:30:42Z</time>
      </trkpt>
      <trkpt lat="44.41219" lon="6.08762">
        <ele>1336.8503418</ele>
        <time>2012-07-17T10:30:48Z</time>
      </trkpt>
      <trkpt lat="44.41204" lon="6.08731">
        <ele>1338.2924805</ele>
        <time>2012-07-17T10:31:06Z</time>
      </trkpt>
      <trkpt lat="44.41201" lon="6.08716">
        <ele>1339.734375</ele>
        <time>2012-07-17T10:31:17Z</time>
      </trkpt>
      <trkpt lat="44.412" lon="6.08699">
        <ele>1341.1765137</ele>
        <time>2012-07-17T10:31:30Z</time>
      </trkpt>
      <trkpt lat="44.41191" lon="6.08672">
        <ele>1343.0991211</ele>
        <time>2012-07-17T10:31:48Z</time>
      </trkpt>
      <trkpt lat="44.41186" lon="6.08665">
        <ele>1343.579834</ele>
        <time>2012-07-17T10:31:54Z</time>
      </trkpt>
      <trkpt lat="44.41179" lon="6.08624">
        <ele>1345.0217285</ele>
        <time>2012-07-17T10:32:14Z</time>
      </trkpt>
      <trkpt lat="44.41193" lon="6.08601">
        <ele>1346.4638672</ele>
        <time>2012-07-17T10:32:27Z</time>
      </trkpt>
      <trkpt lat="44.41202" lon="6.08588">
        <ele>1347.9057617</ele>
        <time>2012-07-17T10:32:39Z</time>
      </trkpt>
      <trkpt lat="44.41213" lon="6.0858">
        <ele>1349.3476563</ele>
        <time>2012-07-17T10:32:48Z</time>
      </trkpt>
      <trkpt lat="44.41213" lon="6.08581">
        <ele>1349.8283691</ele>
        <time>2012-07-17T10:33:00Z</time>
      </trkpt>
      <trkpt lat="44.41213" lon="6.08581">
        <ele>1350.7895508</ele>
        <time>2012-07-17T10:33:04Z</time>
      </trkpt>
      <trkpt lat="44.41213" lon="6.08581">
        <ele>1348.3862305</ele>
        <time>2012-07-17T10:33:10Z</time>
      </trkpt>
      <trkpt lat="44.41214" lon="6.0858">
        <ele>1348.3862305</ele>
        <time>2012-07-17T10:33:36Z</time>
      </trkpt>
      <trkpt lat="44.41214" lon="6.0858">
        <ele>1349.8283691</ele>
        <time>2012-07-17T10:33:54Z</time>
      </trkpt>
      <trkpt lat="44.41214" lon="6.0858">
        <ele>1347.9057617</ele>
        <time>2012-07-17T10:34:18Z</time>
      </trkpt>
      <trkpt lat="44.41215" lon="6.08578">
        <ele>1349.8283691</ele>
        <time>2012-07-17T10:34:29Z</time>
      </trkpt>
      <trkpt lat="44.41214" lon="6.08573">
        <ele>1349.8283691</ele>
        <time>2012-07-17T10:34:31Z</time>
      </trkpt>
      <trkpt lat="44.41219" lon="6.08561">
        <ele>1348.8669434</ele>
        <time>2012-07-17T10:34:35Z</time>
      </trkpt>
      <trkpt lat="44.41197" lon="6.08519">
        <ele>1348.8669434</ele>
        <time>2012-07-17T10:34:47Z</time>
      </trkpt>
      <trkpt lat="44.4116" lon="6.0851">
        <ele>1346.9443359</ele>
        <time>2012-07-17T10:34:58Z</time>
      </trkpt>
      <trkpt lat="44.41127" lon="6.085">
        <ele>1345.9831543</ele>
        <time>2012-07-17T10:35:13Z</time>
      </trkpt>
      <trkpt lat="44.41123" lon="6.08496">
        <ele>1345.9831543</ele>
        <time>2012-07-17T10:35:29Z</time>
      </trkpt>
      <trkpt lat="44.41123" lon="6.08496">
        <ele>1345.9831543</ele>
        <time>2012-07-17T10:35:51Z</time>
      </trkpt>
      <trkpt lat="44.41118" lon="6.08479">
        <ele>1345.9831543</ele>
        <time>2012-07-17T10:36:01Z</time>
      </trkpt>
      <trkpt lat="44.41099" lon="6.08447">
        <ele>1345.9831543</ele>
        <time>2012-07-17T10:36:14Z</time>
      </trkpt>
      <trkpt lat="44.41069" lon="6.08425">
        <ele>1346.9443359</ele>
        <time>2012-07-17T10:36:30Z</time>
      </trkpt>
      <trkpt lat="44.41035" lon="6.08414">
        <ele>1347.9057617</ele>
        <time>2012-07-17T10:36:46Z</time>
      </trkpt>
      <trkpt lat="44.40996" lon="6.08424">
        <ele>1348.3862305</ele>
        <time>2012-07-17T10:37:04Z</time>
      </trkpt>
      <trkpt lat="44.40962" lon="6.08448">
        <ele>1348.8669434</ele>
        <time>2012-07-17T10:37:21Z</time>
      </trkpt>
      <trkpt lat="44.40928" lon="6.08473">
        <ele>1349.3476563</ele>
        <time>2012-07-17T10:37:37Z</time>
      </trkpt>
      <trkpt lat="44.409" lon="6.08498">
        <ele>1349.3476563</ele>
        <time>2012-07-17T10:37:50Z</time>
      </trkpt>
      <trkpt lat="44.4087" lon="6.08491">
        <ele>1351.2702637</ele>
        <time>2012-07-17T10:38:03Z</time>
      </trkpt>
      <trkpt lat="44.40867" lon="6.08489">
        <ele>1349.3476563</ele>
        <time>2012-07-17T10:38:05Z</time>
      </trkpt>
      <trkpt lat="44.40864" lon="6.08489">
        <ele>1350.309082</ele>
        <time>2012-07-17T10:38:21Z</time>
      </trkpt>
      <trkpt lat="44.40853" lon="6.08482">
        <ele>1350.7895508</ele>
        <time>2012-07-17T10:39:09Z</time>
      </trkpt>
      <trkpt lat="44.40827" lon="6.08453">
        <ele>1349.8283691</ele>
        <time>2012-07-17T10:39:25Z</time>
      </trkpt>
      <trkpt lat="44.40811" lon="6.08412">
        <ele>1348.3862305</ele>
        <time>2012-07-17T10:39:40Z</time>
      </trkpt>
      <trkpt lat="44.40809" lon="6.08407">
        <ele>1350.309082</ele>
        <time>2012-07-17T10:39:42Z</time>
      </trkpt>
      <trkpt lat="44.40779" lon="6.08372">
        <ele>1350.7895508</ele>
        <time>2012-07-17T10:40:01Z</time>
      </trkpt>
      <trkpt lat="44.40761" lon="6.08344">
        <ele>1350.7895508</ele>
        <time>2012-07-17T10:40:16Z</time>
      </trkpt>
      <trkpt lat="44.40756" lon="6.08345">
        <ele>1349.8283691</ele>
        <time>2012-07-17T10:40:21Z</time>
      </trkpt>
      <trkpt lat="44.40756" lon="6.08345">
        <ele>1351.2702637</ele>
        <time>2012-07-17T10:40:23Z</time>
      </trkpt>
      <trkpt lat="44.40757" lon="6.08346">
        <ele>1350.309082</ele>
        <time>2012-07-17T10:41:02Z</time>
      </trkpt>
      <trkpt lat="44.40759" lon="6.08344">
        <ele>1350.7895508</ele>
        <time>2012-07-17T10:41:13Z</time>
      </trkpt>
      <trkpt lat="44.40761" lon="6.08344">
        <ele>1351.2702637</ele>
        <time>2012-07-17T10:41:26Z</time>
      </trkpt>
      <trkpt lat="44.40768" lon="6.0836">
        <ele>1351.2702637</ele>
        <time>2012-07-17T10:41:45Z</time>
      </trkpt>
      <trkpt lat="44.4078" lon="6.08373">
        <ele>1351.2702637</ele>
        <time>2012-07-17T10:42:03Z</time>
      </trkpt>
      <trkpt lat="44.40781" lon="6.08379">
        <ele>1351.7509766</ele>
        <time>2012-07-17T10:42:18Z</time>
      </trkpt>
      <trkpt lat="44.40765" lon="6.08361">
        <ele>1350.7895508</ele>
        <time>2012-07-17T10:42:39Z</time>
      </trkpt>
      <trkpt lat="44.40761" lon="6.08352">
        <ele>1352.7121582</ele>
        <time>2012-07-17T10:43:04Z</time>
      </trkpt>
      <trkpt lat="44.4076" lon="6.0835">
        <ele>1352.7121582</ele>
        <time>2012-07-17T10:43:20Z</time>
      </trkpt>
      <trkpt lat="44.40755" lon="6.08341">
        <ele>1352.2314453</ele>
        <time>2012-07-17T10:43:38Z</time>
      </trkpt>
      <trkpt lat="44.40755" lon="6.08342">
        <ele>1352.2314453</ele>
        <time>2012-07-17T10:43:42Z</time>
      </trkpt>
      <trkpt lat="44.40757" lon="6.08344">
        <ele>1352.2314453</ele>
        <time>2012-07-17T10:43:44Z</time>
      </trkpt>
      <trkpt lat="44.40765" lon="6.08349">
        <ele>1352.2314453</ele>
        <time>2012-07-17T10:43:56Z</time>
      </trkpt>
      <trkpt lat="44.40784" lon="6.08375">
        <ele>1351.7509766</ele>
        <time>2012-07-17T10:44:10Z</time>
      </trkpt>
      <trkpt lat="44.40795" lon="6.08389">
        <ele>1352.2314453</ele>
        <time>2012-07-17T10:44:19Z</time>
      </trkpt>
      <trkpt lat="44.40801" lon="6.08401">
        <ele>1352.7121582</ele>
        <time>2012-07-17T10:44:25Z</time>
      </trkpt>
      <trkpt lat="44.40803" lon="6.084">
        <ele>1352.2314453</ele>
        <time>2012-07-17T10:44:28Z</time>
      </trkpt>
      <trkpt lat="44.40808" lon="6.08407">
        <ele>1352.2314453</ele>
        <time>2012-07-17T10:44:32Z</time>
      </trkpt>
      <trkpt lat="44.40841" lon="6.08474">
        <ele>1352.2314453</ele>
        <time>2012-07-17T10:44:54Z</time>
      </trkpt>
      <trkpt lat="44.4085" lon="6.08482">
        <ele>1353.1928711</ele>
        <time>2012-07-17T10:45:00Z</time>
      </trkpt>
      <trkpt lat="44.40867" lon="6.08492">
        <ele>1352.2314453</ele>
        <time>2012-07-17T10:45:13Z</time>
      </trkpt>
      <trkpt lat="44.40866" lon="6.08494">
        <ele>1350.7895508</ele>
        <time>2012-07-17T10:45:28Z</time>
      </trkpt>
      <trkpt lat="44.40866" lon="6.08492">
        <ele>1350.7895508</ele>
        <time>2012-07-17T10:45:38Z</time>
      </trkpt>
      <trkpt lat="44.40834" lon="6.08472">
        <ele>1350.309082</ele>
        <time>2012-07-17T10:45:54Z</time>
      </trkpt>
      <trkpt lat="44.40814" lon="6.08422">
        <ele>1351.2702637</ele>
        <time>2012-07-17T10:46:15Z</time>
      </trkpt>
      <trkpt lat="44.40802" lon="6.08403">
        <ele>1350.309082</ele>
        <time>2012-07-17T10:46:29Z</time>
      </trkpt>
      <trkpt lat="44.40802" lon="6.08402">
        <ele>1350.309082</ele>
        <time>2012-07-17T10:46:32Z</time>
      </trkpt>
      <trkpt lat="44.40796" lon="6.08393">
        <ele>1350.7895508</ele>
        <time>2012-07-17T10:46:37Z</time>
      </trkpt>
      <trkpt lat="44.40784" lon="6.08385">
        <ele>1350.7895508</ele>
        <time>2012-07-17T10:46:49Z</time>
      </trkpt>
      <trkpt lat="44.40783" lon="6.08384">
        <ele>1350.309082</ele>
        <time>2012-07-17T10:46:54Z</time>
      </trkpt>
      <trkpt lat="44.40765" lon="6.08355">
        <ele>1350.7895508</ele>
        <time>2012-07-17T10:47:07Z</time>
      </trkpt>
      <trkpt lat="44.40762" lon="6.08348">
        <ele>1351.2702637</ele>
        <time>2012-07-17T10:47:10Z</time>
      </trkpt>
      <trkpt lat="44.40756" lon="6.08345">
        <ele>1350.7895508</ele>
        <time>2012-07-17T10:47:14Z</time>
      </trkpt>
      <trkpt lat="44.40753" lon="6.0834">
        <ele>1350.309082</ele>
        <time>2012-07-17T10:47:24Z</time>
      </trkpt>
      <trkpt lat="44.40754" lon="6.08342">
        <ele>1350.309082</ele>
        <time>2012-07-17T10:47:37Z</time>
      </trkpt>
      <trkpt lat="44.40753" lon="6.08341">
        <ele>1349.8283691</ele>
        <time>2012-07-17T10:47:50Z</time>
      </trkpt>
      <trkpt lat="44.40754" lon="6.08346">
        <ele>1349.8283691</ele>
        <time>2012-07-17T10:48:17Z</time>
      </trkpt>
      <trkpt lat="44.40752" lon="6.08349">
        <ele>1349.8283691</ele>
        <time>2012-07-17T10:48:56Z</time>
      </trkpt>
      <trkpt lat="44.40752" lon="6.08348">
        <ele>1351.7509766</ele>
        <time>2012-07-17T10:50:19Z</time>
      </trkpt>
      <trkpt lat="44.40752" lon="6.08348">
        <ele>1349.8283691</ele>
        <time>2012-07-17T10:50:28Z</time>
      </trkpt>
      <trkpt lat="44.40752" lon="6.08348">
        <ele>1349.3476563</ele>
        <time>2012-07-17T10:50:44Z</time>
      </trkpt>
      <trkpt lat="44.40752" lon="6.08348">
        <ele>1349.8283691</ele>
        <time>2012-07-17T10:51:01Z</time>
      </trkpt>
      <trkpt lat="44.40752" lon="6.08348">
        <ele>1352.2314453</ele>
        <time>2012-07-17T10:51:26Z</time>
      </trkpt>
      <trkpt lat="44.40752" lon="6.08348">
        <ele>1348.8669434</ele>
        <time>2012-07-17T10:51:48Z</time>
      </trkpt>
      <trkpt lat="44.40752" lon="6.08348">
        <ele>1353.1928711</ele>
        <time>2012-07-17T10:52:02Z</time>
      </trkpt>
      <trkpt lat="44.40752" lon="6.08348">
        <ele>1353.1928711</ele>
        <time>2012-07-17T10:52:03Z</time>
      </trkpt>
      <trkpt lat="44.40752" lon="6.08348">
        <ele>1351.7509766</ele>
        <time>2012-07-17T10:52:05Z</time>
      </trkpt>
      <trkpt lat="44.40752" lon="6.08348">
        <ele>1349.8283691</ele>
        <time>2012-07-17T10:53:11Z</time>
      </trkpt>
      <trkpt lat="44.40751" lon="6.0835">
        <ele>1351.7509766</ele>
        <time>2012-07-17T10:56:41Z</time>
      </trkpt>
      <trkpt lat="44.40751" lon="6.08349">
        <ele>1349.8283691</ele>
        <time>2012-07-17T10:56:48Z</time>
      </trkpt>
      <trkpt lat="44.40756" lon="6.08346">
        <ele>1350.7895508</ele>
        <time>2012-07-17T10:56:58Z</time>
      </trkpt>
      <trkpt lat="44.4076" lon="6.08341">
        <ele>1350.7895508</ele>
        <time>2012-07-17T10:57:08Z</time>
      </trkpt>
      <trkpt lat="44.40771" lon="6.08304">
        <ele>1349.8283691</ele>
        <time>2012-07-17T10:57:21Z</time>
      </trkpt>
      <trkpt lat="44.40772" lon="6.08302">
        <ele>1349.3476563</ele>
        <time>2012-07-17T10:57:22Z</time>
      </trkpt>
      <trkpt lat="44.4077" lon="6.08292">
        <ele>1349.3476563</ele>
        <time>2012-07-17T10:57:35Z</time>
      </trkpt>
      <trkpt lat="44.40769" lon="6.08291">
        <ele>1348.3862305</ele>
        <time>2012-07-17T10:57:48Z</time>
      </trkpt>
      <trkpt lat="44.40786" lon="6.08263">
        <ele>1346.4638672</ele>
        <time>2012-07-17T10:57:59Z</time>
      </trkpt>
      <trkpt lat="44.40805" lon="6.0825">
        <ele>1344.0605469</ele>
        <time>2012-07-17T10:58:06Z</time>
      </trkpt>
      <trkpt lat="44.40836" lon="6.08251">
        <ele>1341.1765137</ele>
        <time>2012-07-17T10:58:13Z</time>
      </trkpt>
      <trkpt lat="44.40854" lon="6.08252">
        <ele>1340.215332</ele>
        <time>2012-07-17T10:58:20Z</time>
      </trkpt>
      <trkpt lat="44.40859" lon="6.08252">
        <ele>1338.7731934</ele>
        <time>2012-07-17T10:58:23Z</time>
      </trkpt>
      <trkpt lat="44.40878" lon="6.08253">
        <ele>1336.8503418</ele>
        <time>2012-07-17T10:58:31Z</time>
      </trkpt>
      <trkpt lat="44.40879" lon="6.08253">
        <ele>1335.4084473</ele>
        <time>2012-07-17T10:58:48Z</time>
      </trkpt>
      <trkpt lat="44.40885" lon="6.08253">
        <ele>1335.4084473</ele>
        <time>2012-07-17T10:58:51Z</time>
      </trkpt>
      <trkpt lat="44.40908" lon="6.08254">
        <ele>1333.9665527</ele>
        <time>2012-07-17T10:58:56Z</time>
      </trkpt>
      <trkpt lat="44.40917" lon="6.08254">
        <ele>1333.005127</ele>
        <time>2012-07-17T10:58:58Z</time>
      </trkpt>
      <trkpt lat="44.40925" lon="6.08255">
        <ele>1332.5246582</ele>
        <time>2012-07-17T10:59:00Z</time>
      </trkpt>
      <trkpt lat="44.40964" lon="6.08256">
        <ele>1328.6794434</ele>
        <time>2012-07-17T10:59:10Z</time>
      </trkpt>
      <trkpt lat="44.40979" lon="6.08257">
        <ele>1327.2375488</ele>
        <time>2012-07-17T10:59:14Z</time>
      </trkpt>
      <trkpt lat="44.41027" lon="6.08264">
        <ele>1322.911377</ele>
        <time>2012-07-17T10:59:26Z</time>
      </trkpt>
      <trkpt lat="44.41035" lon="6.08266">
        <ele>1321.9499512</ele>
        <time>2012-07-17T10:59:28Z</time>
      </trkpt>
      <trkpt lat="44.41069" lon="6.08279">
        <ele>1318.1047363</ele>
        <time>2012-07-17T10:59:36Z</time>
      </trkpt>
      <trkpt lat="44.41106" lon="6.08299">
        <ele>1315.2209473</ele>
        <time>2012-07-17T10:59:45Z</time>
      </trkpt>
      <trkpt lat="44.41118" lon="6.08306">
        <ele>1314.2595215</ele>
        <time>2012-07-17T10:59:48Z</time>
      </trkpt>
      <trkpt lat="44.41144" lon="6.08292">
        <ele>1311.3757324</ele>
        <time>2012-07-17T10:59:57Z</time>
      </trkpt>
      <trkpt lat="44.41154" lon="6.08271">
        <ele>1310.4143066</ele>
        <time>2012-07-17T11:00:02Z</time>
      </trkpt>
      <trkpt lat="44.41163" lon="6.08257">
        <ele>1309.9335938</ele>
        <time>2012-07-17T11:00:05Z</time>
      </trkpt>
      <trkpt lat="44.41171" lon="6.08251">
        <ele>1308.4916992</ele>
        <time>2012-07-17T11:00:07Z</time>
      </trkpt>
      <trkpt lat="44.41182" lon="6.08242">
        <ele>1307.0495605</ele>
        <time>2012-07-17T11:00:10Z</time>
      </trkpt>
      <trkpt lat="44.41209" lon="6.08219">
        <ele>1303.2043457</ele>
        <time>2012-07-17T11:00:18Z</time>
      </trkpt>
      <trkpt lat="44.41251" lon="6.08212">
        <ele>1299.8398438</ele>
        <time>2012-07-17T11:00:29Z</time>
      </trkpt>
      <trkpt lat="44.41282" lon="6.08215">
        <ele>1296.4753418</ele>
        <time>2012-07-17T11:00:36Z</time>
      </trkpt>
      <trkpt lat="44.41287" lon="6.08216">
        <ele>1296.4753418</ele>
        <time>2012-07-17T11:00:37Z</time>
      </trkpt>
      <trkpt lat="44.41305" lon="6.08221">
        <ele>1294.0720215</ele>
        <time>2012-07-17T11:00:41Z</time>
      </trkpt>
      <trkpt lat="44.41341" lon="6.08241">
        <ele>1291.1877441</ele>
        <time>2012-07-17T11:00:50Z</time>
      </trkpt>
      <trkpt lat="44.41348" lon="6.08248">
        <ele>1290.7070313</ele>
        <time>2012-07-17T11:00:52Z</time>
      </trkpt>
      <trkpt lat="44.41361" lon="6.08264">
        <ele>1289.2651367</ele>
        <time>2012-07-17T11:00:56Z</time>
      </trkpt>
      <trkpt lat="44.41381" lon="6.08297">
        <ele>1287.3425293</ele>
        <time>2012-07-17T11:01:04Z</time>
      </trkpt>
      <trkpt lat="44.414" lon="6.08303">
        <ele>1284.9394531</ele>
        <time>2012-07-17T11:01:10Z</time>
      </trkpt>
      <trkpt lat="44.41411" lon="6.08296">
        <ele>1283.9780273</ele>
        <time>2012-07-17T11:01:13Z</time>
      </trkpt>
      <trkpt lat="44.41416" lon="6.08292">
        <ele>1283.4973145</ele>
        <time>2012-07-17T11:01:15Z</time>
      </trkpt>
      <trkpt lat="44.41428" lon="6.08292">
        <ele>1281.574707</ele>
        <time>2012-07-17T11:01:19Z</time>
      </trkpt>
      <trkpt lat="44.41435" lon="6.08296">
        <ele>1281.0942383</ele>
        <time>2012-07-17T11:01:21Z</time>
      </trkpt>
      <trkpt lat="44.41443" lon="6.08301">
        <ele>1280.1328125</ele>
        <time>2012-07-17T11:01:23Z</time>
      </trkpt>
      <trkpt lat="44.41454" lon="6.08308">
        <ele>1278.690918</ele>
        <time>2012-07-17T11:01:26Z</time>
      </trkpt>
      <trkpt lat="44.41471" lon="6.08319">
        <ele>1277.2490234</ele>
        <time>2012-07-17T11:01:31Z</time>
      </trkpt>
      <trkpt lat="44.41488" lon="6.08326">
        <ele>1275.8066406</ele>
        <time>2012-07-17T11:01:35Z</time>
      </trkpt>
      <trkpt lat="44.41498" lon="6.08324">
        <ele>1275.3259277</ele>
        <time>2012-07-17T11:01:38Z</time>
      </trkpt>
      <trkpt lat="44.41498" lon="6.08276">
        <ele>1272.4421387</ele>
        <time>2012-07-17T11:01:48Z</time>
      </trkpt>
      <trkpt lat="44.41515" lon="6.08243">
        <ele>1270.5195313</ele>
        <time>2012-07-17T11:01:57Z</time>
      </trkpt>
      <trkpt lat="44.41531" lon="6.08247">
        <ele>1268.5969238</ele>
        <time>2012-07-17T11:02:07Z</time>
      </trkpt>
      <trkpt lat="44.41549" lon="6.08258">
        <ele>1268.1162109</ele>
        <time>2012-07-17T11:03:28Z</time>
      </trkpt>
      <trkpt lat="44.41569" lon="6.08279">
        <ele>1270.0388184</ele>
        <time>2012-07-17T11:03:45Z</time>
      </trkpt>
      <trkpt lat="44.41584" lon="6.08297">
        <ele>1271.9614258</ele>
        <time>2012-07-17T11:04:01Z</time>
      </trkpt>
      <trkpt lat="44.41601" lon="6.08313">
        <ele>1273.4035645</ele>
        <time>2012-07-17T11:04:17Z</time>
      </trkpt>
      <trkpt lat="44.41607" lon="6.08317">
        <ele>1274.3647461</ele>
        <time>2012-07-17T11:04:27Z</time>
      </trkpt>
      <trkpt lat="44.41624" lon="6.08329">
        <ele>1275.8066406</ele>
        <time>2012-07-17T11:04:40Z</time>
      </trkpt>
      <trkpt lat="44.41624" lon="6.08329">
        <ele>1276.7683105</ele>
        <time>2012-07-17T11:04:51Z</time>
      </trkpt>
      <trkpt lat="44.41652" lon="6.08342">
        <ele>1277.7294922</ele>
        <time>2012-07-17T11:05:05Z</time>
      </trkpt>
      <trkpt lat="44.41666" lon="6.08349">
        <ele>1278.690918</ele>
        <time>2012-07-17T11:05:17Z</time>
      </trkpt>
      <trkpt lat="44.41686" lon="6.0836">
        <ele>1280.1328125</ele>
        <time>2012-07-17T11:05:34Z</time>
      </trkpt>
      <trkpt lat="44.41693" lon="6.08363">
        <ele>1281.574707</ele>
        <time>2012-07-17T11:05:52Z</time>
      </trkpt>
      <trkpt lat="44.41693" lon="6.08363">
        <ele>1282.0554199</ele>
        <time>2012-07-17T11:05:55Z</time>
      </trkpt>
      <trkpt lat="44.41715" lon="6.0838">
        <ele>1283.0166016</ele>
        <time>2012-07-17T11:06:06Z</time>
      </trkpt>
      <trkpt lat="44.41731" lon="6.08393">
        <ele>1283.9780273</ele>
        <time>2012-07-17T11:06:18Z</time>
      </trkpt>
      <trkpt lat="44.41731" lon="6.08393">
        <ele>1284.4587402</ele>
        <time>2012-07-17T11:06:25Z</time>
      </trkpt>
      <trkpt lat="44.41758" lon="6.08409">
        <ele>1286.3813477</ele>
        <time>2012-07-17T11:06:39Z</time>
      </trkpt>
      <trkpt lat="44.41772" lon="6.08418">
        <ele>1286.8618164</ele>
        <time>2012-07-17T11:06:57Z</time>
      </trkpt>
      <trkpt lat="44.41772" lon="6.08418">
        <ele>1286.8618164</ele>
        <time>2012-07-17T11:06:58Z</time>
      </trkpt>
      <trkpt lat="44.41781" lon="6.08423">
        <ele>1287.3425293</ele>
        <time>2012-07-17T11:07:04Z</time>
      </trkpt>
      <trkpt lat="44.41783" lon="6.08425">
        <ele>1287.8232422</ele>
        <time>2012-07-17T11:07:07Z</time>
      </trkpt>
      <trkpt lat="44.41796" lon="6.08433">
        <ele>1288.784668</ele>
        <time>2012-07-17T11:07:18Z</time>
      </trkpt>
      <trkpt lat="44.41813" lon="6.08443">
        <ele>1290.7070313</ele>
        <time>2012-07-17T11:07:34Z</time>
      </trkpt>
      <trkpt lat="44.41813" lon="6.08443">
        <ele>1290.7070313</ele>
        <time>2012-07-17T11:07:36Z</time>
      </trkpt>
      <trkpt lat="44.41829" lon="6.08453">
        <ele>1292.1494141</ele>
        <time>2012-07-17T11:07:47Z</time>
      </trkpt>
      <trkpt lat="44.41832" lon="6.08454">
        <ele>1292.1494141</ele>
        <time>2012-07-17T11:07:49Z</time>
      </trkpt>
      <trkpt lat="44.41837" lon="6.08457">
        <ele>1293.1105957</ele>
        <time>2012-07-17T11:07:58Z</time>
      </trkpt>
      <trkpt lat="44.41861" lon="6.08467">
        <ele>1295.513916</ele>
        <time>2012-07-17T11:08:16Z</time>
      </trkpt>
      <trkpt lat="44.41861" lon="6.08467">
        <ele>1295.9946289</ele>
        <time>2012-07-17T11:08:19Z</time>
      </trkpt>
      <trkpt lat="44.41881" lon="6.0849">
        <ele>1296.9558105</ele>
        <time>2012-07-17T11:08:37Z</time>
      </trkpt>
      <trkpt lat="44.41907" lon="6.08483">
        <ele>1298.3977051</ele>
        <time>2012-07-17T11:08:55Z</time>
      </trkpt>
      <trkpt lat="44.41929" lon="6.0848">
        <ele>1300.8010254</ele>
        <time>2012-07-17T11:09:12Z</time>
      </trkpt>
      <trkpt lat="44.41946" lon="6.0848">
        <ele>1302.2429199</ele>
        <time>2012-07-17T11:09:26Z</time>
      </trkpt>
      <trkpt lat="44.41962" lon="6.08482">
        <ele>1303.6850586</ele>
        <time>2012-07-17T11:09:38Z</time>
      </trkpt>
      <trkpt lat="44.41976" lon="6.08484">
        <ele>1304.6462402</ele>
        <time>2012-07-17T11:09:48Z</time>
      </trkpt>
      <trkpt lat="44.4198" lon="6.08484">
        <ele>1305.1269531</ele>
        <time>2012-07-17T11:09:50Z</time>
      </trkpt>
      <trkpt lat="44.41996" lon="6.08487">
        <ele>1306.0881348</ele>
        <time>2012-07-17T11:10:03Z</time>
      </trkpt>
      <trkpt lat="44.41999" lon="6.08487">
        <ele>1307.0495605</ele>
        <time>2012-07-17T11:10:09Z</time>
      </trkpt>
      <trkpt lat="44.42018" lon="6.08484">
        <ele>1308.0112305</ele>
        <time>2012-07-17T11:10:20Z</time>
      </trkpt>
      <trkpt lat="44.42025" lon="6.08484">
        <ele>1309.453125</ele>
        <time>2012-07-17T11:10:33Z</time>
      </trkpt>
      <trkpt lat="44.42025" lon="6.08484">
        <ele>1309.453125</ele>
        <time>2012-07-17T11:10:36Z</time>
      </trkpt>
      <trkpt lat="44.4204" lon="6.08491">
        <ele>1309.453125</ele>
        <time>2012-07-17T11:10:39Z</time>
      </trkpt>
      <trkpt lat="44.42057" lon="6.08499">
        <ele>1311.3757324</ele>
        <time>2012-07-17T11:10:52Z</time>
      </trkpt>
      <trkpt lat="44.42077" lon="6.08497">
        <ele>1312.817627</ele>
        <time>2012-07-17T11:11:06Z</time>
      </trkpt>
      <trkpt lat="44.4208" lon="6.08497">
        <ele>1313.2983398</ele>
        <time>2012-07-17T11:11:09Z</time>
      </trkpt>
      <trkpt lat="44.42098" lon="6.08497">
        <ele>1314.7402344</ele>
        <time>2012-07-17T11:11:23Z</time>
      </trkpt>
      <trkpt lat="44.4212" lon="6.08491">
        <ele>1315.7016602</ele>
        <time>2012-07-17T11:11:39Z</time>
      </trkpt>
      <trkpt lat="44.42126" lon="6.08477">
        <ele>1317.1435547</ele>
        <time>2012-07-17T11:11:49Z</time>
      </trkpt>
      <trkpt lat="44.42128" lon="6.08466">
        <ele>1316.6628418</ele>
        <time>2012-07-17T11:11:51Z</time>
      </trkpt>
      <trkpt lat="44.42131" lon="6.08443">
        <ele>1318.1047363</ele>
        <time>2012-07-17T11:12:04Z</time>
      </trkpt>
      <trkpt lat="44.42132" lon="6.08437">
        <ele>1318.5854492</ele>
        <time>2012-07-17T11:12:08Z</time>
      </trkpt>
      <trkpt lat="44.42132" lon="6.08434">
        <ele>1318.5854492</ele>
        <time>2012-07-17T11:12:11Z</time>
      </trkpt>
      <trkpt lat="44.42133" lon="6.0843">
        <ele>1319.0661621</ele>
        <time>2012-07-17T11:12:16Z</time>
      </trkpt>
      <trkpt lat="44.4214" lon="6.0841">
        <ele>1319.0661621</ele>
        <time>2012-07-17T11:12:28Z</time>
      </trkpt>
      <trkpt lat="44.42148" lon="6.08409">
        <ele>1318.5854492</ele>
        <time>2012-07-17T11:12:34Z</time>
      </trkpt>
      <trkpt lat="44.42152" lon="6.08414">
        <ele>1318.1047363</ele>
        <time>2012-07-17T11:12:46Z</time>
      </trkpt>
      <trkpt lat="44.42152" lon="6.08414">
        <ele>1319.0661621</ele>
        <time>2012-07-17T11:13:21Z</time>
      </trkpt>
      <trkpt lat="44.42162" lon="6.08426">
        <ele>1318.1047363</ele>
        <time>2012-07-17T11:13:26Z</time>
      </trkpt>
      <trkpt lat="44.42167" lon="6.08441">
        <ele>1316.6628418</ele>
        <time>2012-07-17T11:13:30Z</time>
      </trkpt>
      <trkpt lat="44.42165" lon="6.08476">
        <ele>1313.7788086</ele>
        <time>2012-07-17T11:13:39Z</time>
      </trkpt>
      <trkpt lat="44.42165" lon="6.08479">
        <ele>1313.7788086</ele>
        <time>2012-07-17T11:13:40Z</time>
      </trkpt>
      <trkpt lat="44.42167" lon="6.08483">
        <ele>1314.2595215</ele>
        <time>2012-07-17T11:13:41Z</time>
      </trkpt>
      <trkpt lat="44.42189" lon="6.08486">
        <ele>1311.3757324</ele>
        <time>2012-07-17T11:13:51Z</time>
      </trkpt>
      <trkpt lat="44.42227" lon="6.08498">
        <ele>1307.5302734</ele>
        <time>2012-07-17T11:14:02Z</time>
      </trkpt>
      <trkpt lat="44.42257" lon="6.08505">
        <ele>1304.6462402</ele>
        <time>2012-07-17T11:14:13Z</time>
      </trkpt>
      <trkpt lat="44.42282" lon="6.08543">
        <ele>1302.7236328</ele>
        <time>2012-07-17T11:14:23Z</time>
      </trkpt>
      <trkpt lat="44.42294" lon="6.08559">
        <ele>1299.8398438</ele>
        <time>2012-07-17T11:14:28Z</time>
      </trkpt>
      <trkpt lat="44.42309" lon="6.08569">
        <ele>1300.3205566</ele>
        <time>2012-07-17T11:14:32Z</time>
      </trkpt>
      <trkpt lat="44.42326" lon="6.0857">
        <ele>1298.3977051</ele>
        <time>2012-07-17T11:14:37Z</time>
      </trkpt>
      <trkpt lat="44.42334" lon="6.0856">
        <ele>1296.9558105</ele>
        <time>2012-07-17T11:14:40Z</time>
      </trkpt>
      <trkpt lat="44.42337" lon="6.08556">
        <ele>1296.4753418</ele>
        <time>2012-07-17T11:14:41Z</time>
      </trkpt>
      <trkpt lat="44.4235" lon="6.0855">
        <ele>1295.0332031</ele>
        <time>2012-07-17T11:14:44Z</time>
      </trkpt>
      <trkpt lat="44.42378" lon="6.08558">
        <ele>1293.1105957</ele>
        <time>2012-07-17T11:14:53Z</time>
      </trkpt>
      <trkpt lat="44.42393" lon="6.08575">
        <ele>1294.0720215</ele>
        <time>2012-07-17T11:14:59Z</time>
      </trkpt>
      <trkpt lat="44.42397" lon="6.08583">
        <ele>1291.1877441</ele>
        <time>2012-07-17T11:15:01Z</time>
      </trkpt>
      <trkpt lat="44.42401" lon="6.08602">
        <ele>1290.2265625</ele>
        <time>2012-07-17T11:15:05Z</time>
      </trkpt>
      <trkpt lat="44.42403" lon="6.08619">
        <ele>1290.2265625</ele>
        <time>2012-07-17T11:15:09Z</time>
      </trkpt>
      <trkpt lat="44.42408" lon="6.08632">
        <ele>1288.784668</ele>
        <time>2012-07-17T11:15:12Z</time>
      </trkpt>
      <trkpt lat="44.42413" lon="6.08636">
        <ele>1288.784668</ele>
        <time>2012-07-17T11:15:13Z</time>
      </trkpt>
      <trkpt lat="44.42441" lon="6.08661">
        <ele>1285.4199219</ele>
        <time>2012-07-17T11:15:22Z</time>
      </trkpt>
      <trkpt lat="44.42455" lon="6.08676">
        <ele>1283.9780273</ele>
        <time>2012-07-17T11:15:26Z</time>
      </trkpt>
      <trkpt lat="44.42466" lon="6.08687">
        <ele>1283.4973145</ele>
        <time>2012-07-17T11:15:29Z</time>
      </trkpt>
      <trkpt lat="44.42499" lon="6.08706">
        <ele>1279.6520996</ele>
        <time>2012-07-17T11:15:41Z</time>
      </trkpt>
      <trkpt lat="44.4251" lon="6.08717">
        <ele>1278.2102051</ele>
        <time>2012-07-17T11:15:45Z</time>
      </trkpt>
      <trkpt lat="44.42535" lon="6.08758">
        <ele>1274.845459</ele>
        <time>2012-07-17T11:15:55Z</time>
      </trkpt>
      <trkpt lat="44.42542" lon="6.08774">
        <ele>1274.3647461</ele>
        <time>2012-07-17T11:15:59Z</time>
      </trkpt>
      <trkpt lat="44.42565" lon="6.08817">
        <ele>1271.0002441</ele>
        <time>2012-07-17T11:16:10Z</time>
      </trkpt>
      <trkpt lat="44.42568" lon="6.08822">
        <ele>1270.0388184</ele>
        <time>2012-07-17T11:16:12Z</time>
      </trkpt>
      <trkpt lat="44.42576" lon="6.08843">
        <ele>1269.0776367</ele>
        <time>2012-07-17T11:16:21Z</time>
      </trkpt>
      <trkpt lat="44.42579" lon="6.08853">
        <ele>1268.1162109</ele>
        <time>2012-07-17T11:16:25Z</time>
      </trkpt>
      <trkpt lat="44.42581" lon="6.08859">
        <ele>1267.1550293</ele>
        <time>2012-07-17T11:16:27Z</time>
      </trkpt>
      <trkpt lat="44.42622" lon="6.08881">
        <ele>1265.2324219</ele>
        <time>2012-07-17T11:16:36Z</time>
      </trkpt>
      <trkpt lat="44.42622" lon="6.08881">
        <ele>1264.751709</ele>
        <time>2012-07-17T11:16:37Z</time>
      </trkpt>
      <trkpt lat="44.42644" lon="6.08902">
        <ele>1262.8291016</ele>
        <time>2012-07-17T11:16:49Z</time>
      </trkpt>
      <trkpt lat="44.42651" lon="6.089">
        <ele>1262.8291016</ele>
        <time>2012-07-17T11:16:54Z</time>
      </trkpt>
      <trkpt lat="44.42669" lon="6.08885">
        <ele>1260.4257813</ele>
        <time>2012-07-17T11:17:03Z</time>
      </trkpt>
      <trkpt lat="44.42684" lon="6.08891">
        <ele>1259.9448242</ele>
        <time>2012-07-17T11:17:15Z</time>
      </trkpt>
      <trkpt lat="44.42684" lon="6.08891">
        <ele>1259.4643555</ele>
        <time>2012-07-17T11:17:42Z</time>
      </trkpt>
      <trkpt lat="44.42696" lon="6.08898">
        <ele>1261.387207</ele>
        <time>2012-07-17T11:17:47Z</time>
      </trkpt>
      <trkpt lat="44.42707" lon="6.08903">
        <ele>1258.5029297</ele>
        <time>2012-07-17T11:17:50Z</time>
      </trkpt>
      <trkpt lat="44.42712" lon="6.08906">
        <ele>1257.541748</ele>
        <time>2012-07-17T11:17:52Z</time>
      </trkpt>
      <trkpt lat="44.42726" lon="6.08888">
        <ele>1258.5029297</ele>
        <time>2012-07-17T11:17:57Z</time>
      </trkpt>
      <trkpt lat="44.42729" lon="6.0888">
        <ele>1256.5803223</ele>
        <time>2012-07-17T11:17:59Z</time>
      </trkpt>
      <trkpt lat="44.42742" lon="6.08866">
        <ele>1256.5803223</ele>
        <time>2012-07-17T11:18:03Z</time>
      </trkpt>
      <trkpt lat="44.42755" lon="6.08863">
        <ele>1256.5803223</ele>
        <time>2012-07-17T11:18:06Z</time>
      </trkpt>
      <trkpt lat="44.42764" lon="6.08861">
        <ele>1255.1384277</ele>
        <time>2012-07-17T11:18:08Z</time>
      </trkpt>
      <trkpt lat="44.42771" lon="6.08859">
        <ele>1254.1772461</ele>
        <time>2012-07-17T11:18:10Z</time>
      </trkpt>
      <trkpt lat="44.42785" lon="6.0884">
        <ele>1255.6191406</ele>
        <time>2012-07-17T11:18:15Z</time>
      </trkpt>
      <trkpt lat="44.42787" lon="6.0883">
        <ele>1254.6577148</ele>
        <time>2012-07-17T11:18:17Z</time>
      </trkpt>
      <trkpt lat="44.4279" lon="6.0882">
        <ele>1251.7739258</ele>
        <time>2012-07-17T11:18:19Z</time>
      </trkpt>
      <trkpt lat="44.42798" lon="6.08812">
        <ele>1253.2158203</ele>
        <time>2012-07-17T11:18:22Z</time>
      </trkpt>
      <trkpt lat="44.42801" lon="6.0881">
        <ele>1253.2158203</ele>
        <time>2012-07-17T11:18:23Z</time>
      </trkpt>
      <trkpt lat="44.42814" lon="6.08814">
        <ele>1251.7739258</ele>
        <time>2012-07-17T11:18:27Z</time>
      </trkpt>
      <trkpt lat="44.42832" lon="6.08809">
        <ele>1249.3706055</ele>
        <time>2012-07-17T11:18:31Z</time>
      </trkpt>
      <trkpt lat="44.42838" lon="6.08802">
        <ele>1250.8125</ele>
        <time>2012-07-17T11:18:33Z</time>
      </trkpt>
      <trkpt lat="44.42867" lon="6.08806">
        <ele>1249.8513184</ele>
        <time>2012-07-17T11:18:43Z</time>
      </trkpt>
      <trkpt lat="44.42883" lon="6.08796">
        <ele>1249.3706055</ele>
        <time>2012-07-17T11:18:49Z</time>
      </trkpt>
      <trkpt lat="44.42894" lon="6.08796">
        <ele>1247.9287109</ele>
        <time>2012-07-17T11:18:53Z</time>
      </trkpt>
      <trkpt lat="44.42904" lon="6.08808">
        <ele>1247.447998</ele>
        <time>2012-07-17T11:18:57Z</time>
      </trkpt>
      <trkpt lat="44.42912" lon="6.08814">
        <ele>1245.5253906</ele>
        <time>2012-07-17T11:18:59Z</time>
      </trkpt>
      <trkpt lat="44.42926" lon="6.08813">
        <ele>1246.4868164</ele>
        <time>2012-07-17T11:19:02Z</time>
      </trkpt>
      <trkpt lat="44.42949" lon="6.08809">
        <ele>1244.5639648</ele>
        <time>2012-07-17T11:19:07Z</time>
      </trkpt>
      <trkpt lat="44.4296" lon="6.08797">
        <ele>1245.5253906</ele>
        <time>2012-07-17T11:19:10Z</time>
      </trkpt>
      <trkpt lat="44.4297" lon="6.08788">
        <ele>1243.6025391</ele>
        <time>2012-07-17T11:19:13Z</time>
      </trkpt>
      <trkpt lat="44.43012" lon="6.08794">
        <ele>1241.6799316</ele>
        <time>2012-07-17T11:19:25Z</time>
      </trkpt>
      <trkpt lat="44.43026" lon="6.08796">
        <ele>1240.2380371</ele>
        <time>2012-07-17T11:19:29Z</time>
      </trkpt>
      <trkpt lat="44.43054" lon="6.0878">
        <ele>1238.3154297</ele>
        <time>2012-07-17T11:19:38Z</time>
      </trkpt>
      <trkpt lat="44.43084" lon="6.08789">
        <ele>1237.8347168</ele>
        <time>2012-07-17T11:19:48Z</time>
      </trkpt>
      <trkpt lat="44.43105" lon="6.08807">
        <ele>1237.8347168</ele>
        <time>2012-07-17T11:19:55Z</time>
      </trkpt>
      <trkpt lat="44.43116" lon="6.088">
        <ele>1237.8347168</ele>
        <time>2012-07-17T11:20:00Z</time>
      </trkpt>
      <trkpt lat="44.43142" lon="6.08777">
        <ele>1238.3154297</ele>
        <time>2012-07-17T11:20:13Z</time>
      </trkpt>
      <trkpt lat="44.43175" lon="6.08796">
        <ele>1238.7961426</ele>
        <time>2012-07-17T11:20:27Z</time>
      </trkpt>
      <trkpt lat="44.43204" lon="6.08802">
        <ele>1240.7185059</ele>
        <time>2012-07-17T11:20:39Z</time>
      </trkpt>
      <trkpt lat="44.43226" lon="6.08806">
        <ele>1241.1992188</ele>
        <time>2012-07-17T11:20:49Z</time>
      </trkpt>
      <trkpt lat="44.4325" lon="6.08819">
        <ele>1242.6413574</ele>
        <time>2012-07-17T11:21:02Z</time>
      </trkpt>
      <trkpt lat="44.43277" lon="6.08823">
        <ele>1243.1218262</ele>
        <time>2012-07-17T11:21:14Z</time>
      </trkpt>
      <trkpt lat="44.43306" lon="6.08823">
        <ele>1244.0834961</ele>
        <time>2012-07-17T11:21:27Z</time>
      </trkpt>
      <trkpt lat="44.4333" lon="6.08823">
        <ele>1245.5253906</ele>
        <time>2012-07-17T11:21:41Z</time>
      </trkpt>
      <trkpt lat="44.43358" lon="6.08837">
        <ele>1247.9287109</ele>
        <time>2012-07-17T11:21:57Z</time>
      </trkpt>
      <trkpt lat="44.43375" lon="6.08856">
        <ele>1247.447998</ele>
        <time>2012-07-17T11:22:08Z</time>
      </trkpt>
      <trkpt lat="44.43396" lon="6.08924">
        <ele>1245.5253906</ele>
        <time>2012-07-17T11:22:25Z</time>
      </trkpt>
      <trkpt lat="44.43397" lon="6.08933">
        <ele>1245.5253906</ele>
        <time>2012-07-17T11:22:27Z</time>
      </trkpt>
      <trkpt lat="44.43397" lon="6.0896">
        <ele>1245.0446777</ele>
        <time>2012-07-17T11:22:35Z</time>
      </trkpt>
      <trkpt lat="44.434" lon="6.09013">
        <ele>1243.6025391</ele>
        <time>2012-07-17T11:22:50Z</time>
      </trkpt>
      <trkpt lat="44.43401" lon="6.09022">
        <ele>1244.0834961</ele>
        <time>2012-07-17T11:22:53Z</time>
      </trkpt>
      <trkpt lat="44.43402" lon="6.09059">
        <ele>1242.6413574</ele>
        <time>2012-07-17T11:23:03Z</time>
      </trkpt>
      <trkpt lat="44.43403" lon="6.09116">
        <ele>1242.1606445</ele>
        <time>2012-07-17T11:23:17Z</time>
      </trkpt>
      <trkpt lat="44.43406" lon="6.09136">
        <ele>1241.6799316</ele>
        <time>2012-07-17T11:23:22Z</time>
      </trkpt>
      <trkpt lat="44.43414" lon="6.0916">
        <ele>1241.1992188</ele>
        <time>2012-07-17T11:23:28Z</time>
      </trkpt>
      <trkpt lat="44.43421" lon="6.09185">
        <ele>1241.1992188</ele>
        <time>2012-07-17T11:23:34Z</time>
      </trkpt>
      <trkpt lat="44.43434" lon="6.09243">
        <ele>1239.7573242</ele>
        <time>2012-07-17T11:23:46Z</time>
      </trkpt>
      <trkpt lat="44.43446" lon="6.09297">
        <ele>1238.7961426</ele>
        <time>2012-07-17T11:23:57Z</time>
      </trkpt>
      <trkpt lat="44.43454" lon="6.09347">
        <ele>1237.8347168</ele>
        <time>2012-07-17T11:24:07Z</time>
      </trkpt>
      <trkpt lat="44.43472" lon="6.09363">
        <ele>1237.8347168</ele>
        <time>2012-07-17T11:24:13Z</time>
      </trkpt>
      <trkpt lat="44.43472" lon="6.09371">
        <ele>1239.2766113</ele>
        <time>2012-07-17T11:24:23Z</time>
      </trkpt>
      <trkpt lat="44.43472" lon="6.09371">
        <ele>1240.7185059</ele>
        <time>2012-07-17T11:24:35Z</time>
      </trkpt>
      <trkpt lat="44.43472" lon="6.09371">
        <ele>1238.7961426</ele>
        <time>2012-07-17T11:24:40Z</time>
      </trkpt>
      <trkpt lat="44.43472" lon="6.09371">
        <ele>1240.2380371</ele>
        <time>2012-07-17T11:24:42Z</time>
      </trkpt>
      <trkpt lat="44.43472" lon="6.09371">
        <ele>1239.2766113</ele>
        <time>2012-07-17T11:25:42Z</time>
      </trkpt>
      <trkpt lat="44.43472" lon="6.09371">
        <ele>1238.3154297</ele>
        <time>2012-07-17T11:25:54Z</time>
      </trkpt>
      <trkpt lat="44.43477" lon="6.09388">
        <ele>1239.7573242</ele>
        <time>2012-07-17T11:26:02Z</time>
      </trkpt>
      <trkpt lat="44.43486" lon="6.09397">
        <ele>1238.7961426</ele>
        <time>2012-07-17T11:26:08Z</time>
      </trkpt>
      <trkpt lat="44.43493" lon="6.09406">
        <ele>1240.2380371</ele>
        <time>2012-07-17T11:26:14Z</time>
      </trkpt>
      <trkpt lat="44.43496" lon="6.09412">
        <ele>1240.2380371</ele>
        <time>2012-07-17T11:26:18Z</time>
      </trkpt>
      <trkpt lat="44.43497" lon="6.09418">
        <ele>1241.6799316</ele>
        <time>2012-07-17T11:26:20Z</time>
      </trkpt>
      <trkpt lat="44.435" lon="6.09432">
        <ele>1241.6799316</ele>
        <time>2012-07-17T11:26:27Z</time>
      </trkpt>
      <trkpt lat="44.43503" lon="6.09443">
        <ele>1242.1606445</ele>
        <time>2012-07-17T11:26:32Z</time>
      </trkpt>
      <trkpt lat="44.43503" lon="6.09455">
        <ele>1241.1992188</ele>
        <time>2012-07-17T11:26:34Z</time>
      </trkpt>
      <trkpt lat="44.43502" lon="6.09466">
        <ele>1242.6413574</ele>
        <time>2012-07-17T11:26:40Z</time>
      </trkpt>
      <trkpt lat="44.43502" lon="6.09466">
        <ele>1243.6025391</ele>
        <time>2012-07-17T11:26:55Z</time>
      </trkpt>
      <trkpt lat="44.43502" lon="6.09496">
        <ele>1243.6025391</ele>
        <time>2012-07-17T11:27:02Z</time>
      </trkpt>
      <trkpt lat="44.43502" lon="6.09496">
        <ele>1245.0446777</ele>
        <time>2012-07-17T11:27:05Z</time>
      </trkpt>
      <trkpt lat="44.43502" lon="6.09496">
        <ele>1246.4868164</ele>
        <time>2012-07-17T11:27:15Z</time>
      </trkpt>
      <trkpt lat="44.43494" lon="6.09519">
        <ele>1247.9287109</ele>
        <time>2012-07-17T11:27:23Z</time>
      </trkpt>
      <trkpt lat="44.4349" lon="6.09527">
        <ele>1248.8898926</ele>
        <time>2012-07-17T11:27:36Z</time>
      </trkpt>
      <trkpt lat="44.43483" lon="6.09545">
        <ele>1250.8125</ele>
        <time>2012-07-17T11:27:48Z</time>
      </trkpt>
      <trkpt lat="44.43476" lon="6.09558">
        <ele>1253.2158203</ele>
        <time>2012-07-17T11:28:04Z</time>
      </trkpt>
      <trkpt lat="44.43468" lon="6.09572">
        <ele>1255.1384277</ele>
        <time>2012-07-17T11:28:20Z</time>
      </trkpt>
      <trkpt lat="44.43459" lon="6.09585">
        <ele>1255.6191406</ele>
        <time>2012-07-17T11:28:24Z</time>
      </trkpt>
      <trkpt lat="44.43455" lon="6.0959">
        <ele>1258.0224609</ele>
        <time>2012-07-17T11:28:42Z</time>
      </trkpt>
      <trkpt lat="44.43455" lon="6.0959">
        <ele>1259.9448242</ele>
        <time>2012-07-17T11:28:57Z</time>
      </trkpt>
      <trkpt lat="44.43455" lon="6.0959">
        <ele>1261.387207</ele>
        <time>2012-07-17T11:29:08Z</time>
      </trkpt>
      <trkpt lat="44.43425" lon="6.09626">
        <ele>1263.3098145</ele>
        <time>2012-07-17T11:29:26Z</time>
      </trkpt>
      <trkpt lat="44.43425" lon="6.09626">
        <ele>1263.7902832</ele>
        <time>2012-07-17T11:29:32Z</time>
      </trkpt>
      <trkpt lat="44.43425" lon="6.09626">
        <ele>1265.2324219</ele>
        <time>2012-07-17T11:29:42Z</time>
      </trkpt>
      <trkpt lat="44.43387" lon="6.09686">
        <ele>1266.6743164</ele>
        <time>2012-07-17T11:29:55Z</time>
      </trkpt>
      <trkpt lat="44.43387" lon="6.09686">
        <ele>1266.6743164</ele>
        <time>2012-07-17T11:29:56Z</time>
      </trkpt>
      <trkpt lat="44.43387" lon="6.09686">
        <ele>1267.635498</ele>
        <time>2012-07-17T11:30:01Z</time>
      </trkpt>
      <trkpt lat="44.43381" lon="6.09704">
        <ele>1269.0776367</ele>
        <time>2012-07-17T11:30:14Z</time>
      </trkpt>
      <trkpt lat="44.43381" lon="6.09704">
        <ele>1270.0388184</ele>
        <time>2012-07-17T11:30:19Z</time>
      </trkpt>
      <trkpt lat="44.4337" lon="6.09728">
        <ele>1271.4807129</ele>
        <time>2012-07-17T11:30:30Z</time>
      </trkpt>
      <trkpt lat="44.43368" lon="6.09731">
        <ele>1271.4807129</ele>
        <time>2012-07-17T11:30:31Z</time>
      </trkpt>
      <trkpt lat="44.43367" lon="6.09733">
        <ele>1273.4035645</ele>
        <time>2012-07-17T11:30:42Z</time>
      </trkpt>
      <trkpt lat="44.43355" lon="6.09742">
        <ele>1273.8840332</ele>
        <time>2012-07-17T11:30:50Z</time>
      </trkpt>
      <trkpt lat="44.43355" lon="6.09742">
        <ele>1275.3259277</ele>
        <time>2012-07-17T11:31:04Z</time>
      </trkpt>
      <trkpt lat="44.43335" lon="6.09757">
        <ele>1277.2490234</ele>
        <time>2012-07-17T11:31:15Z</time>
      </trkpt>
      <trkpt lat="44.43335" lon="6.09757">
        <ele>1278.2102051</ele>
        <time>2012-07-17T11:31:29Z</time>
      </trkpt>
      <trkpt lat="44.43335" lon="6.09757">
        <ele>1279.6520996</ele>
        <time>2012-07-17T11:31:36Z</time>
      </trkpt>
      <trkpt lat="44.43335" lon="6.09757">
        <ele>1282.0554199</ele>
        <time>2012-07-17T11:31:39Z</time>
      </trkpt>
      <trkpt lat="44.43335" lon="6.09757">
        <ele>1279.1713867</ele>
        <time>2012-07-17T11:31:43Z</time>
      </trkpt>
      <trkpt lat="44.43335" lon="6.09757">
        <ele>1278.690918</ele>
        <time>2012-07-17T11:32:18Z</time>
      </trkpt>
      <trkpt lat="44.43335" lon="6.09757">
        <ele>1282.0554199</ele>
        <time>2012-07-17T11:32:29Z</time>
      </trkpt>
      <trkpt lat="44.43335" lon="6.09757">
        <ele>1282.0554199</ele>
        <time>2012-07-17T11:32:30Z</time>
      </trkpt>
      <trkpt lat="44.43335" lon="6.09757">
        <ele>1279.1713867</ele>
        <time>2012-07-17T11:32:35Z</time>
      </trkpt>
      <trkpt lat="44.43335" lon="6.09757">
        <ele>1278.690918</ele>
        <time>2012-07-17T11:32:41Z</time>
      </trkpt>
      <trkpt lat="44.43335" lon="6.09757">
        <ele>1280.1328125</ele>
        <time>2012-07-17T11:32:53Z</time>
      </trkpt>
      <trkpt lat="44.43335" lon="6.09757">
        <ele>1279.6520996</ele>
        <time>2012-07-17T11:32:57Z</time>
      </trkpt>
      <trkpt lat="44.43335" lon="6.09757">
        <ele>1280.6135254</ele>
        <time>2012-07-17T11:33:13Z</time>
      </trkpt>
      <trkpt lat="44.43335" lon="6.09757">
        <ele>1281.574707</ele>
        <time>2012-07-17T11:33:30Z</time>
      </trkpt>
      <trkpt lat="44.43335" lon="6.09757">
        <ele>1279.6520996</ele>
        <time>2012-07-17T11:33:43Z</time>
      </trkpt>
      <trkpt lat="44.43335" lon="6.09757">
        <ele>1281.574707</ele>
        <time>2012-07-17T11:33:48Z</time>
      </trkpt>
      <trkpt lat="44.43335" lon="6.09757">
        <ele>1283.0166016</ele>
        <time>2012-07-17T11:33:51Z</time>
      </trkpt>
      <trkpt lat="44.43335" lon="6.09757">
        <ele>1282.5361328</ele>
        <time>2012-07-17T11:34:05Z</time>
      </trkpt>
      <trkpt lat="44.43335" lon="6.09757">
        <ele>1280.6135254</ele>
        <time>2012-07-17T11:34:12Z</time>
      </trkpt>
      <trkpt lat="44.43335" lon="6.09757">
        <ele>1283.0166016</ele>
        <time>2012-07-17T11:34:32Z</time>
      </trkpt>
      <trkpt lat="44.43335" lon="6.09757">
        <ele>1282.0554199</ele>
        <time>2012-07-17T11:34:38Z</time>
      </trkpt>
      <trkpt lat="44.43298" lon="6.09781">
        <ele>1284.9394531</ele>
        <time>2012-07-17T11:34:48Z</time>
      </trkpt>
      <trkpt lat="44.43282" lon="6.0979">
        <ele>1284.9394531</ele>
        <time>2012-07-17T11:34:58Z</time>
      </trkpt>
      <trkpt lat="44.43278" lon="6.09809">
        <ele>1284.9394531</ele>
        <time>2012-07-17T11:35:00Z</time>
      </trkpt>
      <trkpt lat="44.43274" lon="6.09825">
        <ele>1286.3813477</ele>
        <time>2012-07-17T11:35:12Z</time>
      </trkpt>
      <trkpt lat="44.43259" lon="6.09846">
        <ele>1289.2651367</ele>
        <time>2012-07-17T11:35:30Z</time>
      </trkpt>
      <trkpt lat="44.43258" lon="6.0986">
        <ele>1291.1877441</ele>
        <time>2012-07-17T11:35:40Z</time>
      </trkpt>
      <trkpt lat="44.43255" lon="6.09873">
        <ele>1291.1877441</ele>
        <time>2012-07-17T11:35:50Z</time>
      </trkpt>
      <trkpt lat="44.43255" lon="6.09896">
        <ele>1293.1105957</ele>
        <time>2012-07-17T11:36:08Z</time>
      </trkpt>
      <trkpt lat="44.43259" lon="6.09931">
        <ele>1295.0332031</ele>
        <time>2012-07-17T11:36:26Z</time>
      </trkpt>
      <trkpt lat="44.43258" lon="6.09939">
        <ele>1296.9558105</ele>
        <time>2012-07-17T11:36:32Z</time>
      </trkpt>
      <trkpt lat="44.43256" lon="6.09955">
        <ele>1297.4365234</ele>
        <time>2012-07-17T11:36:45Z</time>
      </trkpt>
      <trkpt lat="44.4326" lon="6.09976">
        <ele>1299.8398438</ele>
        <time>2012-07-17T11:37:01Z</time>
      </trkpt>
      <trkpt lat="44.43263" lon="6.09999">
        <ele>1301.7624512</ele>
        <time>2012-07-17T11:37:18Z</time>
      </trkpt>
      <trkpt lat="44.43262" lon="6.10005">
        <ele>1302.2429199</ele>
        <time>2012-07-17T11:37:22Z</time>
      </trkpt>
      <trkpt lat="44.43259" lon="6.1002">
        <ele>1303.2043457</ele>
        <time>2012-07-17T11:37:29Z</time>
      </trkpt>
      <trkpt lat="44.43256" lon="6.10033">
        <ele>1304.6462402</ele>
        <time>2012-07-17T11:37:40Z</time>
      </trkpt>
      <trkpt lat="44.43251" lon="6.10037">
        <ele>1305.1269531</ele>
        <time>2012-07-17T11:37:43Z</time>
      </trkpt>
      <trkpt lat="44.43247" lon="6.10042">
        <ele>1307.0495605</ele>
        <time>2012-07-17T11:37:47Z</time>
      </trkpt>
      <trkpt lat="44.43247" lon="6.10046">
        <ele>1306.0881348</ele>
        <time>2012-07-17T11:37:50Z</time>
      </trkpt>
      <trkpt lat="44.43249" lon="6.10051">
        <ele>1306.0881348</ele>
        <time>2012-07-17T11:37:52Z</time>
      </trkpt>
      <trkpt lat="44.43244" lon="6.1006">
        <ele>1308.4916992</ele>
        <time>2012-07-17T11:37:58Z</time>
      </trkpt>
      <trkpt lat="44.43242" lon="6.10065">
        <ele>1307.5302734</ele>
        <time>2012-07-17T11:38:01Z</time>
      </trkpt>
      <trkpt lat="44.4324" lon="6.10075">
        <ele>1308.9724121</ele>
        <time>2012-07-17T11:38:08Z</time>
      </trkpt>
      <trkpt lat="44.43235" lon="6.10089">
        <ele>1309.9335938</ele>
        <time>2012-07-17T11:38:20Z</time>
      </trkpt>
      <trkpt lat="44.43227" lon="6.10116">
        <ele>1312.3369141</ele>
        <time>2012-07-17T11:38:36Z</time>
      </trkpt>
      <trkpt lat="44.43225" lon="6.10121">
        <ele>1312.817627</ele>
        <time>2012-07-17T11:38:42Z</time>
      </trkpt>
      <trkpt lat="44.4322" lon="6.10131">
        <ele>1314.2595215</ele>
        <time>2012-07-17T11:38:52Z</time>
      </trkpt>
      <trkpt lat="44.43212" lon="6.10154">
        <ele>1316.6628418</ele>
        <time>2012-07-17T11:39:11Z</time>
      </trkpt>
      <trkpt lat="44.43212" lon="6.10156">
        <ele>1316.6628418</ele>
        <time>2012-07-17T11:39:12Z</time>
      </trkpt>
      <trkpt lat="44.43208" lon="6.10167">
        <ele>1317.6240234</ele>
        <time>2012-07-17T11:39:19Z</time>
      </trkpt>
      <trkpt lat="44.43207" lon="6.10177">
        <ele>1319.0661621</ele>
        <time>2012-07-17T11:39:28Z</time>
      </trkpt>
      <trkpt lat="44.43198" lon="6.10206">
        <ele>1322.911377</ele>
        <time>2012-07-17T11:39:48Z</time>
      </trkpt>
      <trkpt lat="44.43194" lon="6.10238">
        <ele>1323.8725586</ele>
        <time>2012-07-17T11:40:04Z</time>
      </trkpt>
      <trkpt lat="44.43186" lon="6.10249">
        <ele>1325.7954102</ele>
        <time>2012-07-17T11:40:15Z</time>
      </trkpt>
      <trkpt lat="44.43182" lon="6.10265">
        <ele>1326.7568359</ele>
        <time>2012-07-17T11:40:26Z</time>
      </trkpt>
      <trkpt lat="44.43177" lon="6.10274">
        <ele>1327.7180176</ele>
        <time>2012-07-17T11:40:33Z</time>
      </trkpt>
      <trkpt lat="44.43165" lon="6.10294">
        <ele>1328.6794434</ele>
        <time>2012-07-17T11:40:46Z</time>
      </trkpt>
      <trkpt lat="44.43159" lon="6.10302">
        <ele>1329.640625</ele>
        <time>2012-07-17T11:40:51Z</time>
      </trkpt>
      <trkpt lat="44.43157" lon="6.10305">
        <ele>1329.1599121</ele>
        <time>2012-07-17T11:40:53Z</time>
      </trkpt>
      <trkpt lat="44.43155" lon="6.10311">
        <ele>1329.1599121</ele>
        <time>2012-07-17T11:40:56Z</time>
      </trkpt>
      <trkpt lat="44.43155" lon="6.10341">
        <ele>1330.6020508</ele>
        <time>2012-07-17T11:41:10Z</time>
      </trkpt>
      <trkpt lat="44.43154" lon="6.10343">
        <ele>1330.6020508</ele>
        <time>2012-07-17T11:41:12Z</time>
      </trkpt>
      <trkpt lat="44.43151" lon="6.10351">
        <ele>1331.5632324</ele>
        <time>2012-07-17T11:41:19Z</time>
      </trkpt>
      <trkpt lat="44.43157" lon="6.10375">
        <ele>1333.005127</ele>
        <time>2012-07-17T11:41:34Z</time>
      </trkpt>
      <trkpt lat="44.43172" lon="6.10406">
        <ele>1334.9279785</ele>
        <time>2012-07-17T11:41:56Z</time>
      </trkpt>
      <trkpt lat="44.43184" lon="6.10428">
        <ele>1337.3310547</ele>
        <time>2012-07-17T11:42:12Z</time>
      </trkpt>
      <trkpt lat="44.43191" lon="6.10445">
        <ele>1338.7731934</ele>
        <time>2012-07-17T11:42:29Z</time>
      </trkpt>
      <trkpt lat="44.43199" lon="6.10468">
        <ele>1340.215332</ele>
        <time>2012-07-17T11:42:44Z</time>
      </trkpt>
      <trkpt lat="44.43202" lon="6.10482">
        <ele>1341.1765137</ele>
        <time>2012-07-17T11:42:53Z</time>
      </trkpt>
      <trkpt lat="44.43206" lon="6.10497">
        <ele>1342.1379395</ele>
        <time>2012-07-17T11:43:01Z</time>
      </trkpt>
      <trkpt lat="44.43205" lon="6.10502">
        <ele>1342.1379395</ele>
        <time>2012-07-17T11:43:04Z</time>
      </trkpt>
      <trkpt lat="44.43198" lon="6.10507">
        <ele>1342.6186523</ele>
        <time>2012-07-17T11:43:09Z</time>
      </trkpt>
      <trkpt lat="44.43197" lon="6.10516">
        <ele>1343.579834</ele>
        <time>2012-07-17T11:43:15Z</time>
      </trkpt>
      <trkpt lat="44.43195" lon="6.10525">
        <ele>1344.0605469</ele>
        <time>2012-07-17T11:43:22Z</time>
      </trkpt>
      <trkpt lat="44.43195" lon="6.10525">
        <ele>1344.5410156</ele>
        <time>2012-07-17T11:43:24Z</time>
      </trkpt>
      <trkpt lat="44.43195" lon="6.10525">
        <ele>1345.5024414</ele>
        <time>2012-07-17T11:43:35Z</time>
      </trkpt>
      <trkpt lat="44.43195" lon="6.10525">
        <ele>1345.9831543</ele>
        <time>2012-07-17T11:43:40Z</time>
      </trkpt>
      <trkpt lat="44.43198" lon="6.10562">
        <ele>1346.9443359</ele>
        <time>2012-07-17T11:43:49Z</time>
      </trkpt>
      <trkpt lat="44.43198" lon="6.10569">
        <ele>1346.9443359</ele>
        <time>2012-07-17T11:43:54Z</time>
      </trkpt>
      <trkpt lat="44.43199" lon="6.10579">
        <ele>1347.9057617</ele>
        <time>2012-07-17T11:44:00Z</time>
      </trkpt>
      <trkpt lat="44.43198" lon="6.10584">
        <ele>1348.8669434</ele>
        <time>2012-07-17T11:44:14Z</time>
      </trkpt>
      <trkpt lat="44.43187" lon="6.10619">
        <ele>1350.7895508</ele>
        <time>2012-07-17T11:44:29Z</time>
      </trkpt>
      <trkpt lat="44.43187" lon="6.10619">
        <ele>1350.7895508</ele>
        <time>2012-07-17T11:44:35Z</time>
      </trkpt>
      <trkpt lat="44.43187" lon="6.10619">
        <ele>1352.2314453</ele>
        <time>2012-07-17T11:44:42Z</time>
      </trkpt>
      <trkpt lat="44.43187" lon="6.10619">
        <ele>1352.7121582</ele>
        <time>2012-07-17T11:44:54Z</time>
      </trkpt>
      <trkpt lat="44.43187" lon="6.10619">
        <ele>1352.7121582</ele>
        <time>2012-07-17T11:45:06Z</time>
      </trkpt>
      <trkpt lat="44.43187" lon="6.10619">
        <ele>1355.5961914</ele>
        <time>2012-07-17T11:45:14Z</time>
      </trkpt>
      <trkpt lat="44.43187" lon="6.10619">
        <ele>1357.0383301</ele>
        <time>2012-07-17T11:45:26Z</time>
      </trkpt>
      <trkpt lat="44.43187" lon="6.10619">
        <ele>1358.4802246</ele>
        <time>2012-07-17T11:45:35Z</time>
      </trkpt>
      <trkpt lat="44.43187" lon="6.10619">
        <ele>1357.519043</ele>
        <time>2012-07-17T11:46:39Z</time>
      </trkpt>
      <trkpt lat="44.43187" lon="6.10619">
        <ele>1357.9997559</ele>
        <time>2012-07-17T11:47:16Z</time>
      </trkpt>
      <trkpt lat="44.43187" lon="6.10619">
        <ele>1357.0383301</ele>
        <time>2012-07-17T11:48:33Z</time>
      </trkpt>
      <trkpt lat="44.43187" lon="6.10619">
        <ele>1357.519043</ele>
        <time>2012-07-17T11:50:08Z</time>
      </trkpt>
      <trkpt lat="44.43162" lon="6.107">
        <ele>1356.5576172</ele>
        <time>2012-07-17T11:50:17Z</time>
      </trkpt>
      <trkpt lat="44.43153" lon="6.10701">
        <ele>1357.0383301</ele>
        <time>2012-07-17T11:50:22Z</time>
      </trkpt>
      <trkpt lat="44.43155" lon="6.10705">
        <ele>1358.9609375</ele>
        <time>2012-07-17T11:50:37Z</time>
      </trkpt>
      <trkpt lat="44.43155" lon="6.10705">
        <ele>1360.402832</ele>
        <time>2012-07-17T11:50:44Z</time>
      </trkpt>
      <trkpt lat="44.43146" lon="6.10754">
        <ele>1361.8449707</ele>
        <time>2012-07-17T11:51:00Z</time>
      </trkpt>
      <trkpt lat="44.43145" lon="6.10774">
        <ele>1363.767334</ele>
        <time>2012-07-17T11:51:15Z</time>
      </trkpt>
      <trkpt lat="44.43144" lon="6.10781">
        <ele>1364.7287598</ele>
        <time>2012-07-17T11:51:19Z</time>
      </trkpt>
      <trkpt lat="44.43144" lon="6.10796">
        <ele>1365.2094727</ele>
        <time>2012-07-17T11:51:26Z</time>
      </trkpt>
      <trkpt lat="44.4315" lon="6.10817">
        <ele>1366.6513672</ele>
        <time>2012-07-17T11:51:42Z</time>
      </trkpt>
      <trkpt lat="44.43155" lon="6.10843">
        <ele>1367.6125488</ele>
        <time>2012-07-17T11:51:57Z</time>
      </trkpt>
      <trkpt lat="44.43158" lon="6.1087">
        <ele>1369.0546875</ele>
        <time>2012-07-17T11:52:12Z</time>
      </trkpt>
      <trkpt lat="44.43159" lon="6.10875">
        <ele>1369.0546875</ele>
        <time>2012-07-17T11:52:14Z</time>
      </trkpt>
      <trkpt lat="44.43163" lon="6.10898">
        <ele>1370.0158691</ele>
        <time>2012-07-17T11:52:27Z</time>
      </trkpt>
      <trkpt lat="44.43162" lon="6.10906">
        <ele>1370.0158691</ele>
        <time>2012-07-17T11:52:31Z</time>
      </trkpt>
      <trkpt lat="44.4316" lon="6.1091">
        <ele>1370.496582</ele>
        <time>2012-07-17T11:52:34Z</time>
      </trkpt>
      <trkpt lat="44.43158" lon="6.10916">
        <ele>1370.9772949</ele>
        <time>2012-07-17T11:52:38Z</time>
      </trkpt>
      <trkpt lat="44.43162" lon="6.10924">
        <ele>1372.4194336</ele>
        <time>2012-07-17T11:52:43Z</time>
      </trkpt>
      <trkpt lat="44.43159" lon="6.10927">
        <ele>1370.9772949</ele>
        <time>2012-07-17T11:52:45Z</time>
      </trkpt>
      <trkpt lat="44.43158" lon="6.10928">
        <ele>1370.496582</ele>
        <time>2012-07-17T11:52:46Z</time>
      </trkpt>
      <trkpt lat="44.43153" lon="6.10943">
        <ele>1371.9384766</ele>
        <time>2012-07-17T11:52:54Z</time>
      </trkpt>
      <trkpt lat="44.4315" lon="6.10946">
        <ele>1372.4194336</ele>
        <time>2012-07-17T11:52:57Z</time>
      </trkpt>
      <trkpt lat="44.43149" lon="6.10955">
        <ele>1373.3808594</ele>
        <time>2012-07-17T11:53:04Z</time>
      </trkpt>
      <trkpt lat="44.43147" lon="6.10958">
        <ele>1373.3808594</ele>
        <time>2012-07-17T11:53:07Z</time>
      </trkpt>
      <trkpt lat="44.43149" lon="6.1098">
        <ele>1375.7839355</ele>
        <time>2012-07-17T11:53:23Z</time>
      </trkpt>
      <trkpt lat="44.43156" lon="6.10994">
        <ele>1376.7453613</ele>
        <time>2012-07-17T11:53:34Z</time>
      </trkpt>
      <trkpt lat="44.43159" lon="6.11003">
        <ele>1377.2260742</ele>
        <time>2012-07-17T11:53:39Z</time>
      </trkpt>
      <trkpt lat="44.43169" lon="6.11016">
        <ele>1377.706543</ele>
        <time>2012-07-17T11:53:45Z</time>
      </trkpt>
      <trkpt lat="44.43192" lon="6.11028">
        <ele>1379.1484375</ele>
        <time>2012-07-17T11:54:00Z</time>
      </trkpt>
      <trkpt lat="44.432" lon="6.1103">
        <ele>1379.1484375</ele>
        <time>2012-07-17T11:54:03Z</time>
      </trkpt>
      <trkpt lat="44.4321" lon="6.11039">
        <ele>1380.1098633</ele>
        <time>2012-07-17T11:54:11Z</time>
      </trkpt>
      <trkpt lat="44.43219" lon="6.11062">
        <ele>1381.5517578</ele>
        <time>2012-07-17T11:54:20Z</time>
      </trkpt>
      <trkpt lat="44.4322" lon="6.11076">
        <ele>1382.9936523</ele>
        <time>2012-07-17T11:54:32Z</time>
      </trkpt>
      <trkpt lat="44.43231" lon="6.1109">
        <ele>1384.435791</ele>
        <time>2012-07-17T11:54:44Z</time>
      </trkpt>
      <trkpt lat="44.43235" lon="6.11093">
        <ele>1384.435791</ele>
        <time>2012-07-17T11:54:46Z</time>
      </trkpt>
      <trkpt lat="44.43261" lon="6.11109">
        <ele>1386.8388672</ele>
        <time>2012-07-17T11:55:07Z</time>
      </trkpt>
      <trkpt lat="44.43271" lon="6.11133">
        <ele>1389.7231445</ele>
        <time>2012-07-17T11:55:28Z</time>
      </trkpt>
      <trkpt lat="44.43286" lon="6.11139">
        <ele>1390.6843262</ele>
        <time>2012-07-17T11:55:35Z</time>
      </trkpt>
      <trkpt lat="44.43284" lon="6.11154">
        <ele>1392.1264648</ele>
        <time>2012-07-17T11:55:48Z</time>
      </trkpt>
      <trkpt lat="44.43295" lon="6.11176">
        <ele>1395.4909668</ele>
        <time>2012-07-17T11:56:08Z</time>
      </trkpt>
      <trkpt lat="44.43315" lon="6.11192">
        <ele>1396.9328613</ele>
        <time>2012-07-17T11:56:28Z</time>
      </trkpt>
      <trkpt lat="44.43336" lon="6.11197">
        <ele>1398.8554688</ele>
        <time>2012-07-17T11:56:43Z</time>
      </trkpt>
      <trkpt lat="44.43343" lon="6.112">
        <ele>1398.8554688</ele>
        <time>2012-07-17T11:56:47Z</time>
      </trkpt>
      <trkpt lat="44.43358" lon="6.11204">
        <ele>1400.2976074</ele>
        <time>2012-07-17T11:56:55Z</time>
      </trkpt>
      <trkpt lat="44.43361" lon="6.11202">
        <ele>1400.7780762</ele>
        <time>2012-07-17T11:56:58Z</time>
      </trkpt>
      <trkpt lat="44.43386" lon="6.11208">
        <ele>1402.7006836</ele>
        <time>2012-07-17T11:57:14Z</time>
      </trkpt>
      <trkpt lat="44.43388" lon="6.11207">
        <ele>1403.6621094</ele>
        <time>2012-07-17T11:57:16Z</time>
      </trkpt>
      <trkpt lat="44.43393" lon="6.11209">
        <ele>1405.104248</ele>
        <time>2012-07-17T11:57:21Z</time>
      </trkpt>
      <trkpt lat="44.43406" lon="6.11223">
        <ele>1406.0654297</ele>
        <time>2012-07-17T11:57:34Z</time>
      </trkpt>
      <trkpt lat="44.43419" lon="6.11241">
        <ele>1407.9882813</ele>
        <time>2012-07-17T11:57:46Z</time>
      </trkpt>
      <trkpt lat="44.43436" lon="6.11264">
        <ele>1409.4301758</ele>
        <time>2012-07-17T11:57:58Z</time>
      </trkpt>
      <trkpt lat="44.43434" lon="6.11274">
        <ele>1409.4301758</ele>
        <time>2012-07-17T11:58:02Z</time>
      </trkpt>
      <trkpt lat="44.43435" lon="6.1128">
        <ele>1410.8720703</ele>
        <time>2012-07-17T11:58:11Z</time>
      </trkpt>
      <trkpt lat="44.43439" lon="6.11287">
        <ele>1410.3913574</ele>
        <time>2012-07-17T11:58:17Z</time>
      </trkpt>
      <trkpt lat="44.43443" lon="6.11292">
        <ele>1413.2753906</ele>
        <time>2012-07-17T11:58:21Z</time>
      </trkpt>
      <trkpt lat="44.43443" lon="6.11304">
        <ele>1414.2365723</ele>
        <time>2012-07-17T11:58:29Z</time>
      </trkpt>
      <trkpt lat="44.43443" lon="6.11315">
        <ele>1414.2365723</ele>
        <time>2012-07-17T11:58:35Z</time>
      </trkpt>
      <trkpt lat="44.43441" lon="6.11318">
        <ele>1414.2365723</ele>
        <time>2012-07-17T11:58:37Z</time>
      </trkpt>
      <trkpt lat="44.43434" lon="6.11321">
        <ele>1414.7172852</ele>
        <time>2012-07-17T11:58:44Z</time>
      </trkpt>
      <trkpt lat="44.43427" lon="6.11314">
        <ele>1415.6787109</ele>
        <time>2012-07-17T11:58:50Z</time>
      </trkpt>
      <trkpt lat="44.43425" lon="6.11309">
        <ele>1416.1591797</ele>
        <time>2012-07-17T11:59:06Z</time>
      </trkpt>
      <trkpt lat="44.43425" lon="6.11309">
        <ele>1416.6398926</ele>
        <time>2012-07-17T11:59:12Z</time>
      </trkpt>
      <trkpt lat="44.43423" lon="6.1131">
        <ele>1416.6398926</ele>
        <time>2012-07-17T12:00:01Z</time>
      </trkpt>
      <trkpt lat="44.43422" lon="6.11311">
        <ele>1415.6787109</ele>
        <time>2012-07-17T12:00:28Z</time>
      </trkpt>
      <trkpt lat="44.43419" lon="6.11313">
        <ele>1417.1206055</ele>
        <time>2012-07-17T12:01:09Z</time>
      </trkpt>
      <trkpt lat="44.43415" lon="6.11308">
        <ele>1416.1591797</ele>
        <time>2012-07-17T12:01:43Z</time>
      </trkpt>
      <trkpt lat="44.43399" lon="6.11298">
        <ele>1419.0432129</ele>
        <time>2012-07-17T12:01:57Z</time>
      </trkpt>
      <trkpt lat="44.43379" lon="6.11291">
        <ele>1420.4853516</ele>
        <time>2012-07-17T12:02:12Z</time>
      </trkpt>
      <trkpt lat="44.43375" lon="6.11298">
        <ele>1420.9660645</ele>
        <time>2012-07-17T12:02:23Z</time>
      </trkpt>
      <trkpt lat="44.43376" lon="6.11301">
        <ele>1420.4853516</ele>
        <time>2012-07-17T12:02:43Z</time>
      </trkpt>
      <trkpt lat="44.43376" lon="6.11302">
        <ele>1420.4853516</ele>
        <time>2012-07-17T12:02:45Z</time>
      </trkpt>
      <trkpt lat="44.43383" lon="6.11307">
        <ele>1421.4465332</ele>
        <time>2012-07-17T12:02:51Z</time>
      </trkpt>
      <trkpt lat="44.43393" lon="6.11313">
        <ele>1422.407959</ele>
        <time>2012-07-17T12:03:00Z</time>
      </trkpt>
      <trkpt lat="44.43399" lon="6.11321">
        <ele>1422.407959</ele>
        <time>2012-07-17T12:03:06Z</time>
      </trkpt>
      <trkpt lat="44.43402" lon="6.11324">
        <ele>1422.407959</ele>
        <time>2012-07-17T12:03:08Z</time>
      </trkpt>
      <trkpt lat="44.43403" lon="6.11329">
        <ele>1423.8498535</ele>
        <time>2012-07-17T12:03:11Z</time>
      </trkpt>
      <trkpt lat="44.43405" lon="6.11332">
        <ele>1423.8498535</ele>
        <time>2012-07-17T12:03:14Z</time>
      </trkpt>
      <trkpt lat="44.43416" lon="6.11352">
        <ele>1425.291748</ele>
        <time>2012-07-17T12:03:28Z</time>
      </trkpt>
      <trkpt lat="44.43421" lon="6.1136">
        <ele>1425.7724609</ele>
        <time>2012-07-17T12:03:37Z</time>
      </trkpt>
      <trkpt lat="44.43428" lon="6.11383">
        <ele>1426.7338867</ele>
        <time>2012-07-17T12:03:52Z</time>
      </trkpt>
      <trkpt lat="44.43448" lon="6.11395">
        <ele>1428.6564941</ele>
        <time>2012-07-17T12:04:08Z</time>
      </trkpt>
      <trkpt lat="44.43462" lon="6.11417">
        <ele>1430.0983887</ele>
        <time>2012-07-17T12:04:25Z</time>
      </trkpt>
      <trkpt lat="44.43472" lon="6.11457">
        <ele>1432.501709</ele>
        <time>2012-07-17T12:04:49Z</time>
      </trkpt>
      <trkpt lat="44.43485" lon="6.11482">
        <ele>1433.9436035</ele>
        <time>2012-07-17T12:05:03Z</time>
      </trkpt>
      <trkpt lat="44.43495" lon="6.11497">
        <ele>1435.385498</ele>
        <time>2012-07-17T12:05:17Z</time>
      </trkpt>
      <trkpt lat="44.435" lon="6.1151">
        <ele>1436.8276367</ele>
        <time>2012-07-17T12:05:28Z</time>
      </trkpt>
      <trkpt lat="44.43512" lon="6.11548">
        <ele>1439.230957</ele>
        <time>2012-07-17T12:05:51Z</time>
      </trkpt>
      <trkpt lat="44.43514" lon="6.1155">
        <ele>1439.7116699</ele>
        <time>2012-07-17T12:05:55Z</time>
      </trkpt>
      <trkpt lat="44.43526" lon="6.11565">
        <ele>1441.1535645</ele>
        <time>2012-07-17T12:06:07Z</time>
      </trkpt>
      <trkpt lat="44.43538" lon="6.11586">
        <ele>1443.5568848</ele>
        <time>2012-07-17T12:06:27Z</time>
      </trkpt>
      <trkpt lat="44.43554" lon="6.11599">
        <ele>1445.9602051</ele>
        <time>2012-07-17T12:06:42Z</time>
      </trkpt>
      <trkpt lat="44.43565" lon="6.11618">
        <ele>1447.4020996</ele>
        <time>2012-07-17T12:06:56Z</time>
      </trkpt>
      <trkpt lat="44.4357" lon="6.11632">
        <ele>1447.8828125</ele>
        <time>2012-07-17T12:07:07Z</time>
      </trkpt>
      <trkpt lat="44.43569" lon="6.11641">
        <ele>1448.3632813</ele>
        <time>2012-07-17T12:07:12Z</time>
      </trkpt>
      <trkpt lat="44.4357" lon="6.11647">
        <ele>1448.8439941</ele>
        <time>2012-07-17T12:07:16Z</time>
      </trkpt>
      <trkpt lat="44.43573" lon="6.11657">
        <ele>1451.2473145</ele>
        <time>2012-07-17T12:07:21Z</time>
      </trkpt>
      <trkpt lat="44.43575" lon="6.11665">
        <ele>1451.7280273</ele>
        <time>2012-07-17T12:07:27Z</time>
      </trkpt>
      <trkpt lat="44.43578" lon="6.11676">
        <ele>1451.7280273</ele>
        <time>2012-07-17T12:07:34Z</time>
      </trkpt>
      <trkpt lat="44.4358" lon="6.11678">
        <ele>1453.170166</ele>
        <time>2012-07-17T12:07:37Z</time>
      </trkpt>
      <trkpt lat="44.43582" lon="6.11685">
        <ele>1454.6120605</ele>
        <time>2012-07-17T12:07:45Z</time>
      </trkpt>
      <trkpt lat="44.43584" lon="6.11688">
        <ele>1453.6508789</ele>
        <time>2012-07-17T12:07:47Z</time>
      </trkpt>
      <trkpt lat="44.43589" lon="6.11692">
        <ele>1454.6120605</ele>
        <time>2012-07-17T12:07:50Z</time>
      </trkpt>
      <trkpt lat="44.43591" lon="6.11702">
        <ele>1455.0927734</ele>
        <time>2012-07-17T12:07:57Z</time>
      </trkpt>
      <trkpt lat="44.43592" lon="6.11711">
        <ele>1456.0539551</ele>
        <time>2012-07-17T12:08:10Z</time>
      </trkpt>
      <trkpt lat="44.43592" lon="6.11711">
        <ele>1454.6120605</ele>
        <time>2012-07-17T12:08:16Z</time>
      </trkpt>
      <trkpt lat="44.43592" lon="6.11711">
        <ele>1456.0539551</ele>
        <time>2012-07-17T12:08:18Z</time>
      </trkpt>
      <trkpt lat="44.43592" lon="6.11711">
        <ele>1454.6120605</ele>
        <time>2012-07-17T12:08:44Z</time>
      </trkpt>
      <trkpt lat="44.43591" lon="6.11713">
        <ele>1453.6508789</ele>
        <time>2012-07-17T12:08:49Z</time>
      </trkpt>
      <trkpt lat="44.43592" lon="6.11722">
        <ele>1454.1315918</ele>
        <time>2012-07-17T12:09:04Z</time>
      </trkpt>
      <trkpt lat="44.43602" lon="6.1174">
        <ele>1457.0153809</ele>
        <time>2012-07-17T12:09:16Z</time>
      </trkpt>
      <trkpt lat="44.43601" lon="6.11744">
        <ele>1455.5734863</ele>
        <time>2012-07-17T12:09:19Z</time>
      </trkpt>
      <trkpt lat="44.43601" lon="6.11752">
        <ele>1457.4960938</ele>
        <time>2012-07-17T12:09:23Z</time>
      </trkpt>
      <trkpt lat="44.43597" lon="6.11768">
        <ele>1457.0153809</ele>
        <time>2012-07-17T12:09:33Z</time>
      </trkpt>
      <trkpt lat="44.43595" lon="6.11781">
        <ele>1459.4187012</ele>
        <time>2012-07-17T12:09:37Z</time>
      </trkpt>
      <trkpt lat="44.43595" lon="6.11789">
        <ele>1459.4187012</ele>
        <time>2012-07-17T12:09:43Z</time>
      </trkpt>
      <trkpt lat="44.43596" lon="6.11801">
        <ele>1458.4572754</ele>
        <time>2012-07-17T12:09:47Z</time>
      </trkpt>
      <trkpt lat="44.43598" lon="6.11805">
        <ele>1460.3798828</ele>
        <time>2012-07-17T12:09:49Z</time>
      </trkpt>
      <trkpt lat="44.436" lon="6.11808">
        <ele>1458.4572754</ele>
        <time>2012-07-17T12:09:51Z</time>
      </trkpt>
      <trkpt lat="44.43604" lon="6.11816">
        <ele>1459.8991699</ele>
        <time>2012-07-17T12:09:55Z</time>
      </trkpt>
      <trkpt lat="44.43606" lon="6.11836">
        <ele>1461.8220215</ele>
        <time>2012-07-17T12:10:07Z</time>
      </trkpt>
      <trkpt lat="44.43609" lon="6.11843">
        <ele>1463.263916</ele>
        <time>2012-07-17T12:10:12Z</time>
      </trkpt>
      <trkpt lat="44.43608" lon="6.11847">
        <ele>1460.8605957</ele>
        <time>2012-07-17T12:10:14Z</time>
      </trkpt>
      <trkpt lat="44.43608" lon="6.1185">
        <ele>1459.4187012</ele>
        <time>2012-07-17T12:10:16Z</time>
      </trkpt>
      <trkpt lat="44.43608" lon="6.11853">
        <ele>1460.8605957</ele>
        <time>2012-07-17T12:10:18Z</time>
      </trkpt>
      <trkpt lat="44.43609" lon="6.1186">
        <ele>1460.8605957</ele>
        <time>2012-07-17T12:10:21Z</time>
      </trkpt>
      <trkpt lat="44.43611" lon="6.11865">
        <ele>1460.3798828</ele>
        <time>2012-07-17T12:10:23Z</time>
      </trkpt>
      <trkpt lat="44.43613" lon="6.11872">
        <ele>1462.3024902</ele>
        <time>2012-07-17T12:10:26Z</time>
      </trkpt>
      <trkpt lat="44.43611" lon="6.11874">
        <ele>1460.8605957</ele>
        <time>2012-07-17T12:10:27Z</time>
      </trkpt>
      <trkpt lat="44.43612" lon="6.11879">
        <ele>1461.3413086</ele>
        <time>2012-07-17T12:10:29Z</time>
      </trkpt>
      <trkpt lat="44.4362" lon="6.11908">
        <ele>1461.8220215</ele>
        <time>2012-07-17T12:10:44Z</time>
      </trkpt>
      <trkpt lat="44.43619" lon="6.11914">
        <ele>1462.3024902</ele>
        <time>2012-07-17T12:10:48Z</time>
      </trkpt>
      <trkpt lat="44.4361" lon="6.11938">
        <ele>1463.7443848</ele>
        <time>2012-07-17T12:11:00Z</time>
      </trkpt>
      <trkpt lat="44.43607" lon="6.11943">
        <ele>1463.7443848</ele>
        <time>2012-07-17T12:11:03Z</time>
      </trkpt>
      <trkpt lat="44.43602" lon="6.11951">
        <ele>1464.2250977</ele>
        <time>2012-07-17T12:11:07Z</time>
      </trkpt>
      <trkpt lat="44.43598" lon="6.11955">
        <ele>1464.2250977</ele>
        <time>2012-07-17T12:11:09Z</time>
      </trkpt>
      <trkpt lat="44.43591" lon="6.11965">
        <ele>1464.2250977</ele>
        <time>2012-07-17T12:11:15Z</time>
      </trkpt>
      <trkpt lat="44.43588" lon="6.11975">
        <ele>1464.2250977</ele>
        <time>2012-07-17T12:11:20Z</time>
      </trkpt>
      <trkpt lat="44.43582" lon="6.1198">
        <ele>1464.7058105</ele>
        <time>2012-07-17T12:11:26Z</time>
      </trkpt>
      <trkpt lat="44.43565" lon="6.12007">
        <ele>1465.1865234</ele>
        <time>2012-07-17T12:11:40Z</time>
      </trkpt>
      <trkpt lat="44.43563" lon="6.12018">
        <ele>1465.1865234</ele>
        <time>2012-07-17T12:11:44Z</time>
      </trkpt>
      <trkpt lat="44.43558" lon="6.12026">
        <ele>1465.1865234</ele>
        <time>2012-07-17T12:11:47Z</time>
      </trkpt>
      <trkpt lat="44.43552" lon="6.12037">
        <ele>1464.7058105</ele>
        <time>2012-07-17T12:11:51Z</time>
      </trkpt>
      <trkpt lat="44.43548" lon="6.12044">
        <ele>1465.1865234</ele>
        <time>2012-07-17T12:11:53Z</time>
      </trkpt>
      <trkpt lat="44.43544" lon="6.12073">
        <ele>1464.2250977</ele>
        <time>2012-07-17T12:11:59Z</time>
      </trkpt>
      <trkpt lat="44.43531" lon="6.12094">
        <ele>1463.263916</ele>
        <time>2012-07-17T12:12:07Z</time>
      </trkpt>
      <trkpt lat="44.4353" lon="6.12097">
        <ele>1462.3024902</ele>
        <time>2012-07-17T12:12:24Z</time>
      </trkpt>
      <trkpt lat="44.43533" lon="6.12099">
        <ele>1462.7832031</ele>
        <time>2012-07-17T12:12:39Z</time>
      </trkpt>
      <trkpt lat="44.43527" lon="6.12101">
        <ele>1462.7832031</ele>
        <time>2012-07-17T12:12:47Z</time>
      </trkpt>
      <trkpt lat="44.4352" lon="6.12126">
        <ele>1462.3024902</ele>
        <time>2012-07-17T12:12:54Z</time>
      </trkpt>
      <trkpt lat="44.4351" lon="6.12134">
        <ele>1460.3798828</ele>
        <time>2012-07-17T12:12:59Z</time>
      </trkpt>
      <trkpt lat="44.43495" lon="6.12155">
        <ele>1457.9768066</ele>
        <time>2012-07-17T12:13:07Z</time>
      </trkpt>
      <trkpt lat="44.43495" lon="6.1216">
        <ele>1457.9768066</ele>
        <time>2012-07-17T12:13:08Z</time>
      </trkpt>
      <trkpt lat="44.43496" lon="6.12176">
        <ele>1457.9768066</ele>
        <time>2012-07-17T12:13:12Z</time>
      </trkpt>
      <trkpt lat="44.43489" lon="6.12189">
        <ele>1456.534668</ele>
        <time>2012-07-17T12:13:17Z</time>
      </trkpt>
      <trkpt lat="44.43484" lon="6.12241">
        <ele>1453.6508789</ele>
        <time>2012-07-17T12:13:29Z</time>
      </trkpt>
      <trkpt lat="44.43488" lon="6.12271">
        <ele>1450.2861328</ele>
        <time>2012-07-17T12:13:35Z</time>
      </trkpt>
      <trkpt lat="44.43488" lon="6.12275">
        <ele>1450.2861328</ele>
        <time>2012-07-17T12:13:36Z</time>
      </trkpt>
      <trkpt lat="44.43471" lon="6.12306">
        <ele>1448.3632813</ele>
        <time>2012-07-17T12:13:48Z</time>
      </trkpt>
      <trkpt lat="44.43469" lon="6.12308">
        <ele>1446.9213867</ele>
        <time>2012-07-17T12:13:50Z</time>
      </trkpt>
      <trkpt lat="44.43469" lon="6.12311">
        <ele>1447.4020996</ele>
        <time>2012-07-17T12:14:01Z</time>
      </trkpt>
      <trkpt lat="44.43469" lon="6.12311">
        <ele>1446.9213867</ele>
        <time>2012-07-17T12:14:09Z</time>
      </trkpt>
      <trkpt lat="44.43445" lon="6.12316">
        <ele>1448.3632813</ele>
        <time>2012-07-17T12:14:20Z</time>
      </trkpt>
      <trkpt lat="44.43442" lon="6.12315">
        <ele>1445.4794922</ele>
        <time>2012-07-17T12:14:21Z</time>
      </trkpt>
      <trkpt lat="44.43439" lon="6.12313">
        <ele>1445.4794922</ele>
        <time>2012-07-17T12:14:22Z</time>
      </trkpt>
      <trkpt lat="44.43435" lon="6.12312">
        <ele>1444.5180664</ele>
        <time>2012-07-17T12:14:23Z</time>
      </trkpt>
      <trkpt lat="44.43421" lon="6.12301">
        <ele>1443.5568848</ele>
        <time>2012-07-17T12:14:27Z</time>
      </trkpt>
      <trkpt lat="44.43391" lon="6.12298">
        <ele>1440.1923828</ele>
        <time>2012-07-17T12:14:37Z</time>
      </trkpt>
      <trkpt lat="44.43388" lon="6.12296">
        <ele>1440.1923828</ele>
        <time>2012-07-17T12:14:38Z</time>
      </trkpt>
      <trkpt lat="44.43382" lon="6.1229">
        <ele>1441.6342773</ele>
        <time>2012-07-17T12:14:41Z</time>
      </trkpt>
      <trkpt lat="44.4338" lon="6.12289">
        <ele>1439.7116699</ele>
        <time>2012-07-17T12:14:46Z</time>
      </trkpt>
      <trkpt lat="44.43376" lon="6.12286">
        <ele>1439.230957</ele>
        <time>2012-07-17T12:14:49Z</time>
      </trkpt>
      <trkpt lat="44.43341" lon="6.12325">
        <ele>1438.2697754</ele>
        <time>2012-07-17T12:14:56Z</time>
      </trkpt>
      <trkpt lat="44.4333" lon="6.12356">
        <ele>1435.385498</ele>
        <time>2012-07-17T12:15:09Z</time>
      </trkpt>
      <trkpt lat="44.43329" lon="6.12368">
        <ele>1433.9436035</ele>
        <time>2012-07-17T12:15:14Z</time>
      </trkpt>
      <trkpt lat="44.43324" lon="6.12386">
        <ele>1432.501709</ele>
        <time>2012-07-17T12:15:20Z</time>
      </trkpt>
      <trkpt lat="44.43319" lon="6.1239">
        <ele>1432.0209961</ele>
        <time>2012-07-17T12:15:22Z</time>
      </trkpt>
      <trkpt lat="44.43292" lon="6.12383">
        <ele>1429.6176758</ele>
        <time>2012-07-17T12:15:34Z</time>
      </trkpt>
      <trkpt lat="44.43291" lon="6.12389">
        <ele>1429.6176758</ele>
        <time>2012-07-17T12:15:36Z</time>
      </trkpt>
      <trkpt lat="44.43284" lon="6.12409">
        <ele>1428.1757813</ele>
        <time>2012-07-17T12:15:41Z</time>
      </trkpt>
      <trkpt lat="44.43268" lon="6.12443">
        <ele>1425.291748</ele>
        <time>2012-07-17T12:15:52Z</time>
      </trkpt>
      <trkpt lat="44.43266" lon="6.12446">
        <ele>1424.8112793</ele>
        <time>2012-07-17T12:15:53Z</time>
      </trkpt>
      <trkpt lat="44.43265" lon="6.12447">
        <ele>1424.3305664</ele>
        <time>2012-07-17T12:16:04Z</time>
      </trkpt>
      <trkpt lat="44.43265" lon="6.12447">
        <ele>1423.8498535</ele>
        <time>2012-07-17T12:16:06Z</time>
      </trkpt>
      <trkpt lat="44.43265" lon="6.12447">
        <ele>1423.8498535</ele>
        <time>2012-07-17T12:16:08Z</time>
      </trkpt>
      <trkpt lat="44.43284" lon="6.12411">
        <ele>1423.8498535</ele>
        <time>2012-07-17T12:16:21Z</time>
      </trkpt>
      <trkpt lat="44.43315" lon="6.12412">
        <ele>1423.3693848</ele>
        <time>2012-07-17T12:16:31Z</time>
      </trkpt>
      <trkpt lat="44.43341" lon="6.12388">
        <ele>1423.3693848</ele>
        <time>2012-07-17T12:16:40Z</time>
      </trkpt>
      <trkpt lat="44.43349" lon="6.12378">
        <ele>1422.8886719</ele>
        <time>2012-07-17T12:16:45Z</time>
      </trkpt>
      <trkpt lat="44.43395" lon="6.12399">
        <ele>1421.9272461</ele>
        <time>2012-07-17T12:16:59Z</time>
      </trkpt>
      <trkpt lat="44.43403" lon="6.124">
        <ele>1420.4853516</ele>
        <time>2012-07-17T12:17:01Z</time>
      </trkpt>
      <trkpt lat="44.43422" lon="6.12406">
        <ele>1419.0432129</ele>
        <time>2012-07-17T12:17:05Z</time>
      </trkpt>
      <trkpt lat="44.43443" lon="6.12433">
        <ele>1419.0432129</ele>
        <time>2012-07-17T12:17:10Z</time>
      </trkpt>
      <trkpt lat="44.43471" lon="6.12503">
        <ele>1420.9660645</ele>
        <time>2012-07-17T12:17:26Z</time>
      </trkpt>
      <trkpt lat="44.43484" lon="6.12567">
        <ele>1422.407959</ele>
        <time>2012-07-17T12:17:45Z</time>
      </trkpt>
      <trkpt lat="44.43515" lon="6.12631">
        <ele>1419.5239258</ele>
        <time>2012-07-17T12:17:59Z</time>
      </trkpt>
      <trkpt lat="44.43527" lon="6.12653">
        <ele>1418.5625</ele>
        <time>2012-07-17T12:18:03Z</time>
      </trkpt>
      <trkpt lat="44.43537" lon="6.12677">
        <ele>1416.6398926</ele>
        <time>2012-07-17T12:18:07Z</time>
      </trkpt>
      <trkpt lat="44.43546" lon="6.12699">
        <ele>1416.6398926</ele>
        <time>2012-07-17T12:18:11Z</time>
      </trkpt>
      <trkpt lat="44.4357" lon="6.12757">
        <ele>1412.7946777</ele>
        <time>2012-07-17T12:18:24Z</time>
      </trkpt>
      <trkpt lat="44.43587" lon="6.12797">
        <ele>1409.4301758</ele>
        <time>2012-07-17T12:18:33Z</time>
      </trkpt>
      <trkpt lat="44.43592" lon="6.1281">
        <ele>1408.46875</ele>
        <time>2012-07-17T12:18:36Z</time>
      </trkpt>
      <trkpt lat="44.436" lon="6.12822">
        <ele>1407.9882813</ele>
        <time>2012-07-17T12:18:40Z</time>
      </trkpt>
      <trkpt lat="44.43611" lon="6.12829">
        <ele>1406.0654297</ele>
        <time>2012-07-17T12:18:44Z</time>
      </trkpt>
      <trkpt lat="44.43626" lon="6.12838">
        <ele>1403.6621094</ele>
        <time>2012-07-17T12:18:50Z</time>
      </trkpt>
      <trkpt lat="44.43648" lon="6.12854">
        <ele>1400.7780762</ele>
        <time>2012-07-17T12:18:56Z</time>
      </trkpt>
      <trkpt lat="44.43665" lon="6.12878">
        <ele>1397.8942871</ele>
        <time>2012-07-17T12:19:02Z</time>
      </trkpt>
      <trkpt lat="44.43688" lon="6.12921">
        <ele>1395.0102539</ele>
        <time>2012-07-17T12:19:13Z</time>
      </trkpt>
      <trkpt lat="44.43695" lon="6.12946">
        <ele>1392.6071777</ele>
        <time>2012-07-17T12:19:18Z</time>
      </trkpt>
      <trkpt lat="44.43703" lon="6.12987">
        <ele>1390.2038574</ele>
        <time>2012-07-17T12:19:27Z</time>
      </trkpt>
      <trkpt lat="44.43706" lon="6.12988">
        <ele>1390.2038574</ele>
        <time>2012-07-17T12:19:28Z</time>
      </trkpt>
      <trkpt lat="44.43737" lon="6.13004">
        <ele>1386.8388672</ele>
        <time>2012-07-17T12:19:37Z</time>
      </trkpt>
      <trkpt lat="44.43752" lon="6.13022">
        <ele>1385.3969727</ele>
        <time>2012-07-17T12:19:41Z</time>
      </trkpt>
      <trkpt lat="44.43761" lon="6.13039">
        <ele>1383.9550781</ele>
        <time>2012-07-17T12:19:44Z</time>
      </trkpt>
      <trkpt lat="44.43777" lon="6.13091">
        <ele>1383.4743652</ele>
        <time>2012-07-17T12:19:52Z</time>
      </trkpt>
      <trkpt lat="44.43789" lon="6.13213">
        <ele>1381.5517578</ele>
        <time>2012-07-17T12:20:09Z</time>
      </trkpt>
      <trkpt lat="44.43782" lon="6.13291">
        <ele>1382.9936523</ele>
        <time>2012-07-17T12:20:25Z</time>
      </trkpt>
      <trkpt lat="44.43774" lon="6.13313">
        <ele>1382.9936523</ele>
        <time>2012-07-17T12:20:31Z</time>
      </trkpt>
      <trkpt lat="44.43767" lon="6.13319">
        <ele>1383.4743652</ele>
        <time>2012-07-17T12:20:33Z</time>
      </trkpt>
      <trkpt lat="44.43751" lon="6.13338">
        <ele>1383.4743652</ele>
        <time>2012-07-17T12:20:40Z</time>
      </trkpt>
      <trkpt lat="44.43726" lon="6.13383">
        <ele>1380.5905762</ele>
        <time>2012-07-17T12:20:52Z</time>
      </trkpt>
      <trkpt lat="44.43721" lon="6.13413">
        <ele>1379.1484375</ele>
        <time>2012-07-17T12:20:59Z</time>
      </trkpt>
      <trkpt lat="44.43734" lon="6.13447">
        <ele>1377.706543</ele>
        <time>2012-07-17T12:21:08Z</time>
      </trkpt>
      <trkpt lat="44.43772" lon="6.13476">
        <ele>1377.2260742</ele>
        <time>2012-07-17T12:21:21Z</time>
      </trkpt>
      <trkpt lat="44.43783" lon="6.13522">
        <ele>1374.342041</ele>
        <time>2012-07-17T12:21:31Z</time>
      </trkpt>
      <trkpt lat="44.4381" lon="6.1353">
        <ele>1374.342041</ele>
        <time>2012-07-17T12:21:40Z</time>
      </trkpt>
      <trkpt lat="44.43817" lon="6.13548">
        <ele>1374.342041</ele>
        <time>2012-07-17T12:21:45Z</time>
      </trkpt>
      <trkpt lat="44.43822" lon="6.13581">
        <ele>1372.9001465</ele>
        <time>2012-07-17T12:21:52Z</time>
      </trkpt>
      <trkpt lat="44.43816" lon="6.13604">
        <ele>1373.3808594</ele>
        <time>2012-07-17T12:21:56Z</time>
      </trkpt>
      <trkpt lat="44.43805" lon="6.13644">
        <ele>1374.8227539</ele>
        <time>2012-07-17T12:22:07Z</time>
      </trkpt>
      <trkpt lat="44.43788" lon="6.13663">
        <ele>1373.8613281</ele>
        <time>2012-07-17T12:22:15Z</time>
      </trkpt>
      <trkpt lat="44.43765" lon="6.13664">
        <ele>1372.4194336</ele>
        <time>2012-07-17T12:22:21Z</time>
      </trkpt>
      <trkpt lat="44.4373" lon="6.13663">
        <ele>1370.0158691</ele>
        <time>2012-07-17T12:22:32Z</time>
      </trkpt>
      <trkpt lat="44.43722" lon="6.13664">
        <ele>1369.5354004</ele>
        <time>2012-07-17T12:22:34Z</time>
      </trkpt>
      <trkpt lat="44.43699" lon="6.13673">
        <ele>1367.6125488</ele>
        <time>2012-07-17T12:22:40Z</time>
      </trkpt>
      <trkpt lat="44.43686" lon="6.13679">
        <ele>1366.6513672</ele>
        <time>2012-07-17T12:22:44Z</time>
      </trkpt>
      <trkpt lat="44.4368" lon="6.13688">
        <ele>1365.2094727</ele>
        <time>2012-07-17T12:22:55Z</time>
      </trkpt>
      <trkpt lat="44.4368" lon="6.13688">
        <ele>1367.1320801</ele>
        <time>2012-07-17T12:23:22Z</time>
      </trkpt>
      <trkpt lat="44.4368" lon="6.13688">
        <ele>1365.6901855</ele>
        <time>2012-07-17T12:23:36Z</time>
      </trkpt>
      <trkpt lat="44.43683" lon="6.13709">
        <ele>1363.2868652</ele>
        <time>2012-07-17T12:23:44Z</time>
      </trkpt>
      <trkpt lat="44.43667" lon="6.13728">
        <ele>1361.8449707</ele>
        <time>2012-07-17T12:23:48Z</time>
      </trkpt>
      <trkpt lat="44.43684" lon="6.13743">
        <ele>1359.9221191</ele>
        <time>2012-07-17T12:23:51Z</time>
      </trkpt>
      <trkpt lat="44.43682" lon="6.13756">
        <ele>1357.0383301</ele>
        <time>2012-07-17T12:24:00Z</time>
      </trkpt>
      <trkpt lat="44.43634" lon="6.13743">
        <ele>1357.0383301</ele>
        <time>2012-07-17T12:24:01Z</time>
      </trkpt>
      <trkpt lat="44.43622" lon="6.1375">
        <ele>1354.6347656</ele>
        <time>2012-07-17T12:24:05Z</time>
      </trkpt>
      <trkpt lat="44.43612" lon="6.13759">
        <ele>1353.673584</ele>
        <time>2012-07-17T12:24:09Z</time>
      </trkpt>
      <trkpt lat="44.43607" lon="6.13767">
        <ele>1352.2314453</ele>
        <time>2012-07-17T12:24:12Z</time>
      </trkpt>
      <trkpt lat="44.436" lon="6.13784">
        <ele>1350.309082</ele>
        <time>2012-07-17T12:24:17Z</time>
      </trkpt>
      <trkpt lat="44.43596" lon="6.13788">
        <ele>1350.7895508</ele>
        <time>2012-07-17T12:24:19Z</time>
      </trkpt>
      <trkpt lat="44.43593" lon="6.13788">
        <ele>1349.3476563</ele>
        <time>2012-07-17T12:24:21Z</time>
      </trkpt>
      <trkpt lat="44.43589" lon="6.13785">
        <ele>1347.4250488</ele>
        <time>2012-07-17T12:24:24Z</time>
      </trkpt>
      <trkpt lat="44.4357" lon="6.13761">
        <ele>1344.0605469</ele>
        <time>2012-07-17T12:24:34Z</time>
      </trkpt>
      <trkpt lat="44.43564" lon="6.13757">
        <ele>1343.0991211</ele>
        <time>2012-07-17T12:24:36Z</time>
      </trkpt>
      <trkpt lat="44.43561" lon="6.13755">
        <ele>1343.579834</ele>
        <time>2012-07-17T12:24:37Z</time>
      </trkpt>
      <trkpt lat="44.43541" lon="6.13772">
        <ele>1339.2536621</ele>
        <time>2012-07-17T12:24:48Z</time>
      </trkpt>
      <trkpt lat="44.43541" lon="6.13776">
        <ele>1339.2536621</ele>
        <time>2012-07-17T12:24:49Z</time>
      </trkpt>
      <trkpt lat="44.43541" lon="6.13792">
        <ele>1338.7731934</ele>
        <time>2012-07-17T12:24:54Z</time>
      </trkpt>
      <trkpt lat="44.43534" lon="6.13803">
        <ele>1335.8891602</ele>
        <time>2012-07-17T12:24:59Z</time>
      </trkpt>
      <trkpt lat="44.43529" lon="6.13804">
        <ele>1333.9665527</ele>
        <time>2012-07-17T12:25:01Z</time>
      </trkpt>
      <trkpt lat="44.43513" lon="6.13809">
        <ele>1333.005127</ele>
        <time>2012-07-17T12:25:08Z</time>
      </trkpt>
      <trkpt lat="44.43492" lon="6.13823">
        <ele>1328.1987305</ele>
        <time>2012-07-17T12:25:16Z</time>
      </trkpt>
      <trkpt lat="44.43489" lon="6.13826">
        <ele>1328.1987305</ele>
        <time>2012-07-17T12:25:17Z</time>
      </trkpt>
      <trkpt lat="44.43479" lon="6.13835">
        <ele>1325.7954102</ele>
        <time>2012-07-17T12:25:20Z</time>
      </trkpt>
      <trkpt lat="44.43473" lon="6.13841">
        <ele>1324.3535156</ele>
        <time>2012-07-17T12:25:22Z</time>
      </trkpt>
      <trkpt lat="44.43467" lon="6.13849">
        <ele>1323.8725586</ele>
        <time>2012-07-17T12:25:25Z</time>
      </trkpt>
      <trkpt lat="44.43445" lon="6.13863">
        <ele>1320.9887695</ele>
        <time>2012-07-17T12:25:31Z</time>
      </trkpt>
      <trkpt lat="44.43419" lon="6.13864">
        <ele>1319.0661621</ele>
        <time>2012-07-17T12:25:40Z</time>
      </trkpt>
      <trkpt lat="44.43395" lon="6.13851">
        <ele>1316.1821289</ele>
        <time>2012-07-17T12:25:49Z</time>
      </trkpt>
      <trkpt lat="44.43377" lon="6.13831">
        <ele>1313.7788086</ele>
        <time>2012-07-17T12:25:57Z</time>
      </trkpt>
      <trkpt lat="44.43367" lon="6.1382">
        <ele>1311.8564453</ele>
        <time>2012-07-17T12:26:02Z</time>
      </trkpt>
      <trkpt lat="44.43364" lon="6.13823">
        <ele>1310.8950195</ele>
        <time>2012-07-17T12:26:04Z</time>
      </trkpt>
      <trkpt lat="44.43364" lon="6.13835">
        <ele>1309.453125</ele>
        <time>2012-07-17T12:26:09Z</time>
      </trkpt>
      <trkpt lat="44.43369" lon="6.13858">
        <ele>1308.4916992</ele>
        <time>2012-07-17T12:26:16Z</time>
      </trkpt>
      <trkpt lat="44.43358" lon="6.13861">
        <ele>1305.1269531</ele>
        <time>2012-07-17T12:26:25Z</time>
      </trkpt>
      <trkpt lat="44.4334" lon="6.13829">
        <ele>1302.7236328</ele>
        <time>2012-07-17T12:26:36Z</time>
      </trkpt>
      <trkpt lat="44.43331" lon="6.13838">
        <ele>1299.8398438</ele>
        <time>2012-07-17T12:26:41Z</time>
      </trkpt>
      <trkpt lat="44.43331" lon="6.1384">
        <ele>1299.3591309</ele>
        <time>2012-07-17T12:26:42Z</time>
      </trkpt>
      <trkpt lat="44.43334" lon="6.13853">
        <ele>1298.878418</ele>
        <time>2012-07-17T12:26:46Z</time>
      </trkpt>
      <trkpt lat="44.43334" lon="6.13863">
        <ele>1297.4365234</ele>
        <time>2012-07-17T12:26:49Z</time>
      </trkpt>
      <trkpt lat="44.43337" lon="6.1388">
        <ele>1295.9946289</ele>
        <time>2012-07-17T12:26:54Z</time>
      </trkpt>
      <trkpt lat="44.43324" lon="6.1389">
        <ele>1292.630127</ele>
        <time>2012-07-17T12:27:04Z</time>
      </trkpt>
      <trkpt lat="44.43306" lon="6.13868">
        <ele>1290.7070313</ele>
        <time>2012-07-17T12:27:14Z</time>
      </trkpt>
      <trkpt lat="44.43296" lon="6.1387">
        <ele>1288.784668</ele>
        <time>2012-07-17T12:27:18Z</time>
      </trkpt>
      <trkpt lat="44.43292" lon="6.13877">
        <ele>1287.3425293</ele>
        <time>2012-07-17T12:27:21Z</time>
      </trkpt>
      <trkpt lat="44.43289" lon="6.13888">
        <ele>1285.9006348</ele>
        <time>2012-07-17T12:27:25Z</time>
      </trkpt>
      <trkpt lat="44.43288" lon="6.13891">
        <ele>1285.4199219</ele>
        <time>2012-07-17T12:27:26Z</time>
      </trkpt>
      <trkpt lat="44.4327" lon="6.13912">
        <ele>1282.5361328</ele>
        <time>2012-07-17T12:27:34Z</time>
      </trkpt>
      <trkpt lat="44.43251" lon="6.13934">
        <ele>1279.1713867</ele>
        <time>2012-07-17T12:27:42Z</time>
      </trkpt>
      <trkpt lat="44.43238" lon="6.13951">
        <ele>1277.7294922</ele>
        <time>2012-07-17T12:27:47Z</time>
      </trkpt>
      <trkpt lat="44.4322" lon="6.13995">
        <ele>1273.8840332</ele>
        <time>2012-07-17T12:28:00Z</time>
      </trkpt>
      <trkpt lat="44.43217" lon="6.13999">
        <ele>1272.9228516</ele>
        <time>2012-07-17T12:28:02Z</time>
      </trkpt>
      <trkpt lat="44.43206" lon="6.14016">
        <ele>1270.0388184</ele>
        <time>2012-07-17T12:28:08Z</time>
      </trkpt>
      <trkpt lat="44.43204" lon="6.14018">
        <ele>1270.0388184</ele>
        <time>2012-07-17T12:28:09Z</time>
      </trkpt>
      <trkpt lat="44.43188" lon="6.14033">
        <ele>1267.1550293</ele>
        <time>2012-07-17T12:28:17Z</time>
      </trkpt>
      <trkpt lat="44.43168" lon="6.14015">
        <ele>1263.3098145</ele>
        <time>2012-07-17T12:28:26Z</time>
      </trkpt>
      <trkpt lat="44.43164" lon="6.14006">
        <ele>1262.8291016</ele>
        <time>2012-07-17T12:28:29Z</time>
      </trkpt>
      <trkpt lat="44.43153" lon="6.1401">
        <ele>1260.4257813</ele>
        <time>2012-07-17T12:28:34Z</time>
      </trkpt>
      <trkpt lat="44.4315" lon="6.14012">
        <ele>1259.9448242</ele>
        <time>2012-07-17T12:28:35Z</time>
      </trkpt>
      <trkpt lat="44.43145" lon="6.14026">
        <ele>1258.5029297</ele>
        <time>2012-07-17T12:28:41Z</time>
      </trkpt>
      <trkpt lat="44.4313" lon="6.14033">
        <ele>1256.0996094</ele>
        <time>2012-07-17T12:28:48Z</time>
      </trkpt>
      <trkpt lat="44.43115" lon="6.1403">
        <ele>1254.6577148</ele>
        <time>2012-07-17T12:28:55Z</time>
      </trkpt>
      <trkpt lat="44.43102" lon="6.14023">
        <ele>1252.7351074</ele>
        <time>2012-07-17T12:29:02Z</time>
      </trkpt>
      <trkpt lat="44.43088" lon="6.14012">
        <ele>1249.8513184</ele>
        <time>2012-07-17T12:29:09Z</time>
      </trkpt>
      <trkpt lat="44.43074" lon="6.14001">
        <ele>1249.3706055</ele>
        <time>2012-07-17T12:29:16Z</time>
      </trkpt>
      <trkpt lat="44.43065" lon="6.14004">
        <ele>1246.9672852</ele>
        <time>2012-07-17T12:29:20Z</time>
      </trkpt>
      <trkpt lat="44.43042" lon="6.14022">
        <ele>1244.0834961</ele>
        <time>2012-07-17T12:29:31Z</time>
      </trkpt>
      <trkpt lat="44.43033" lon="6.14031">
        <ele>1240.2380371</ele>
        <time>2012-07-17T12:29:36Z</time>
      </trkpt>
      <trkpt lat="44.43031" lon="6.14033">
        <ele>1240.2380371</ele>
        <time>2012-07-17T12:29:37Z</time>
      </trkpt>
      <trkpt lat="44.43005" lon="6.14039">
        <ele>1237.8347168</ele>
        <time>2012-07-17T12:29:50Z</time>
      </trkpt>
      <trkpt lat="44.42989" lon="6.14035">
        <ele>1234.9509277</ele>
        <time>2012-07-17T12:29:56Z</time>
      </trkpt>
      <trkpt lat="44.42979" lon="6.14036">
        <ele>1232.5476074</ele>
        <time>2012-07-17T12:30:00Z</time>
      </trkpt>
      <trkpt lat="44.42969" lon="6.1404">
        <ele>1232.0668945</ele>
        <time>2012-07-17T12:30:04Z</time>
      </trkpt>
      <trkpt lat="44.42963" lon="6.14045">
        <ele>1229.6635742</ele>
        <time>2012-07-17T12:30:07Z</time>
      </trkpt>
      <trkpt lat="44.42947" lon="6.14058">
        <ele>1228.2216797</ele>
        <time>2012-07-17T12:30:14Z</time>
      </trkpt>
      <trkpt lat="44.42931" lon="6.14061">
        <ele>1225.8181152</ele>
        <time>2012-07-17T12:30:20Z</time>
      </trkpt>
      <trkpt lat="44.42926" lon="6.14061">
        <ele>1225.3374023</ele>
        <time>2012-07-17T12:30:22Z</time>
      </trkpt>
      <trkpt lat="44.42906" lon="6.14057">
        <ele>1222.4536133</ele>
        <time>2012-07-17T12:30:30Z</time>
      </trkpt>
      <trkpt lat="44.4289" lon="6.14045">
        <ele>1219.0891113</ele>
        <time>2012-07-17T12:30:40Z</time>
      </trkpt>
      <trkpt lat="44.42888" lon="6.14033">
        <ele>1217.6469727</ele>
        <time>2012-07-17T12:30:44Z</time>
      </trkpt>
      <trkpt lat="44.4288" lon="6.13998">
        <ele>1214.7631836</ele>
        <time>2012-07-17T12:30:55Z</time>
      </trkpt>
      <trkpt lat="44.42877" lon="6.13988">
        <ele>1212.8405762</ele>
        <time>2012-07-17T12:30:58Z</time>
      </trkpt>
      <trkpt lat="44.42872" lon="6.13971">
        <ele>1212.3598633</ele>
        <time>2012-07-17T12:31:02Z</time>
      </trkpt>
      <trkpt lat="44.42865" lon="6.13925">
        <ele>1208.0339355</ele>
        <time>2012-07-17T12:31:15Z</time>
      </trkpt>
      <trkpt lat="44.42864" lon="6.1392">
        <ele>1208.0339355</ele>
        <time>2012-07-17T12:31:16Z</time>
      </trkpt>
      <trkpt lat="44.42857" lon="6.13897">
        <ele>1206.5917969</ele>
        <time>2012-07-17T12:31:21Z</time>
      </trkpt>
      <trkpt lat="44.42852" lon="6.13873">
        <ele>1205.1499023</ele>
        <time>2012-07-17T12:31:28Z</time>
      </trkpt>
      <trkpt lat="44.42857" lon="6.1386">
        <ele>1203.2272949</ele>
        <time>2012-07-17T12:31:32Z</time>
      </trkpt>
      <trkpt lat="44.42861" lon="6.13853">
        <ele>1202.2658691</ele>
        <time>2012-07-17T12:31:35Z</time>
      </trkpt>
      <trkpt lat="44.42855" lon="6.13836">
        <ele>1199.3820801</ele>
        <time>2012-07-17T12:31:41Z</time>
      </trkpt>
      <trkpt lat="44.42834" lon="6.13825">
        <ele>1196.498291</ele>
        <time>2012-07-17T12:31:51Z</time>
      </trkpt>
      <trkpt lat="44.42823" lon="6.13819">
        <ele>1194.0947266</ele>
        <time>2012-07-17T12:31:56Z</time>
      </trkpt>
      <trkpt lat="44.42808" lon="6.13837">
        <ele>1191.2106934</ele>
        <time>2012-07-17T12:32:05Z</time>
      </trkpt>
      <trkpt lat="44.42808" lon="6.13841">
        <ele>1190.7299805</ele>
        <time>2012-07-17T12:32:06Z</time>
      </trkpt>
      <trkpt lat="44.42812" lon="6.13866">
        <ele>1188.8076172</ele>
        <time>2012-07-17T12:32:12Z</time>
      </trkpt>
      <trkpt lat="44.42812" lon="6.13874">
        <ele>1188.3269043</ele>
        <time>2012-07-17T12:32:23Z</time>
      </trkpt>
      <trkpt lat="44.42813" lon="6.13874">
        <ele>1187.8461914</ele>
        <time>2012-07-17T12:32:35Z</time>
      </trkpt>
      <trkpt lat="44.42813" lon="6.13873">
        <ele>1187.3654785</ele>
        <time>2012-07-17T12:32:45Z</time>
      </trkpt>
      <trkpt lat="44.42807" lon="6.13879">
        <ele>1184.9624023</ele>
        <time>2012-07-17T12:32:49Z</time>
      </trkpt>
      <trkpt lat="44.42802" lon="6.13881">
        <ele>1184.4816895</ele>
        <time>2012-07-17T12:32:51Z</time>
      </trkpt>
      <trkpt lat="44.42797" lon="6.1388">
        <ele>1185.923584</ele>
        <time>2012-07-17T12:32:53Z</time>
      </trkpt>
      <trkpt lat="44.42788" lon="6.13878">
        <ele>1183.0395508</ele>
        <time>2012-07-17T12:32:56Z</time>
      </trkpt>
      <trkpt lat="44.42777" lon="6.13875">
        <ele>1182.559082</ele>
        <time>2012-07-17T12:33:00Z</time>
      </trkpt>
      <trkpt lat="44.42765" lon="6.13874">
        <ele>1180.6364746</ele>
        <time>2012-07-17T12:33:03Z</time>
      </trkpt>
      <trkpt lat="44.42734" lon="6.13874">
        <ele>1177.7521973</ele>
        <time>2012-07-17T12:33:13Z</time>
      </trkpt>
      <trkpt lat="44.42719" lon="6.139">
        <ele>1174.3876953</ele>
        <time>2012-07-17T12:33:24Z</time>
      </trkpt>
      <trkpt lat="44.42721" lon="6.13945">
        <ele>1171.0231934</ele>
        <time>2012-07-17T12:33:34Z</time>
      </trkpt>
      <trkpt lat="44.42721" lon="6.1395">
        <ele>1171.0231934</ele>
        <time>2012-07-17T12:33:35Z</time>
      </trkpt>
      <trkpt lat="44.42721" lon="6.1397">
        <ele>1169.1005859</ele>
        <time>2012-07-17T12:33:39Z</time>
      </trkpt>
      <trkpt lat="44.42727" lon="6.13997">
        <ele>1166.6972656</ele>
        <time>2012-07-17T12:33:44Z</time>
      </trkpt>
      <trkpt lat="44.42734" lon="6.14035">
        <ele>1163.3325195</ele>
        <time>2012-07-17T12:33:53Z</time>
      </trkpt>
      <trkpt lat="44.42734" lon="6.14037">
        <ele>1163.3325195</ele>
        <time>2012-07-17T12:33:54Z</time>
      </trkpt>
      <trkpt lat="44.42732" lon="6.1404">
        <ele>1162.3710938</ele>
        <time>2012-07-17T12:33:56Z</time>
      </trkpt>
      <trkpt lat="44.4273" lon="6.14042">
        <ele>1162.8518066</ele>
        <time>2012-07-17T12:33:59Z</time>
      </trkpt>
      <trkpt lat="44.4273" lon="6.14042">
        <ele>1161.890625</ele>
        <time>2012-07-17T12:34:04Z</time>
      </trkpt>
      <trkpt lat="44.42712" lon="6.14078">
        <ele>1159.4873047</ele>
        <time>2012-07-17T12:34:16Z</time>
      </trkpt>
      <trkpt lat="44.42711" lon="6.14116">
        <ele>1157.0839844</ele>
        <time>2012-07-17T12:34:24Z</time>
      </trkpt>
      <trkpt lat="44.42714" lon="6.14149">
        <ele>1154.6806641</ele>
        <time>2012-07-17T12:34:31Z</time>
      </trkpt>
      <trkpt lat="44.42708" lon="6.14151">
        <ele>1154.2001953</ele>
        <time>2012-07-17T12:34:43Z</time>
      </trkpt>
      <trkpt lat="44.42708" lon="6.14151">
        <ele>1152.7580566</ele>
        <time>2012-07-17T12:34:46Z</time>
      </trkpt>
      <trkpt lat="44.42708" lon="6.14151">
        <ele>1154.2001953</ele>
        <time>2012-07-17T12:35:08Z</time>
      </trkpt>
      <trkpt lat="44.42692" lon="6.14135">
        <ele>1150.3549805</ele>
        <time>2012-07-17T12:35:19Z</time>
      </trkpt>
      <trkpt lat="44.42684" lon="6.14129">
        <ele>1148.9128418</ele>
        <time>2012-07-17T12:35:22Z</time>
      </trkpt>
      <trkpt lat="44.42674" lon="6.14111">
        <ele>1146.9899902</ele>
        <time>2012-07-17T12:35:31Z</time>
      </trkpt>
      <trkpt lat="44.42678" lon="6.1408">
        <ele>1143.1447754</ele>
        <time>2012-07-17T12:35:39Z</time>
      </trkpt>
      <trkpt lat="44.42676" lon="6.14075">
        <ele>1143.1447754</ele>
        <time>2012-07-17T12:35:40Z</time>
      </trkpt>
      <trkpt lat="44.42664" lon="6.14079">
        <ele>1140.7414551</ele>
        <time>2012-07-17T12:35:49Z</time>
      </trkpt>
      <trkpt lat="44.4266" lon="6.14088">
        <ele>1139.2995605</ele>
        <time>2012-07-17T12:35:55Z</time>
      </trkpt>
      <trkpt lat="44.4264" lon="6.14111">
        <ele>1135.9350586</ele>
        <time>2012-07-17T12:36:07Z</time>
      </trkpt>
      <trkpt lat="44.42624" lon="6.14128">
        <ele>1133.5317383</ele>
        <time>2012-07-17T12:36:15Z</time>
      </trkpt>
      <trkpt lat="44.42609" lon="6.1415">
        <ele>1131.128418</ele>
        <time>2012-07-17T12:36:25Z</time>
      </trkpt>
      <trkpt lat="44.42609" lon="6.14157">
        <ele>1129.6862793</ele>
        <time>2012-07-17T12:36:27Z</time>
      </trkpt>
      <trkpt lat="44.42615" lon="6.14171">
        <ele>1128.2443848</ele>
        <time>2012-07-17T12:36:32Z</time>
      </trkpt>
      <trkpt lat="44.42629" lon="6.14184">
        <ele>1125.8410645</ele>
        <time>2012-07-17T12:36:38Z</time>
      </trkpt>
      <trkpt lat="44.42618" lon="6.14192">
        <ele>1123.918457</ele>
        <time>2012-07-17T12:36:46Z</time>
      </trkpt>
      <trkpt lat="44.42589" lon="6.14186">
        <ele>1120.5539551</ele>
        <time>2012-07-17T12:36:57Z</time>
      </trkpt>
      <trkpt lat="44.42576" lon="6.14187">
        <ele>1120.0732422</ele>
        <time>2012-07-17T12:37:01Z</time>
      </trkpt>
      <trkpt lat="44.42557" lon="6.14185">
        <ele>1117.1894531</ele>
        <time>2012-07-17T12:37:06Z</time>
      </trkpt>
      <trkpt lat="44.42534" lon="6.14182">
        <ele>1114.3051758</ele>
        <time>2012-07-17T12:37:13Z</time>
      </trkpt>
      <trkpt lat="44.42534" lon="6.14182">
        <ele>1113.8244629</ele>
        <time>2012-07-17T12:37:31Z</time>
      </trkpt>
      <trkpt lat="44.42519" lon="6.14176">
        <ele>1112.3825684</ele>
        <time>2012-07-17T12:37:41Z</time>
      </trkpt>
      <trkpt lat="44.42512" lon="6.14157">
        <ele>1109.4987793</ele>
        <time>2012-07-17T12:37:46Z</time>
      </trkpt>
      <trkpt lat="44.42501" lon="6.14159">
        <ele>1108.0568848</ele>
        <time>2012-07-17T12:37:55Z</time>
      </trkpt>
      <trkpt lat="44.4249" lon="6.14214">
        <ele>1104.2116699</ele>
        <time>2012-07-17T12:38:07Z</time>
      </trkpt>
      <trkpt lat="44.42484" lon="6.14256">
        <ele>1101.3276367</ele>
        <time>2012-07-17T12:38:20Z</time>
      </trkpt>
      <trkpt lat="44.42494" lon="6.1427">
        <ele>1098.9240723</ele>
        <time>2012-07-17T12:38:27Z</time>
      </trkpt>
      <trkpt lat="44.42513" lon="6.14282">
        <ele>1095.5595703</ele>
        <time>2012-07-17T12:38:37Z</time>
      </trkpt>
      <trkpt lat="44.42517" lon="6.14292">
        <ele>1095.0788574</ele>
        <time>2012-07-17T12:38:41Z</time>
      </trkpt>
      <trkpt lat="44.42509" lon="6.14301">
        <ele>1092.6757813</ele>
        <time>2012-07-17T12:38:47Z</time>
      </trkpt>
      <trkpt lat="44.42507" lon="6.14303">
        <ele>1092.6757813</ele>
        <time>2012-07-17T12:38:48Z</time>
      </trkpt>
      <trkpt lat="44.42492" lon="6.14308">
        <ele>1089.791748</ele>
        <time>2012-07-17T12:38:55Z</time>
      </trkpt>
      <trkpt lat="44.42479" lon="6.14313">
        <ele>1087.3884277</ele>
        <time>2012-07-17T12:39:01Z</time>
      </trkpt>
      <trkpt lat="44.42461" lon="6.14324">
        <ele>1084.5046387</ele>
        <time>2012-07-17T12:39:09Z</time>
      </trkpt>
      <trkpt lat="44.42455" lon="6.14328">
        <ele>1083.0622559</ele>
        <time>2012-07-17T12:39:11Z</time>
      </trkpt>
      <trkpt lat="44.4244" lon="6.14339">
        <ele>1079.6977539</ele>
        <time>2012-07-17T12:39:17Z</time>
      </trkpt>
      <trkpt lat="44.42438" lon="6.14341">
        <ele>1079.6977539</ele>
        <time>2012-07-17T12:39:18Z</time>
      </trkpt>
      <trkpt lat="44.42422" lon="6.14354">
        <ele>1076.8139648</ele>
        <time>2012-07-17T12:39:25Z</time>
      </trkpt>
      <trkpt lat="44.42404" lon="6.14371">
        <ele>1072.96875</ele>
        <time>2012-07-17T12:39:33Z</time>
      </trkpt>
      <trkpt lat="44.42389" lon="6.14379">
        <ele>1071.5266113</ele>
        <time>2012-07-17T12:39:39Z</time>
      </trkpt>
      <trkpt lat="44.42371" lon="6.14389">
        <ele>1068.1621094</ele>
        <time>2012-07-17T12:39:47Z</time>
      </trkpt>
      <trkpt lat="44.42369" lon="6.14391">
        <ele>1068.1621094</ele>
        <time>2012-07-17T12:39:48Z</time>
      </trkpt>
      <trkpt lat="44.42369" lon="6.14393">
        <ele>1067.6811523</ele>
        <time>2012-07-17T12:39:50Z</time>
      </trkpt>
      <trkpt lat="44.42379" lon="6.14403">
        <ele>1065.7587891</ele>
        <time>2012-07-17T12:40:00Z</time>
      </trkpt>
      <trkpt lat="44.42382" lon="6.14403">
        <ele>1064.7973633</ele>
        <time>2012-07-17T12:40:02Z</time>
      </trkpt>
      <trkpt lat="44.42388" lon="6.14404">
        <ele>1064.3166504</ele>
        <time>2012-07-17T12:40:05Z</time>
      </trkpt>
      <trkpt lat="44.42397" lon="6.14406">
        <ele>1062.8747559</ele>
        <time>2012-07-17T12:40:09Z</time>
      </trkpt>
      <trkpt lat="44.4242" lon="6.14417">
        <ele>1059.5102539</ele>
        <time>2012-07-17T12:40:19Z</time>
      </trkpt>
      <trkpt lat="44.42445" lon="6.14425">
        <ele>1056.1455078</ele>
        <time>2012-07-17T12:40:30Z</time>
      </trkpt>
      <trkpt lat="44.42449" lon="6.14428">
        <ele>1055.6650391</ele>
        <time>2012-07-17T12:40:32Z</time>
      </trkpt>
      <trkpt lat="44.42445" lon="6.14445">
        <ele>1054.2231445</ele>
        <time>2012-07-17T12:40:42Z</time>
      </trkpt>
      <trkpt lat="44.42443" lon="6.14445">
        <ele>1054.2231445</ele>
        <time>2012-07-17T12:40:43Z</time>
      </trkpt>
      <trkpt lat="44.42429" lon="6.14447">
        <ele>1051.8195801</ele>
        <time>2012-07-17T12:40:48Z</time>
      </trkpt>
      <trkpt lat="44.42426" lon="6.14457">
        <ele>1050.3776855</ele>
        <time>2012-07-17T12:40:55Z</time>
      </trkpt>
      <trkpt lat="44.42431" lon="6.14463">
        <ele>1049.4162598</ele>
        <time>2012-07-17T12:40:58Z</time>
      </trkpt>
      <trkpt lat="44.42464" lon="6.14466">
        <ele>1045.090332</ele>
        <time>2012-07-17T12:41:12Z</time>
      </trkpt>
      <trkpt lat="44.42479" lon="6.14464">
        <ele>1042.6872559</ele>
        <time>2012-07-17T12:41:18Z</time>
      </trkpt>
      <trkpt lat="44.42488" lon="6.14462">
        <ele>1040.7644043</ele>
        <time>2012-07-17T12:41:22Z</time>
      </trkpt>
      <trkpt lat="44.42501" lon="6.14473">
        <ele>1039.3225098</ele>
        <time>2012-07-17T12:41:29Z</time>
      </trkpt>
      <trkpt lat="44.42496" lon="6.14485">
        <ele>1038.3613281</ele>
        <time>2012-07-17T12:41:35Z</time>
      </trkpt>
      <trkpt lat="44.42468" lon="6.14504">
        <ele>1034.0351563</ele>
        <time>2012-07-17T12:41:47Z</time>
      </trkpt>
      <trkpt lat="44.42459" lon="6.14512">
        <ele>1032.5932617</ele>
        <time>2012-07-17T12:41:51Z</time>
      </trkpt>
      <trkpt lat="44.42442" lon="6.14527">
        <ele>1029.7092285</ele>
        <time>2012-07-17T12:41:59Z</time>
      </trkpt>
      <trkpt lat="44.42427" lon="6.14533">
        <ele>1027.3061523</ele>
        <time>2012-07-17T12:42:05Z</time>
      </trkpt>
      <trkpt lat="44.42404" lon="6.14534">
        <ele>1023.9414063</ele>
        <time>2012-07-17T12:42:16Z</time>
      </trkpt>
      <trkpt lat="44.42399" lon="6.14547">
        <ele>1022.0187988</ele>
        <time>2012-07-17T12:42:22Z</time>
      </trkpt>
      <trkpt lat="44.42419" lon="6.14557">
        <ele>1019.1347656</ele>
        <time>2012-07-17T12:42:33Z</time>
      </trkpt>
      <trkpt lat="44.42423" lon="6.14558">
        <ele>1018.1733398</ele>
        <time>2012-07-17T12:42:35Z</time>
      </trkpt>
      <trkpt lat="44.42431" lon="6.14567">
        <ele>1016.2507324</ele>
        <time>2012-07-17T12:42:40Z</time>
      </trkpt>
      <trkpt lat="44.42434" lon="6.14567">
        <ele>1016.2507324</ele>
        <time>2012-07-17T12:42:57Z</time>
      </trkpt>
      <trkpt lat="44.42434" lon="6.14571">
        <ele>1015.2895508</ele>
        <time>2012-07-17T12:43:07Z</time>
      </trkpt>
      <trkpt lat="44.42412" lon="6.14571">
        <ele>1012.8862305</ele>
        <time>2012-07-17T12:43:18Z</time>
      </trkpt>
      <trkpt lat="44.42409" lon="6.14571">
        <ele>1012.8862305</ele>
        <time>2012-07-17T12:43:19Z</time>
      </trkpt>
      <trkpt lat="44.42399" lon="6.1457">
        <ele>1010.963623</ele>
        <time>2012-07-17T12:43:23Z</time>
      </trkpt>
      <trkpt lat="44.42395" lon="6.1457">
        <ele>1009.5217285</ele>
        <time>2012-07-17T12:43:25Z</time>
      </trkpt>
      <trkpt lat="44.42384" lon="6.1457">
        <ele>1009.0410156</ele>
        <time>2012-07-17T12:43:30Z</time>
      </trkpt>
      <trkpt lat="44.42384" lon="6.14586">
        <ele>1007.1184082</ele>
        <time>2012-07-17T12:43:36Z</time>
      </trkpt>
      <trkpt lat="44.42393" lon="6.14593">
        <ele>1004.2346191</ele>
        <time>2012-07-17T12:43:40Z</time>
      </trkpt>
      <trkpt lat="44.42396" lon="6.14594">
        <ele>1004.2346191</ele>
        <time>2012-07-17T12:43:41Z</time>
      </trkpt>
      <trkpt lat="44.42405" lon="6.14599">
        <ele>1003.2729492</ele>
        <time>2012-07-17T12:43:45Z</time>
      </trkpt>
      <trkpt lat="44.42397" lon="6.14608">
        <ele>1003.2729492</ele>
        <time>2012-07-17T12:43:52Z</time>
      </trkpt>
      <trkpt lat="44.42386" lon="6.14604">
        <ele>1000.8696289</ele>
        <time>2012-07-17T12:43:56Z</time>
      </trkpt>
      <trkpt lat="44.42358" lon="6.14588">
        <ele>996.5439453</ele>
        <time>2012-07-17T12:44:10Z</time>
      </trkpt>
      <trkpt lat="44.42354" lon="6.14585">
        <ele>995.5825195</ele>
        <time>2012-07-17T12:44:12Z</time>
      </trkpt>
      <trkpt lat="44.4235" lon="6.14583">
        <ele>994.6210938</ele>
        <time>2012-07-17T12:44:14Z</time>
      </trkpt>
      <trkpt lat="44.42348" lon="6.14584">
        <ele>996.0632324</ele>
        <time>2012-07-17T12:44:16Z</time>
      </trkpt>
      <trkpt lat="44.42348" lon="6.1459">
        <ele>995.1018066</ele>
        <time>2012-07-17T12:44:18Z</time>
      </trkpt>
      <trkpt lat="44.42358" lon="6.1461">
        <ele>990.7758789</ele>
        <time>2012-07-17T12:44:25Z</time>
      </trkpt>
      <trkpt lat="44.4236" lon="6.14613">
        <ele>990.7758789</ele>
        <time>2012-07-17T12:44:26Z</time>
      </trkpt>
      <trkpt lat="44.42373" lon="6.1463">
        <ele>988.3728027</ele>
        <time>2012-07-17T12:44:33Z</time>
      </trkpt>
      <trkpt lat="44.42374" lon="6.14633">
        <ele>990.2954102</ele>
        <time>2012-07-17T12:44:34Z</time>
      </trkpt>
      <trkpt lat="44.42366" lon="6.14638">
        <ele>990.2954102</ele>
        <time>2012-07-17T12:44:40Z</time>
      </trkpt>
      <trkpt lat="44.42357" lon="6.14632">
        <ele>987.4111328</ele>
        <time>2012-07-17T12:44:44Z</time>
      </trkpt>
      <trkpt lat="44.42344" lon="6.14624">
        <ele>985.4885254</ele>
        <time>2012-07-17T12:44:49Z</time>
      </trkpt>
      <trkpt lat="44.4233" lon="6.14614">
        <ele>984.5273438</ele>
        <time>2012-07-17T12:44:53Z</time>
      </trkpt>
      <trkpt lat="44.42313" lon="6.14602">
        <ele>983.0852051</ele>
        <time>2012-07-17T12:45:00Z</time>
      </trkpt>
      <trkpt lat="44.42305" lon="6.14597">
        <ele>982.1240234</ele>
        <time>2012-07-17T12:45:03Z</time>
      </trkpt>
      <trkpt lat="44.42297" lon="6.14592">
        <ele>980.201416</ele>
        <time>2012-07-17T12:45:06Z</time>
      </trkpt>
      <trkpt lat="44.42293" lon="6.14605">
        <ele>978.7595215</ele>
        <time>2012-07-17T12:45:12Z</time>
      </trkpt>
      <trkpt lat="44.42297" lon="6.14612">
        <ele>977.317627</ele>
        <time>2012-07-17T12:45:15Z</time>
      </trkpt>
      <trkpt lat="44.42302" lon="6.14617">
        <ele>976.8369141</ele>
        <time>2012-07-17T12:45:26Z</time>
      </trkpt>
      <trkpt lat="44.42304" lon="6.14621">
        <ele>976.8369141</ele>
        <time>2012-07-17T12:45:45Z</time>
      </trkpt>
      <trkpt lat="44.42304" lon="6.14621">
        <ele>976.3562012</ele>
        <time>2012-07-17T12:45:51Z</time>
      </trkpt>
      <trkpt lat="44.42303" lon="6.14628">
        <ele>976.3562012</ele>
        <time>2012-07-17T12:45:54Z</time>
      </trkpt>
      <trkpt lat="44.42288" lon="6.14622">
        <ele>974.4335938</ele>
        <time>2012-07-17T12:46:01Z</time>
      </trkpt>
      <trkpt lat="44.42277" lon="6.14613">
        <ele>972.5109863</ele>
        <time>2012-07-17T12:46:05Z</time>
      </trkpt>
      <trkpt lat="44.42268" lon="6.14608">
        <ele>970.5881348</ele>
        <time>2012-07-17T12:46:08Z</time>
      </trkpt>
      <trkpt lat="44.4226" lon="6.14595">
        <ele>968.6655273</ele>
        <time>2012-07-17T12:46:13Z</time>
      </trkpt>
      <trkpt lat="44.42239" lon="6.14576">
        <ele>965.3010254</ele>
        <time>2012-07-17T12:46:22Z</time>
      </trkpt>
      <trkpt lat="44.42233" lon="6.14571">
        <ele>962.8977051</ele>
        <time>2012-07-17T12:46:24Z</time>
      </trkpt>
      <trkpt lat="44.42218" lon="6.14546">
        <ele>961.4558105</ele>
        <time>2012-07-17T12:46:31Z</time>
      </trkpt>
      <trkpt lat="44.4221" lon="6.14528">
        <ele>959.5332031</ele>
        <time>2012-07-17T12:46:35Z</time>
      </trkpt>
      <trkpt lat="44.42208" lon="6.1452">
        <ele>957.6105957</ele>
        <time>2012-07-17T12:46:37Z</time>
      </trkpt>
      <trkpt lat="44.42203" lon="6.145">
        <ele>955.2070313</ele>
        <time>2012-07-17T12:46:43Z</time>
      </trkpt>
      <trkpt lat="44.42198" lon="6.14496">
        <ele>953.7651367</ele>
        <time>2012-07-17T12:46:45Z</time>
      </trkpt>
      <trkpt lat="44.4218" lon="6.14489">
        <ele>948.9584961</ele>
        <time>2012-07-17T12:46:51Z</time>
      </trkpt>
      <trkpt lat="44.42177" lon="6.14491">
        <ele>948.9584961</ele>
        <time>2012-07-17T12:46:52Z</time>
      </trkpt>
      <trkpt lat="44.42171" lon="6.14495">
        <ele>947.0358887</ele>
        <time>2012-07-17T12:46:54Z</time>
      </trkpt>
      <trkpt lat="44.42158" lon="6.14506">
        <ele>945.1132813</ele>
        <time>2012-07-17T12:46:58Z</time>
      </trkpt>
      <trkpt lat="44.42151" lon="6.14519">
        <ele>943.1906738</ele>
        <time>2012-07-17T12:47:01Z</time>
      </trkpt>
      <trkpt lat="44.42141" lon="6.14545">
        <ele>939.8259277</ele>
        <time>2012-07-17T12:47:07Z</time>
      </trkpt>
      <trkpt lat="44.4214" lon="6.14549">
        <ele>939.8259277</ele>
        <time>2012-07-17T12:47:08Z</time>
      </trkpt>
      <trkpt lat="44.42125" lon="6.14576">
        <ele>937.9033203</ele>
        <time>2012-07-17T12:47:18Z</time>
      </trkpt>
      <trkpt lat="44.4212" lon="6.14597">
        <ele>935.9807129</ele>
        <time>2012-07-17T12:47:22Z</time>
      </trkpt>
      <trkpt lat="44.42111" lon="6.14649">
        <ele>934.0581055</ele>
        <time>2012-07-17T12:47:31Z</time>
      </trkpt>
      <trkpt lat="44.42108" lon="6.14662">
        <ele>935.5</ele>
        <time>2012-07-17T12:47:33Z</time>
      </trkpt>
      <trkpt lat="44.42087" lon="6.14739">
        <ele>932.135498</ele>
        <time>2012-07-17T12:47:43Z</time>
      </trkpt>
      <trkpt lat="44.42086" lon="6.14746">
        <ele>932.6162109</ele>
        <time>2012-07-17T12:47:44Z</time>
      </trkpt>
      <trkpt lat="44.42101" lon="6.14786">
        <ele>931.1743164</ele>
        <time>2012-07-17T12:47:51Z</time>
      </trkpt>
      <trkpt lat="44.42112" lon="6.14788">
        <ele>931.1743164</ele>
        <time>2012-07-17T12:47:53Z</time>
      </trkpt>
      <trkpt lat="44.42125" lon="6.14786">
        <ele>931.1743164</ele>
        <time>2012-07-17T12:47:55Z</time>
      </trkpt>
      <trkpt lat="44.42154" lon="6.14806">
        <ele>929.2514648</ele>
        <time>2012-07-17T12:47:59Z</time>
      </trkpt>
      <trkpt lat="44.42155" lon="6.14816">
        <ele>925.8869629</ele>
        <time>2012-07-17T12:48:00Z</time>
      </trkpt>
      <trkpt lat="44.42156" lon="6.14826">
        <ele>925.8869629</ele>
        <time>2012-07-17T12:48:01Z</time>
      </trkpt>
      <trkpt lat="44.42161" lon="6.14886">
        <ele>926.8483887</ele>
        <time>2012-07-17T12:48:07Z</time>
      </trkpt>
      <trkpt lat="44.42141" lon="6.14925">
        <ele>928.2902832</ele>
        <time>2012-07-17T12:48:14Z</time>
      </trkpt>
      <trkpt lat="44.42093" lon="6.14944">
        <ele>929.2514648</ele>
        <time>2012-07-17T12:48:28Z</time>
      </trkpt>
      <trkpt lat="44.42056" lon="6.14958">
        <ele>929.7321777</ele>
        <time>2012-07-17T12:48:40Z</time>
      </trkpt>
      <trkpt lat="44.42046" lon="6.14973">
        <ele>929.7321777</ele>
        <time>2012-07-17T12:48:44Z</time>
      </trkpt>
      <trkpt lat="44.42024" lon="6.1503">
        <ele>928.2902832</ele>
        <time>2012-07-17T12:48:55Z</time>
      </trkpt>
      <trkpt lat="44.41992" lon="6.15119">
        <ele>925.8869629</ele>
        <time>2012-07-17T12:49:08Z</time>
      </trkpt>
      <trkpt lat="44.41975" lon="6.15166">
        <ele>924.4450684</ele>
        <time>2012-07-17T12:49:14Z</time>
      </trkpt>
      <trkpt lat="44.41958" lon="6.15223">
        <ele>922.5222168</ele>
        <time>2012-07-17T12:49:20Z</time>
      </trkpt>
      <trkpt lat="44.41945" lon="6.15289">
        <ele>919.1577148</ele>
        <time>2012-07-17T12:49:26Z</time>
      </trkpt>
      <trkpt lat="44.41943" lon="6.153">
        <ele>919.1577148</ele>
        <time>2012-07-17T12:49:27Z</time>
      </trkpt>
      <trkpt lat="44.41932" lon="6.15365">
        <ele>916.2736816</ele>
        <time>2012-07-17T12:49:32Z</time>
      </trkpt>
      <trkpt lat="44.41926" lon="6.15395">
        <ele>914.8317871</ele>
        <time>2012-07-17T12:49:34Z</time>
      </trkpt>
      <trkpt lat="44.41918" lon="6.15458">
        <ele>912.4284668</ele>
        <time>2012-07-17T12:49:38Z</time>
      </trkpt>
      <trkpt lat="44.41911" lon="6.15505">
        <ele>910.0251465</ele>
        <time>2012-07-17T12:49:41Z</time>
      </trkpt>
      <trkpt lat="44.41907" lon="6.15535">
        <ele>907.6218262</ele>
        <time>2012-07-17T12:49:43Z</time>
      </trkpt>
      <trkpt lat="44.41899" lon="6.15607">
        <ele>905.6992188</ele>
        <time>2012-07-17T12:49:48Z</time>
      </trkpt>
      <trkpt lat="44.41899" lon="6.15637">
        <ele>905.2185059</ele>
        <time>2012-07-17T12:49:50Z</time>
      </trkpt>
      <trkpt lat="44.419" lon="6.15667">
        <ele>903.7766113</ele>
        <time>2012-07-17T12:49:52Z</time>
      </trkpt>
      <trkpt lat="44.41902" lon="6.15698">
        <ele>902.3344727</ele>
        <time>2012-07-17T12:49:54Z</time>
      </trkpt>
      <trkpt lat="44.41903" lon="6.15771">
        <ele>900.4121094</ele>
        <time>2012-07-17T12:49:59Z</time>
      </trkpt>
      <trkpt lat="44.41902" lon="6.15798">
        <ele>898.0087891</ele>
        <time>2012-07-17T12:50:01Z</time>
      </trkpt>
      <trkpt lat="44.41894" lon="6.15912">
        <ele>896.0861816</ele>
        <time>2012-07-17T12:50:11Z</time>
      </trkpt>
      <trkpt lat="44.41892" lon="6.15932">
        <ele>895.6054688</ele>
        <time>2012-07-17T12:50:13Z</time>
      </trkpt>
      <trkpt lat="44.41882" lon="6.15984">
        <ele>893.6828613</ele>
        <time>2012-07-17T12:50:18Z</time>
      </trkpt>
      <trkpt lat="44.41866" lon="6.16204">
        <ele>891.2792969</ele>
        <time>2012-07-17T12:50:39Z</time>
      </trkpt>
      <trkpt lat="44.41867" lon="6.16228">
        <ele>888.8762207</ele>
        <time>2012-07-17T12:50:41Z</time>
      </trkpt>
      <trkpt lat="44.4186" lon="6.16304">
        <ele>886.4729004</ele>
        <time>2012-07-17T12:50:48Z</time>
      </trkpt>
      <trkpt lat="44.41856" lon="6.16349">
        <ele>884.550293</ele>
        <time>2012-07-17T12:50:58Z</time>
      </trkpt>
      <trkpt lat="44.41856" lon="6.16349">
        <ele>885.5114746</ele>
        <time>2012-07-17T12:51:34Z</time>
      </trkpt>
      <trkpt lat="44.41856" lon="6.16349">
        <ele>885.5114746</ele>
        <time>2012-07-17T12:51:36Z</time>
      </trkpt>
    </trkseg>
  </trk>
</gpx>